<?xml version="1.0" encoding="UTF-8" standalone="no" ?>
<gpx xmlns="http://www.topografix.com/GPX/1/1" xmlns:xsi="http://www.w3.org/2001/XMLSchema-instance" xsi:schemaLocation="http://www.topografix.com/GPX/1/1 http://www.topografix.com/GPX/1/1/gpx.xsd" version="1.1" creator="VisuGPX - https://www.visugpx.com">
  <metadata>
    <name>Randonnée au départ de Brie-Comte-Robert</name>
    <desc><![CDATA[Rando du 09/09/2014 à Brie-Comte-Robert]]></desc>
  </metadata>
  <trk>
    <name><![CDATA[5 Boulevard de la République]]></name>
    <desc><![CDATA[]]></desc>
    <trkseg>
      <trkpt lat="48.6902" lon="2.60633">
        <ele>138</ele>
        <time>2014-09-09T07:00:09.892Z</time>
      </trkpt>
      <trkpt lat="48.69012" lon="2.60636">
        <ele>136</ele>
        <time>2014-09-09T07:00:33.812Z</time>
      </trkpt>
      <trkpt lat="48.69011" lon="2.60636">
        <ele>136</ele>
        <time>2014-09-09T07:00:34.796Z</time>
      </trkpt>
      <trkpt lat="48.69002" lon="2.60633">
        <ele>132</ele>
        <time>2014-09-09T07:00:44.840Z</time>
      </trkpt>
      <trkpt lat="48.69001" lon="2.60633">
        <ele>131</ele>
        <time>2014-09-09T07:00:45.777Z</time>
      </trkpt>
      <trkpt lat="48.68994" lon="2.60638">
        <ele>130</ele>
        <time>2014-09-09T07:00:52.783Z</time>
      </trkpt>
      <trkpt lat="48.68992" lon="2.60639">
        <ele>131</ele>
        <time>2014-09-09T07:00:53.777Z</time>
      </trkpt>
      <trkpt lat="48.68985" lon="2.60646">
        <ele>131</ele>
        <time>2014-09-09T07:01:03.780Z</time>
      </trkpt>
      <trkpt lat="48.68984" lon="2.60647">
        <ele>131</ele>
        <time>2014-09-09T07:01:04.829Z</time>
      </trkpt>
      <trkpt lat="48.68976" lon="2.60652">
        <ele>133</ele>
        <time>2014-09-09T07:01:13.807Z</time>
      </trkpt>
      <trkpt lat="48.68975" lon="2.60653">
        <ele>133</ele>
        <time>2014-09-09T07:01:14.786Z</time>
      </trkpt>
      <trkpt lat="48.68968" lon="2.60656">
        <ele>140</ele>
        <time>2014-09-09T07:01:23.779Z</time>
      </trkpt>
      <trkpt lat="48.68966" lon="2.60657">
        <ele>140</ele>
        <time>2014-09-09T07:01:24.782Z</time>
      </trkpt>
      <trkpt lat="48.68958" lon="2.60662">
        <ele>140</ele>
        <time>2014-09-09T07:01:30.784Z</time>
      </trkpt>
      <trkpt lat="48.68957" lon="2.60663">
        <ele>139</ele>
        <time>2014-09-09T07:01:31.731Z</time>
      </trkpt>
      <trkpt lat="48.6895" lon="2.6067">
        <ele>139</ele>
        <time>2014-09-09T07:01:37.740Z</time>
      </trkpt>
      <trkpt lat="48.68949" lon="2.60672">
        <ele>139</ele>
        <time>2014-09-09T07:01:38.779Z</time>
      </trkpt>
      <trkpt lat="48.68941" lon="2.60677">
        <ele>135</ele>
        <time>2014-09-09T07:01:45.786Z</time>
      </trkpt>
      <trkpt lat="48.6894" lon="2.60678">
        <ele>134</ele>
        <time>2014-09-09T07:01:46.739Z</time>
      </trkpt>
      <trkpt lat="48.68933" lon="2.60684">
        <ele>134</ele>
        <time>2014-09-09T07:01:52.778Z</time>
      </trkpt>
      <trkpt lat="48.68932" lon="2.60685">
        <ele>135</ele>
        <time>2014-09-09T07:01:53.735Z</time>
      </trkpt>
      <trkpt lat="48.68925" lon="2.60692">
        <ele>136</ele>
        <time>2014-09-09T07:01:59.776Z</time>
      </trkpt>
      <trkpt lat="48.68924" lon="2.60693">
        <ele>136</ele>
        <time>2014-09-09T07:02:00.749Z</time>
      </trkpt>
      <trkpt lat="48.68916" lon="2.607">
        <ele>134</ele>
        <time>2014-09-09T07:02:07.735Z</time>
      </trkpt>
      <trkpt lat="48.68916" lon="2.60702">
        <ele>135</ele>
        <time>2014-09-09T07:02:08.735Z</time>
      </trkpt>
      <trkpt lat="48.6891" lon="2.6071">
        <ele>134</ele>
        <time>2014-09-09T07:02:15.774Z</time>
      </trkpt>
      <trkpt lat="48.68909" lon="2.60711">
        <ele>134</ele>
        <time>2014-09-09T07:02:16.782Z</time>
      </trkpt>
      <trkpt lat="48.68902" lon="2.60718">
        <ele>137</ele>
        <time>2014-09-09T07:02:43.784Z</time>
      </trkpt>
      <trkpt lat="48.68901" lon="2.60719">
        <ele>137</ele>
        <time>2014-09-09T07:02:44.777Z</time>
      </trkpt>
      <trkpt lat="48.68894" lon="2.60725">
        <ele>136</ele>
        <time>2014-09-09T07:02:50.737Z</time>
      </trkpt>
      <trkpt lat="48.68893" lon="2.60726">
        <ele>135</ele>
        <time>2014-09-09T07:02:51.788Z</time>
      </trkpt>
      <trkpt lat="48.68886" lon="2.60734">
        <ele>135</ele>
        <time>2014-09-09T07:02:59.744Z</time>
      </trkpt>
      <trkpt lat="48.68885" lon="2.60735">
        <ele>134</ele>
        <time>2014-09-09T07:03:00.786Z</time>
      </trkpt>
      <trkpt lat="48.68877" lon="2.60742">
        <ele>133</ele>
        <time>2014-09-09T07:03:08.747Z</time>
      </trkpt>
      <trkpt lat="48.68877" lon="2.60743">
        <ele>133</ele>
        <time>2014-09-09T07:03:09.736Z</time>
      </trkpt>
      <trkpt lat="48.68869" lon="2.6075">
        <ele>133</ele>
        <time>2014-09-09T07:03:17.809Z</time>
      </trkpt>
      <trkpt lat="48.68868" lon="2.6075">
        <ele>133</ele>
        <time>2014-09-09T07:03:18.794Z</time>
      </trkpt>
      <trkpt lat="48.6886" lon="2.60753">
        <ele>136</ele>
        <time>2014-09-09T07:03:25.734Z</time>
      </trkpt>
      <trkpt lat="48.68859" lon="2.60753">
        <ele>136</ele>
        <time>2014-09-09T07:03:26.779Z</time>
      </trkpt>
      <trkpt lat="48.6885" lon="2.60758">
        <ele>137</ele>
        <time>2014-09-09T07:03:33.735Z</time>
      </trkpt>
      <trkpt lat="48.68849" lon="2.60759">
        <ele>137</ele>
        <time>2014-09-09T07:03:34.868Z</time>
      </trkpt>
      <trkpt lat="48.68841" lon="2.60763">
        <ele>136</ele>
        <time>2014-09-09T07:03:41.733Z</time>
      </trkpt>
      <trkpt lat="48.6884" lon="2.60763">
        <ele>136</ele>
        <time>2014-09-09T07:03:42.780Z</time>
      </trkpt>
      <trkpt lat="48.68832" lon="2.60765">
        <ele>136</ele>
        <time>2014-09-09T07:03:49.772Z</time>
      </trkpt>
      <trkpt lat="48.68831" lon="2.60766">
        <ele>135</ele>
        <time>2014-09-09T07:03:50.780Z</time>
      </trkpt>
      <trkpt lat="48.68823" lon="2.6077">
        <ele>135</ele>
        <time>2014-09-09T07:03:57.736Z</time>
      </trkpt>
      <trkpt lat="48.68822" lon="2.60771">
        <ele>134</ele>
        <time>2014-09-09T07:03:58.734Z</time>
      </trkpt>
      <trkpt lat="48.68819" lon="2.60782">
        <ele>136</ele>
        <time>2014-09-09T07:04:06.792Z</time>
      </trkpt>
      <trkpt lat="48.68817" lon="2.60783">
        <ele>135</ele>
        <time>2014-09-09T07:04:07.794Z</time>
      </trkpt>
      <trkpt lat="48.68809" lon="2.60784">
        <ele>137</ele>
        <time>2014-09-09T07:04:15.777Z</time>
      </trkpt>
      <trkpt lat="48.68808" lon="2.60784">
        <ele>137</ele>
        <time>2014-09-09T07:04:16.736Z</time>
      </trkpt>
      <trkpt lat="48.68804" lon="2.60796">
        <ele>138</ele>
        <time>2014-09-09T07:04:27.780Z</time>
      </trkpt>
      <trkpt lat="48.68803" lon="2.60797">
        <ele>138</ele>
        <time>2014-09-09T07:04:28.782Z</time>
      </trkpt>
      <trkpt lat="48.68795" lon="2.60803">
        <ele>138</ele>
        <time>2014-09-09T07:04:35.757Z</time>
      </trkpt>
      <trkpt lat="48.68794" lon="2.60804">
        <ele>139</ele>
        <time>2014-09-09T07:04:36.739Z</time>
      </trkpt>
      <trkpt lat="48.68786" lon="2.60811">
        <ele>140</ele>
        <time>2014-09-09T07:04:43.760Z</time>
      </trkpt>
      <trkpt lat="48.68779" lon="2.60817">
        <ele>139</ele>
        <time>2014-09-09T07:04:51.644Z</time>
      </trkpt>
      <trkpt lat="48.68771" lon="2.60825">
        <ele>138</ele>
        <time>2014-09-09T07:04:57.758Z</time>
      </trkpt>
      <trkpt lat="48.68771" lon="2.60826">
        <ele>136</ele>
        <time>2014-09-09T07:04:58.744Z</time>
      </trkpt>
      <trkpt lat="48.68762" lon="2.60831">
        <ele>138</ele>
        <time>2014-09-09T07:05:05.772Z</time>
      </trkpt>
      <trkpt lat="48.68761" lon="2.60831">
        <ele>140</ele>
        <time>2014-09-09T07:05:06.774Z</time>
      </trkpt>
      <trkpt lat="48.68752" lon="2.60836">
        <ele>138</ele>
        <time>2014-09-09T07:05:13.768Z</time>
      </trkpt>
      <trkpt lat="48.68752" lon="2.60837">
        <ele>138</ele>
        <time>2014-09-09T07:05:14.806Z</time>
      </trkpt>
      <trkpt lat="48.68744" lon="2.60842">
        <ele>139</ele>
        <time>2014-09-09T07:05:21.762Z</time>
      </trkpt>
      <trkpt lat="48.68743" lon="2.60843">
        <ele>140</ele>
        <time>2014-09-09T07:05:22.773Z</time>
      </trkpt>
      <trkpt lat="48.68735" lon="2.60847">
        <ele>140</ele>
        <time>2014-09-09T07:05:27.774Z</time>
      </trkpt>
      <trkpt lat="48.68734" lon="2.60848">
        <ele>140</ele>
        <time>2014-09-09T07:05:28.771Z</time>
      </trkpt>
      <trkpt lat="48.68728" lon="2.60854">
        <ele>140</ele>
        <time>2014-09-09T07:05:34.777Z</time>
      </trkpt>
      <trkpt lat="48.68726" lon="2.60855">
        <ele>141</ele>
        <time>2014-09-09T07:05:35.777Z</time>
      </trkpt>
      <trkpt lat="48.68718" lon="2.60858">
        <ele>140</ele>
        <time>2014-09-09T07:05:41.783Z</time>
      </trkpt>
      <trkpt lat="48.68717" lon="2.60858">
        <ele>139</ele>
        <time>2014-09-09T07:05:42.786Z</time>
      </trkpt>
      <trkpt lat="48.68709" lon="2.60862">
        <ele>138</ele>
        <time>2014-09-09T07:05:48.763Z</time>
      </trkpt>
      <trkpt lat="48.68707" lon="2.60863">
        <ele>138</ele>
        <time>2014-09-09T07:05:49.737Z</time>
      </trkpt>
      <trkpt lat="48.687" lon="2.60868">
        <ele>137</ele>
        <time>2014-09-09T07:05:55.781Z</time>
      </trkpt>
      <trkpt lat="48.68699" lon="2.60869">
        <ele>138</ele>
        <time>2014-09-09T07:05:56.794Z</time>
      </trkpt>
      <trkpt lat="48.68691" lon="2.60872">
        <ele>138</ele>
        <time>2014-09-09T07:06:02.774Z</time>
      </trkpt>
      <trkpt lat="48.68689" lon="2.60872">
        <ele>139</ele>
        <time>2014-09-09T07:06:03.774Z</time>
      </trkpt>
      <trkpt lat="48.68682" lon="2.60877">
        <ele>138</ele>
        <time>2014-09-09T07:06:13.778Z</time>
      </trkpt>
      <trkpt lat="48.68681" lon="2.60877">
        <ele>140</ele>
        <time>2014-09-09T07:06:14.778Z</time>
      </trkpt>
      <trkpt lat="48.68672" lon="2.60881">
        <ele>139</ele>
        <time>2014-09-09T07:06:20.776Z</time>
      </trkpt>
      <trkpt lat="48.68671" lon="2.60882">
        <ele>138</ele>
        <time>2014-09-09T07:06:21.787Z</time>
      </trkpt>
      <trkpt lat="48.68662" lon="2.60883">
        <ele>138</ele>
        <time>2014-09-09T07:06:27.758Z</time>
      </trkpt>
      <trkpt lat="48.68661" lon="2.60883">
        <ele>139</ele>
        <time>2014-09-09T07:06:28.733Z</time>
      </trkpt>
      <trkpt lat="48.68652" lon="2.60885">
        <ele>141</ele>
        <time>2014-09-09T07:06:34.782Z</time>
      </trkpt>
      <trkpt lat="48.68651" lon="2.60886">
        <ele>140</ele>
        <time>2014-09-09T07:06:35.773Z</time>
      </trkpt>
      <trkpt lat="48.68642" lon="2.60889">
        <ele>141</ele>
        <time>2014-09-09T07:06:41.774Z</time>
      </trkpt>
      <trkpt lat="48.68641" lon="2.60888">
        <ele>138</ele>
        <time>2014-09-09T07:06:42.780Z</time>
      </trkpt>
      <trkpt lat="48.68633" lon="2.60889">
        <ele>141</ele>
        <time>2014-09-09T07:06:48.739Z</time>
      </trkpt>
      <trkpt lat="48.68631" lon="2.60889">
        <ele>142</ele>
        <time>2014-09-09T07:06:49.775Z</time>
      </trkpt>
      <trkpt lat="48.68623" lon="2.60892">
        <ele>141</ele>
        <time>2014-09-09T07:06:56.777Z</time>
      </trkpt>
      <trkpt lat="48.68621" lon="2.60892">
        <ele>140</ele>
        <time>2014-09-09T07:06:57.779Z</time>
      </trkpt>
      <trkpt lat="48.68614" lon="2.60896">
        <ele>140</ele>
        <time>2014-09-09T07:07:06.737Z</time>
      </trkpt>
      <trkpt lat="48.68612" lon="2.60896">
        <ele>140</ele>
        <time>2014-09-09T07:07:07.738Z</time>
      </trkpt>
      <trkpt lat="48.68603" lon="2.60898">
        <ele>140</ele>
        <time>2014-09-09T07:07:13.776Z</time>
      </trkpt>
      <trkpt lat="48.68602" lon="2.60899">
        <ele>140</ele>
        <time>2014-09-09T07:07:14.774Z</time>
      </trkpt>
      <trkpt lat="48.68593" lon="2.60901">
        <ele>142</ele>
        <time>2014-09-09T07:07:20.789Z</time>
      </trkpt>
      <trkpt lat="48.68592" lon="2.60902">
        <ele>141</ele>
        <time>2014-09-09T07:07:21.779Z</time>
      </trkpt>
      <trkpt lat="48.68583" lon="2.60905">
        <ele>140</ele>
        <time>2014-09-09T07:07:28.777Z</time>
      </trkpt>
      <trkpt lat="48.68582" lon="2.60906">
        <ele>140</ele>
        <time>2014-09-09T07:07:29.738Z</time>
      </trkpt>
      <trkpt lat="48.68574" lon="2.6091">
        <ele>139</ele>
        <time>2014-09-09T07:07:36.740Z</time>
      </trkpt>
      <trkpt lat="48.68573" lon="2.60911">
        <ele>138</ele>
        <time>2014-09-09T07:07:37.789Z</time>
      </trkpt>
      <trkpt lat="48.68564" lon="2.60912">
        <ele>144</ele>
        <time>2014-09-09T07:07:43.803Z</time>
      </trkpt>
      <trkpt lat="48.68563" lon="2.60911">
        <ele>141</ele>
        <time>2014-09-09T07:07:44.738Z</time>
      </trkpt>
      <trkpt lat="48.68554" lon="2.6091">
        <ele>139</ele>
        <time>2014-09-09T07:07:53.801Z</time>
      </trkpt>
      <trkpt lat="48.68553" lon="2.6091">
        <ele>139</ele>
        <time>2014-09-09T07:07:54.780Z</time>
      </trkpt>
      <trkpt lat="48.68544" lon="2.60913">
        <ele>138</ele>
        <time>2014-09-09T07:08:03.783Z</time>
      </trkpt>
      <trkpt lat="48.68543" lon="2.60913">
        <ele>138</ele>
        <time>2014-09-09T07:08:04.777Z</time>
      </trkpt>
      <trkpt lat="48.68535" lon="2.60917">
        <ele>139</ele>
        <time>2014-09-09T07:08:12.740Z</time>
      </trkpt>
      <trkpt lat="48.68534" lon="2.60918">
        <ele>139</ele>
        <time>2014-09-09T07:08:13.737Z</time>
      </trkpt>
      <trkpt lat="48.68526" lon="2.6092">
        <ele>139</ele>
        <time>2014-09-09T07:08:20.777Z</time>
      </trkpt>
      <trkpt lat="48.68525" lon="2.60921">
        <ele>139</ele>
        <time>2014-09-09T07:08:21.750Z</time>
      </trkpt>
      <trkpt lat="48.68517" lon="2.60925">
        <ele>140</ele>
        <time>2014-09-09T07:08:28.782Z</time>
      </trkpt>
      <trkpt lat="48.68515" lon="2.60926">
        <ele>141</ele>
        <time>2014-09-09T07:08:29.740Z</time>
      </trkpt>
      <trkpt lat="48.68508" lon="2.6093">
        <ele>141</ele>
        <time>2014-09-09T07:08:34.810Z</time>
      </trkpt>
      <trkpt lat="48.68506" lon="2.6093">
        <ele>141</ele>
        <time>2014-09-09T07:08:35.775Z</time>
      </trkpt>
      <trkpt lat="48.68498" lon="2.60934">
        <ele>138</ele>
        <time>2014-09-09T07:08:41.740Z</time>
      </trkpt>
      <trkpt lat="48.68496" lon="2.60934">
        <ele>138</ele>
        <time>2014-09-09T07:08:42.782Z</time>
      </trkpt>
      <trkpt lat="48.68489" lon="2.60937">
        <ele>138</ele>
        <time>2014-09-09T07:08:48.779Z</time>
      </trkpt>
      <trkpt lat="48.68487" lon="2.60938">
        <ele>138</ele>
        <time>2014-09-09T07:08:49.777Z</time>
      </trkpt>
      <trkpt lat="48.68481" lon="2.60945">
        <ele>138</ele>
        <time>2014-09-09T07:08:55.773Z</time>
      </trkpt>
      <trkpt lat="48.6848" lon="2.60946">
        <ele>139</ele>
        <time>2014-09-09T07:08:56.778Z</time>
      </trkpt>
      <trkpt lat="48.68472" lon="2.60954">
        <ele>139</ele>
        <time>2014-09-09T07:09:03.775Z</time>
      </trkpt>
      <trkpt lat="48.68471" lon="2.60954">
        <ele>139</ele>
        <time>2014-09-09T07:09:04.783Z</time>
      </trkpt>
      <trkpt lat="48.68463" lon="2.60959">
        <ele>136</ele>
        <time>2014-09-09T07:09:10.737Z</time>
      </trkpt>
      <trkpt lat="48.68462" lon="2.60959">
        <ele>136</ele>
        <time>2014-09-09T07:09:11.796Z</time>
      </trkpt>
      <trkpt lat="48.68455" lon="2.60964">
        <ele>136</ele>
        <time>2014-09-09T07:09:17.781Z</time>
      </trkpt>
      <trkpt lat="48.68453" lon="2.60965">
        <ele>138</ele>
        <time>2014-09-09T07:09:18.778Z</time>
      </trkpt>
      <trkpt lat="48.68445" lon="2.6097">
        <ele>135</ele>
        <time>2014-09-09T07:09:25.774Z</time>
      </trkpt>
      <trkpt lat="48.68444" lon="2.60971">
        <ele>135</ele>
        <time>2014-09-09T07:09:26.736Z</time>
      </trkpt>
      <trkpt lat="48.68436" lon="2.60975">
        <ele>134</ele>
        <time>2014-09-09T07:09:32.777Z</time>
      </trkpt>
      <trkpt lat="48.68435" lon="2.60976">
        <ele>134</ele>
        <time>2014-09-09T07:09:33.823Z</time>
      </trkpt>
      <trkpt lat="48.68428" lon="2.60982">
        <ele>134</ele>
        <time>2014-09-09T07:09:42.437Z</time>
      </trkpt>
      <trkpt lat="48.68426" lon="2.60982">
        <ele>134</ele>
        <time>2014-09-09T07:09:42.764Z</time>
      </trkpt>
      <trkpt lat="48.68419" lon="2.60987">
        <ele>133</ele>
        <time>2014-09-09T07:09:47.809Z</time>
      </trkpt>
      <trkpt lat="48.68418" lon="2.60988">
        <ele>133</ele>
        <time>2014-09-09T07:09:48.775Z</time>
      </trkpt>
      <trkpt lat="48.68411" lon="2.60994">
        <ele>133</ele>
        <time>2014-09-09T07:09:55.763Z</time>
      </trkpt>
      <trkpt lat="48.6841" lon="2.60995">
        <ele>132</ele>
        <time>2014-09-09T07:09:56.779Z</time>
      </trkpt>
      <trkpt lat="48.68401" lon="2.60999">
        <ele>131</ele>
        <time>2014-09-09T07:10:02.741Z</time>
      </trkpt>
      <trkpt lat="48.684" lon="2.60999">
        <ele>132</ele>
        <time>2014-09-09T07:10:03.778Z</time>
      </trkpt>
      <trkpt lat="48.68393" lon="2.61001">
        <ele>132</ele>
        <time>2014-09-09T07:10:09.811Z</time>
      </trkpt>
      <trkpt lat="48.68392" lon="2.61002">
        <ele>132</ele>
        <time>2014-09-09T07:10:10.779Z</time>
      </trkpt>
      <trkpt lat="48.68383" lon="2.61006">
        <ele>133</ele>
        <time>2014-09-09T07:10:17.541Z</time>
      </trkpt>
      <trkpt lat="48.68382" lon="2.61007">
        <ele>133</ele>
        <time>2014-09-09T07:10:17.737Z</time>
      </trkpt>
      <trkpt lat="48.68374" lon="2.61012">
        <ele>132</ele>
        <time>2014-09-09T07:10:23.777Z</time>
      </trkpt>
      <trkpt lat="48.68373" lon="2.61013">
        <ele>132</ele>
        <time>2014-09-09T07:10:24.801Z</time>
      </trkpt>
      <trkpt lat="48.68366" lon="2.61017">
        <ele>132</ele>
        <time>2014-09-09T07:10:30.743Z</time>
      </trkpt>
      <trkpt lat="48.68364" lon="2.61018">
        <ele>132</ele>
        <time>2014-09-09T07:10:31.776Z</time>
      </trkpt>
      <trkpt lat="48.68356" lon="2.61021">
        <ele>132</ele>
        <time>2014-09-09T07:10:38.784Z</time>
      </trkpt>
      <trkpt lat="48.68355" lon="2.61022">
        <ele>132</ele>
        <time>2014-09-09T07:10:39.778Z</time>
      </trkpt>
      <trkpt lat="48.68347" lon="2.61025">
        <ele>133</ele>
        <time>2014-09-09T07:10:45.778Z</time>
      </trkpt>
      <trkpt lat="48.68346" lon="2.61025">
        <ele>133</ele>
        <time>2014-09-09T07:10:46.757Z</time>
      </trkpt>
      <trkpt lat="48.68337" lon="2.61028">
        <ele>137</ele>
        <time>2014-09-09T07:10:52.785Z</time>
      </trkpt>
      <trkpt lat="48.68336" lon="2.61029">
        <ele>136</ele>
        <time>2014-09-09T07:10:53.739Z</time>
      </trkpt>
      <trkpt lat="48.68328" lon="2.61032">
        <ele>138</ele>
        <time>2014-09-09T07:10:59.781Z</time>
      </trkpt>
      <trkpt lat="48.68327" lon="2.61032">
        <ele>136</ele>
        <time>2014-09-09T07:11:00.774Z</time>
      </trkpt>
      <trkpt lat="48.68319" lon="2.61036">
        <ele>136</ele>
        <time>2014-09-09T07:11:08.733Z</time>
      </trkpt>
      <trkpt lat="48.68318" lon="2.61036">
        <ele>137</ele>
        <time>2014-09-09T07:11:09.745Z</time>
      </trkpt>
      <trkpt lat="48.6831" lon="2.61039">
        <ele>137</ele>
        <time>2014-09-09T07:11:15.767Z</time>
      </trkpt>
      <trkpt lat="48.68309" lon="2.6104">
        <ele>136</ele>
        <time>2014-09-09T07:11:16.778Z</time>
      </trkpt>
      <trkpt lat="48.683" lon="2.61043">
        <ele>135</ele>
        <time>2014-09-09T07:11:23.782Z</time>
      </trkpt>
      <trkpt lat="48.68299" lon="2.61044">
        <ele>135</ele>
        <time>2014-09-09T07:11:24.735Z</time>
      </trkpt>
      <trkpt lat="48.68291" lon="2.61045">
        <ele>135</ele>
        <time>2014-09-09T07:11:30.741Z</time>
      </trkpt>
      <trkpt lat="48.68289" lon="2.61046">
        <ele>136</ele>
        <time>2014-09-09T07:11:31.776Z</time>
      </trkpt>
      <trkpt lat="48.68281" lon="2.61047">
        <ele>136</ele>
        <time>2014-09-09T07:11:37.740Z</time>
      </trkpt>
      <trkpt lat="48.6828" lon="2.61047">
        <ele>137</ele>
        <time>2014-09-09T07:11:38.810Z</time>
      </trkpt>
      <trkpt lat="48.68271" lon="2.61049">
        <ele>135</ele>
        <time>2014-09-09T07:11:45.738Z</time>
      </trkpt>
      <trkpt lat="48.6827" lon="2.61049">
        <ele>136</ele>
        <time>2014-09-09T07:11:46.796Z</time>
      </trkpt>
      <trkpt lat="48.68262" lon="2.61051">
        <ele>137</ele>
        <time>2014-09-09T07:11:53.734Z</time>
      </trkpt>
      <trkpt lat="48.68261" lon="2.61051">
        <ele>138</ele>
        <time>2014-09-09T07:11:54.736Z</time>
      </trkpt>
      <trkpt lat="48.68253" lon="2.61052">
        <ele>138</ele>
        <time>2014-09-09T07:12:00.780Z</time>
      </trkpt>
      <trkpt lat="48.68252" lon="2.61053">
        <ele>139</ele>
        <time>2014-09-09T07:12:01.737Z</time>
      </trkpt>
      <trkpt lat="48.68243" lon="2.61056">
        <ele>140</ele>
        <time>2014-09-09T07:12:07.762Z</time>
      </trkpt>
      <trkpt lat="48.68242" lon="2.61056">
        <ele>140</ele>
        <time>2014-09-09T07:12:08.770Z</time>
      </trkpt>
      <trkpt lat="48.68234" lon="2.61057">
        <ele>140</ele>
        <time>2014-09-09T07:12:15.773Z</time>
      </trkpt>
      <trkpt lat="48.68232" lon="2.61057">
        <ele>140</ele>
        <time>2014-09-09T07:12:16.783Z</time>
      </trkpt>
      <trkpt lat="48.68224" lon="2.61059">
        <ele>139</ele>
        <time>2014-09-09T07:12:23.783Z</time>
      </trkpt>
      <trkpt lat="48.68222" lon="2.61059">
        <ele>139</ele>
        <time>2014-09-09T07:12:24.787Z</time>
      </trkpt>
      <trkpt lat="48.68215" lon="2.6106">
        <ele>139</ele>
        <time>2014-09-09T07:12:30.741Z</time>
      </trkpt>
      <trkpt lat="48.68213" lon="2.61061">
        <ele>139</ele>
        <time>2014-09-09T07:12:31.784Z</time>
      </trkpt>
      <trkpt lat="48.68204" lon="2.61061">
        <ele>140</ele>
        <time>2014-09-09T07:12:39.781Z</time>
      </trkpt>
      <trkpt lat="48.68203" lon="2.61061">
        <ele>140</ele>
        <time>2014-09-09T07:12:40.830Z</time>
      </trkpt>
      <trkpt lat="48.68195" lon="2.61062">
        <ele>140</ele>
        <time>2014-09-09T07:12:46.774Z</time>
      </trkpt>
      <trkpt lat="48.68194" lon="2.61063">
        <ele>140</ele>
        <time>2014-09-09T07:12:47.743Z</time>
      </trkpt>
      <trkpt lat="48.68185" lon="2.61065">
        <ele>138</ele>
        <time>2014-09-09T07:12:54.781Z</time>
      </trkpt>
      <trkpt lat="48.68184" lon="2.61065">
        <ele>138</ele>
        <time>2014-09-09T07:12:55.755Z</time>
      </trkpt>
      <trkpt lat="48.68175" lon="2.61068">
        <ele>138</ele>
        <time>2014-09-09T07:13:02.736Z</time>
      </trkpt>
      <trkpt lat="48.68174" lon="2.61068">
        <ele>136</ele>
        <time>2014-09-09T07:13:03.775Z</time>
      </trkpt>
      <trkpt lat="48.68166" lon="2.61071">
        <ele>137</ele>
        <time>2014-09-09T07:13:10.736Z</time>
      </trkpt>
      <trkpt lat="48.68165" lon="2.61071">
        <ele>137</ele>
        <time>2014-09-09T07:13:11.742Z</time>
      </trkpt>
      <trkpt lat="48.68156" lon="2.61072">
        <ele>136</ele>
        <time>2014-09-09T07:13:17.762Z</time>
      </trkpt>
      <trkpt lat="48.68155" lon="2.61072">
        <ele>136</ele>
        <time>2014-09-09T07:13:18.743Z</time>
      </trkpt>
      <trkpt lat="48.68147" lon="2.61073">
        <ele>134</ele>
        <time>2014-09-09T07:13:25.768Z</time>
      </trkpt>
      <trkpt lat="48.68145" lon="2.61073">
        <ele>134</ele>
        <time>2014-09-09T07:13:26.773Z</time>
      </trkpt>
      <trkpt lat="48.68137" lon="2.61075">
        <ele>133</ele>
        <time>2014-09-09T07:13:33.794Z</time>
      </trkpt>
      <trkpt lat="48.68136" lon="2.61076">
        <ele>133</ele>
        <time>2014-09-09T07:13:34.785Z</time>
      </trkpt>
      <trkpt lat="48.68127" lon="2.61077">
        <ele>134</ele>
        <time>2014-09-09T07:13:41.769Z</time>
      </trkpt>
      <trkpt lat="48.68126" lon="2.61077">
        <ele>134</ele>
        <time>2014-09-09T07:13:42.775Z</time>
      </trkpt>
      <trkpt lat="48.68118" lon="2.61078">
        <ele>134</ele>
        <time>2014-09-09T07:13:48.776Z</time>
      </trkpt>
      <trkpt lat="48.68117" lon="2.61078">
        <ele>134</ele>
        <time>2014-09-09T07:13:49.788Z</time>
      </trkpt>
      <trkpt lat="48.68109" lon="2.6108">
        <ele>134</ele>
        <time>2014-09-09T07:13:55.783Z</time>
      </trkpt>
      <trkpt lat="48.68107" lon="2.6108">
        <ele>134</ele>
        <time>2014-09-09T07:13:56.781Z</time>
      </trkpt>
      <trkpt lat="48.68099" lon="2.61082">
        <ele>135</ele>
        <time>2014-09-09T07:14:02.738Z</time>
      </trkpt>
      <trkpt lat="48.68098" lon="2.61082">
        <ele>135</ele>
        <time>2014-09-09T07:14:03.778Z</time>
      </trkpt>
      <trkpt lat="48.6809" lon="2.61084">
        <ele>136</ele>
        <time>2014-09-09T07:14:09.735Z</time>
      </trkpt>
      <trkpt lat="48.68088" lon="2.61084">
        <ele>137</ele>
        <time>2014-09-09T07:14:10.733Z</time>
      </trkpt>
      <trkpt lat="48.6808" lon="2.61085">
        <ele>138</ele>
        <time>2014-09-09T07:14:16.748Z</time>
      </trkpt>
      <trkpt lat="48.68079" lon="2.61085">
        <ele>138</ele>
        <time>2014-09-09T07:14:17.731Z</time>
      </trkpt>
      <trkpt lat="48.6807" lon="2.61087">
        <ele>137</ele>
        <time>2014-09-09T07:14:24.772Z</time>
      </trkpt>
      <trkpt lat="48.68069" lon="2.61088">
        <ele>138</ele>
        <time>2014-09-09T07:14:25.784Z</time>
      </trkpt>
      <trkpt lat="48.68061" lon="2.61091">
        <ele>138</ele>
        <time>2014-09-09T07:14:32.780Z</time>
      </trkpt>
      <trkpt lat="48.68059" lon="2.61092">
        <ele>138</ele>
        <time>2014-09-09T07:14:33.773Z</time>
      </trkpt>
      <trkpt lat="48.68051" lon="2.61097">
        <ele>136</ele>
        <time>2014-09-09T07:14:40.744Z</time>
      </trkpt>
      <trkpt lat="48.6805" lon="2.61097">
        <ele>137</ele>
        <time>2014-09-09T07:14:41.732Z</time>
      </trkpt>
      <trkpt lat="48.68042" lon="2.61102">
        <ele>137</ele>
        <time>2014-09-09T07:14:48.784Z</time>
      </trkpt>
      <trkpt lat="48.68041" lon="2.61102">
        <ele>137</ele>
        <time>2014-09-09T07:14:49.796Z</time>
      </trkpt>
      <trkpt lat="48.68032" lon="2.61106">
        <ele>137</ele>
        <time>2014-09-09T07:14:56.736Z</time>
      </trkpt>
      <trkpt lat="48.68031" lon="2.61106">
        <ele>137</ele>
        <time>2014-09-09T07:14:57.733Z</time>
      </trkpt>
      <trkpt lat="48.68022" lon="2.6111">
        <ele>137</ele>
        <time>2014-09-09T07:15:04.784Z</time>
      </trkpt>
      <trkpt lat="48.68021" lon="2.61111">
        <ele>137</ele>
        <time>2014-09-09T07:15:05.785Z</time>
      </trkpt>
      <trkpt lat="48.68012" lon="2.61114">
        <ele>136</ele>
        <time>2014-09-09T07:15:12.741Z</time>
      </trkpt>
      <trkpt lat="48.68011" lon="2.61115">
        <ele>136</ele>
        <time>2014-09-09T07:15:13.781Z</time>
      </trkpt>
      <trkpt lat="48.68004" lon="2.61119">
        <ele>135</ele>
        <time>2014-09-09T07:15:19.784Z</time>
      </trkpt>
      <trkpt lat="48.68002" lon="2.61119">
        <ele>135</ele>
        <time>2014-09-09T07:15:20.751Z</time>
      </trkpt>
      <trkpt lat="48.67995" lon="2.61123">
        <ele>135</ele>
        <time>2014-09-09T07:15:26.772Z</time>
      </trkpt>
      <trkpt lat="48.67994" lon="2.61124">
        <ele>135</ele>
        <time>2014-09-09T07:15:27.735Z</time>
      </trkpt>
      <trkpt lat="48.67986" lon="2.61128">
        <ele>136</ele>
        <time>2014-09-09T07:15:33.773Z</time>
      </trkpt>
      <trkpt lat="48.67985" lon="2.61129">
        <ele>136</ele>
        <time>2014-09-09T07:15:34.782Z</time>
      </trkpt>
      <trkpt lat="48.67978" lon="2.61134">
        <ele>135</ele>
        <time>2014-09-09T07:15:40.773Z</time>
      </trkpt>
      <trkpt lat="48.67977" lon="2.61135">
        <ele>135</ele>
        <time>2014-09-09T07:15:41.771Z</time>
      </trkpt>
      <trkpt lat="48.67969" lon="2.6114">
        <ele>135</ele>
        <time>2014-09-09T07:15:48.770Z</time>
      </trkpt>
      <trkpt lat="48.67968" lon="2.6114">
        <ele>136</ele>
        <time>2014-09-09T07:15:49.771Z</time>
      </trkpt>
      <trkpt lat="48.6796" lon="2.61145">
        <ele>134</ele>
        <time>2014-09-09T07:15:55.753Z</time>
      </trkpt>
      <trkpt lat="48.67959" lon="2.61146">
        <ele>133</ele>
        <time>2014-09-09T07:15:56.777Z</time>
      </trkpt>
      <trkpt lat="48.67952" lon="2.61153">
        <ele>133</ele>
        <time>2014-09-09T07:16:02.770Z</time>
      </trkpt>
      <trkpt lat="48.67952" lon="2.61154">
        <ele>133</ele>
        <time>2014-09-09T07:16:03.767Z</time>
      </trkpt>
      <trkpt lat="48.67945" lon="2.61159">
        <ele>135</ele>
        <time>2014-09-09T07:16:18.735Z</time>
      </trkpt>
      <trkpt lat="48.67943" lon="2.6116">
        <ele>135</ele>
        <time>2014-09-09T07:16:19.863Z</time>
      </trkpt>
      <trkpt lat="48.67936" lon="2.61166">
        <ele>136</ele>
        <time>2014-09-09T07:16:24.767Z</time>
      </trkpt>
      <trkpt lat="48.67935" lon="2.61168">
        <ele>138</ele>
        <time>2014-09-09T07:16:25.765Z</time>
      </trkpt>
      <trkpt lat="48.67928" lon="2.61171">
        <ele>136</ele>
        <time>2014-09-09T07:16:30.768Z</time>
      </trkpt>
      <trkpt lat="48.67926" lon="2.61172">
        <ele>137</ele>
        <time>2014-09-09T07:16:31.786Z</time>
      </trkpt>
      <trkpt lat="48.67918" lon="2.61178">
        <ele>137</ele>
        <time>2014-09-09T07:16:37.788Z</time>
      </trkpt>
      <trkpt lat="48.67917" lon="2.61179">
        <ele>136</ele>
        <time>2014-09-09T07:16:38.789Z</time>
      </trkpt>
      <trkpt lat="48.6791" lon="2.61186">
        <ele>137</ele>
        <time>2014-09-09T07:16:44.737Z</time>
      </trkpt>
      <trkpt lat="48.67908" lon="2.61188">
        <ele>138</ele>
        <time>2014-09-09T07:16:45.778Z</time>
      </trkpt>
      <trkpt lat="48.67901" lon="2.61193">
        <ele>138</ele>
        <time>2014-09-09T07:16:50.771Z</time>
      </trkpt>
      <trkpt lat="48.679" lon="2.61194">
        <ele>138</ele>
        <time>2014-09-09T07:16:51.739Z</time>
      </trkpt>
      <trkpt lat="48.67893" lon="2.61201">
        <ele>137</ele>
        <time>2014-09-09T07:16:58.748Z</time>
      </trkpt>
      <trkpt lat="48.67892" lon="2.61202">
        <ele>136</ele>
        <time>2014-09-09T07:16:59.774Z</time>
      </trkpt>
      <trkpt lat="48.67884" lon="2.61208">
        <ele>138</ele>
        <time>2014-09-09T07:17:06.768Z</time>
      </trkpt>
      <trkpt lat="48.67883" lon="2.61209">
        <ele>137</ele>
        <time>2014-09-09T07:17:07.769Z</time>
      </trkpt>
      <trkpt lat="48.67876" lon="2.61215">
        <ele>135</ele>
        <time>2014-09-09T07:17:14.771Z</time>
      </trkpt>
      <trkpt lat="48.67875" lon="2.61217">
        <ele>134</ele>
        <time>2014-09-09T07:17:15.775Z</time>
      </trkpt>
      <trkpt lat="48.67868" lon="2.61223">
        <ele>135</ele>
        <time>2014-09-09T07:17:21.789Z</time>
      </trkpt>
      <trkpt lat="48.67867" lon="2.61224">
        <ele>135</ele>
        <time>2014-09-09T07:17:22.768Z</time>
      </trkpt>
      <trkpt lat="48.67859" lon="2.6123">
        <ele>135</ele>
        <time>2014-09-09T07:17:28.836Z</time>
      </trkpt>
      <trkpt lat="48.67858" lon="2.61231">
        <ele>135</ele>
        <time>2014-09-09T07:17:29.791Z</time>
      </trkpt>
      <trkpt lat="48.67852" lon="2.61238">
        <ele>135</ele>
        <time>2014-09-09T07:17:35.788Z</time>
      </trkpt>
      <trkpt lat="48.67851" lon="2.61239">
        <ele>136</ele>
        <time>2014-09-09T07:17:36.797Z</time>
      </trkpt>
      <trkpt lat="48.67844" lon="2.61248">
        <ele>136</ele>
        <time>2014-09-09T07:17:43.785Z</time>
      </trkpt>
      <trkpt lat="48.67843" lon="2.61249">
        <ele>136</ele>
        <time>2014-09-09T07:17:44.741Z</time>
      </trkpt>
      <trkpt lat="48.67836" lon="2.61255">
        <ele>136</ele>
        <time>2014-09-09T07:17:50.817Z</time>
      </trkpt>
      <trkpt lat="48.67835" lon="2.61257">
        <ele>136</ele>
        <time>2014-09-09T07:17:51.758Z</time>
      </trkpt>
      <trkpt lat="48.67829" lon="2.61264">
        <ele>136</ele>
        <time>2014-09-09T07:17:57.783Z</time>
      </trkpt>
      <trkpt lat="48.67828" lon="2.61265">
        <ele>136</ele>
        <time>2014-09-09T07:17:58.790Z</time>
      </trkpt>
      <trkpt lat="48.6782" lon="2.6127">
        <ele>132</ele>
        <time>2014-09-09T07:18:05.787Z</time>
      </trkpt>
      <trkpt lat="48.67819" lon="2.61271">
        <ele>132</ele>
        <time>2014-09-09T07:18:06.818Z</time>
      </trkpt>
      <trkpt lat="48.67812" lon="2.61277">
        <ele>133</ele>
        <time>2014-09-09T07:18:13.737Z</time>
      </trkpt>
      <trkpt lat="48.67811" lon="2.61278">
        <ele>132</ele>
        <time>2014-09-09T07:18:14.737Z</time>
      </trkpt>
      <trkpt lat="48.67806" lon="2.61289">
        <ele>134</ele>
        <time>2014-09-09T07:18:21.774Z</time>
      </trkpt>
      <trkpt lat="48.67805" lon="2.61291">
        <ele>134</ele>
        <time>2014-09-09T07:18:22.734Z</time>
      </trkpt>
      <trkpt lat="48.67798" lon="2.61299">
        <ele>134</ele>
        <time>2014-09-09T07:18:29.735Z</time>
      </trkpt>
      <trkpt lat="48.67797" lon="2.613">
        <ele>134</ele>
        <time>2014-09-09T07:18:30.770Z</time>
      </trkpt>
      <trkpt lat="48.67791" lon="2.61307">
        <ele>135</ele>
        <time>2014-09-09T07:18:36.792Z</time>
      </trkpt>
      <trkpt lat="48.6779" lon="2.61308">
        <ele>135</ele>
        <time>2014-09-09T07:18:37.775Z</time>
      </trkpt>
      <trkpt lat="48.67783" lon="2.61317">
        <ele>135</ele>
        <time>2014-09-09T07:18:44.771Z</time>
      </trkpt>
      <trkpt lat="48.67781" lon="2.61318">
        <ele>135</ele>
        <time>2014-09-09T07:18:45.780Z</time>
      </trkpt>
      <trkpt lat="48.67775" lon="2.61327">
        <ele>134</ele>
        <time>2014-09-09T07:18:52.770Z</time>
      </trkpt>
      <trkpt lat="48.67774" lon="2.61328">
        <ele>134</ele>
        <time>2014-09-09T07:18:53.768Z</time>
      </trkpt>
      <trkpt lat="48.67768" lon="2.61335">
        <ele>132</ele>
        <time>2014-09-09T07:18:59.766Z</time>
      </trkpt>
      <trkpt lat="48.67767" lon="2.61336">
        <ele>132</ele>
        <time>2014-09-09T07:19:00.741Z</time>
      </trkpt>
      <trkpt lat="48.6776" lon="2.61342">
        <ele>130</ele>
        <time>2014-09-09T07:19:06.805Z</time>
      </trkpt>
      <trkpt lat="48.67758" lon="2.61343">
        <ele>129</ele>
        <time>2014-09-09T07:19:07.787Z</time>
      </trkpt>
      <trkpt lat="48.67751" lon="2.61347">
        <ele>129</ele>
        <time>2014-09-09T07:19:13.771Z</time>
      </trkpt>
      <trkpt lat="48.6775" lon="2.61348">
        <ele>129</ele>
        <time>2014-09-09T07:19:14.820Z</time>
      </trkpt>
      <trkpt lat="48.67742" lon="2.61353">
        <ele>129</ele>
        <time>2014-09-09T07:19:20.773Z</time>
      </trkpt>
      <trkpt lat="48.67741" lon="2.61354">
        <ele>129</ele>
        <time>2014-09-09T07:19:21.785Z</time>
      </trkpt>
      <trkpt lat="48.67734" lon="2.6136">
        <ele>131</ele>
        <time>2014-09-09T07:19:27.782Z</time>
      </trkpt>
      <trkpt lat="48.67733" lon="2.61361">
        <ele>133</ele>
        <time>2014-09-09T07:19:28.781Z</time>
      </trkpt>
      <trkpt lat="48.67725" lon="2.61367">
        <ele>134</ele>
        <time>2014-09-09T07:19:35.771Z</time>
      </trkpt>
      <trkpt lat="48.67724" lon="2.61369">
        <ele>134</ele>
        <time>2014-09-09T07:19:36.775Z</time>
      </trkpt>
      <trkpt lat="48.67717" lon="2.61375">
        <ele>131</ele>
        <time>2014-09-09T07:19:42.748Z</time>
      </trkpt>
      <trkpt lat="48.67716" lon="2.61376">
        <ele>131</ele>
        <time>2014-09-09T07:19:43.751Z</time>
      </trkpt>
      <trkpt lat="48.67708" lon="2.61381">
        <ele>131</ele>
        <time>2014-09-09T07:19:49.738Z</time>
      </trkpt>
      <trkpt lat="48.67707" lon="2.61382">
        <ele>132</ele>
        <time>2014-09-09T07:19:50.779Z</time>
      </trkpt>
      <trkpt lat="48.677" lon="2.61388">
        <ele>131</ele>
        <time>2014-09-09T07:19:56.768Z</time>
      </trkpt>
      <trkpt lat="48.67698" lon="2.61388">
        <ele>132</ele>
        <time>2014-09-09T07:19:57.732Z</time>
      </trkpt>
      <trkpt lat="48.67691" lon="2.61394">
        <ele>132</ele>
        <time>2014-09-09T07:20:03.738Z</time>
      </trkpt>
      <trkpt lat="48.67689" lon="2.61395">
        <ele>133</ele>
        <time>2014-09-09T07:20:04.791Z</time>
      </trkpt>
      <trkpt lat="48.67682" lon="2.614">
        <ele>131</ele>
        <time>2014-09-09T07:20:10.737Z</time>
      </trkpt>
      <trkpt lat="48.67681" lon="2.61401">
        <ele>132</ele>
        <time>2014-09-09T07:20:11.777Z</time>
      </trkpt>
      <trkpt lat="48.67673" lon="2.61406">
        <ele>129</ele>
        <time>2014-09-09T07:20:18.764Z</time>
      </trkpt>
      <trkpt lat="48.67672" lon="2.61408">
        <ele>128</ele>
        <time>2014-09-09T07:20:19.782Z</time>
      </trkpt>
      <trkpt lat="48.67671" lon="2.6142">
        <ele>126</ele>
        <time>2014-09-09T07:20:25.783Z</time>
      </trkpt>
      <trkpt lat="48.67671" lon="2.61422">
        <ele>125</ele>
        <time>2014-09-09T07:20:26.779Z</time>
      </trkpt>
      <trkpt lat="48.67664" lon="2.61415">
        <ele>127</ele>
        <time>2014-09-09T07:21:58.775Z</time>
      </trkpt>
      <trkpt lat="48.67663" lon="2.61415">
        <ele>127</ele>
        <time>2014-09-09T07:21:59.780Z</time>
      </trkpt>
      <trkpt lat="48.67655" lon="2.6142">
        <ele>127</ele>
        <time>2014-09-09T07:22:07.770Z</time>
      </trkpt>
      <trkpt lat="48.67654" lon="2.6142">
        <ele>126</ele>
        <time>2014-09-09T07:22:08.754Z</time>
      </trkpt>
      <trkpt lat="48.67646" lon="2.61424">
        <ele>126</ele>
        <time>2014-09-09T07:22:15.782Z</time>
      </trkpt>
      <trkpt lat="48.67645" lon="2.61424">
        <ele>127</ele>
        <time>2014-09-09T07:22:16.768Z</time>
      </trkpt>
      <trkpt lat="48.67637" lon="2.61429">
        <ele>129</ele>
        <time>2014-09-09T07:22:24.739Z</time>
      </trkpt>
      <trkpt lat="48.67636" lon="2.6143">
        <ele>128</ele>
        <time>2014-09-09T07:22:25.792Z</time>
      </trkpt>
      <trkpt lat="48.67627" lon="2.61434">
        <ele>124</ele>
        <time>2014-09-09T07:22:33.786Z</time>
      </trkpt>
      <trkpt lat="48.67626" lon="2.61434">
        <ele>123</ele>
        <time>2014-09-09T07:22:34.770Z</time>
      </trkpt>
      <trkpt lat="48.67619" lon="2.61439">
        <ele>122</ele>
        <time>2014-09-09T07:22:41.785Z</time>
      </trkpt>
      <trkpt lat="48.67618" lon="2.6144">
        <ele>122</ele>
        <time>2014-09-09T07:22:42.741Z</time>
      </trkpt>
      <trkpt lat="48.6761" lon="2.61444">
        <ele>123</ele>
        <time>2014-09-09T07:22:50.782Z</time>
      </trkpt>
      <trkpt lat="48.67609" lon="2.61445">
        <ele>123</ele>
        <time>2014-09-09T07:22:51.784Z</time>
      </trkpt>
      <trkpt lat="48.67601" lon="2.61451">
        <ele>124</ele>
        <time>2014-09-09T07:22:59.781Z</time>
      </trkpt>
      <trkpt lat="48.676" lon="2.61451">
        <ele>123</ele>
        <time>2014-09-09T07:23:00.744Z</time>
      </trkpt>
      <trkpt lat="48.67593" lon="2.61455">
        <ele>121</ele>
        <time>2014-09-09T07:23:08.785Z</time>
      </trkpt>
      <trkpt lat="48.67592" lon="2.61456">
        <ele>120</ele>
        <time>2014-09-09T07:23:09.823Z</time>
      </trkpt>
      <trkpt lat="48.67584" lon="2.61461">
        <ele>121</ele>
        <time>2014-09-09T07:23:17.791Z</time>
      </trkpt>
      <trkpt lat="48.67583" lon="2.61461">
        <ele>120</ele>
        <time>2014-09-09T07:23:18.785Z</time>
      </trkpt>
      <trkpt lat="48.67575" lon="2.61464">
        <ele>120</ele>
        <time>2014-09-09T07:23:25.840Z</time>
      </trkpt>
      <trkpt lat="48.67574" lon="2.61465">
        <ele>120</ele>
        <time>2014-09-09T07:23:26.741Z</time>
      </trkpt>
      <trkpt lat="48.67567" lon="2.6147">
        <ele>116</ele>
        <time>2014-09-09T07:23:34.774Z</time>
      </trkpt>
      <trkpt lat="48.67566" lon="2.6147">
        <ele>117</ele>
        <time>2014-09-09T07:23:35.783Z</time>
      </trkpt>
      <trkpt lat="48.67558" lon="2.61474">
        <ele>116</ele>
        <time>2014-09-09T07:23:43.747Z</time>
      </trkpt>
      <trkpt lat="48.67557" lon="2.61475">
        <ele>116</ele>
        <time>2014-09-09T07:23:44.781Z</time>
      </trkpt>
      <trkpt lat="48.67549" lon="2.6148">
        <ele>116</ele>
        <time>2014-09-09T07:23:53.780Z</time>
      </trkpt>
      <trkpt lat="48.67548" lon="2.6148">
        <ele>117</ele>
        <time>2014-09-09T07:23:54.740Z</time>
      </trkpt>
      <trkpt lat="48.6754" lon="2.61483">
        <ele>118</ele>
        <time>2014-09-09T07:24:00.797Z</time>
      </trkpt>
      <trkpt lat="48.67539" lon="2.61483">
        <ele>119</ele>
        <time>2014-09-09T07:24:01.790Z</time>
      </trkpt>
      <trkpt lat="48.6753" lon="2.61488">
        <ele>119</ele>
        <time>2014-09-09T07:24:08.786Z</time>
      </trkpt>
      <trkpt lat="48.67529" lon="2.61489">
        <ele>119</ele>
        <time>2014-09-09T07:24:09.779Z</time>
      </trkpt>
      <trkpt lat="48.67521" lon="2.61492">
        <ele>119</ele>
        <time>2014-09-09T07:24:16.782Z</time>
      </trkpt>
      <trkpt lat="48.6752" lon="2.61492">
        <ele>119</ele>
        <time>2014-09-09T07:24:17.779Z</time>
      </trkpt>
      <trkpt lat="48.67512" lon="2.61495">
        <ele>119</ele>
        <time>2014-09-09T07:24:25.784Z</time>
      </trkpt>
      <trkpt lat="48.67511" lon="2.61495">
        <ele>118</ele>
        <time>2014-09-09T07:24:26.777Z</time>
      </trkpt>
      <trkpt lat="48.67503" lon="2.61499">
        <ele>118</ele>
        <time>2014-09-09T07:24:34.738Z</time>
      </trkpt>
      <trkpt lat="48.67502" lon="2.615">
        <ele>117</ele>
        <time>2014-09-09T07:24:35.765Z</time>
      </trkpt>
      <trkpt lat="48.67494" lon="2.61503">
        <ele>116</ele>
        <time>2014-09-09T07:24:43.783Z</time>
      </trkpt>
      <trkpt lat="48.67493" lon="2.61503">
        <ele>116</ele>
        <time>2014-09-09T07:24:44.771Z</time>
      </trkpt>
      <trkpt lat="48.67485" lon="2.61505">
        <ele>114</ele>
        <time>2014-09-09T07:24:51.781Z</time>
      </trkpt>
      <trkpt lat="48.67484" lon="2.61505">
        <ele>114</ele>
        <time>2014-09-09T07:24:52.739Z</time>
      </trkpt>
      <trkpt lat="48.67475" lon="2.61508">
        <ele>114</ele>
        <time>2014-09-09T07:25:00.766Z</time>
      </trkpt>
      <trkpt lat="48.67474" lon="2.61508">
        <ele>114</ele>
        <time>2014-09-09T07:25:01.771Z</time>
      </trkpt>
      <trkpt lat="48.67467" lon="2.61516">
        <ele>112</ele>
        <time>2014-09-09T07:25:18.792Z</time>
      </trkpt>
      <trkpt lat="48.67466" lon="2.61516">
        <ele>113</ele>
        <time>2014-09-09T07:25:19.781Z</time>
      </trkpt>
      <trkpt lat="48.67457" lon="2.61518">
        <ele>112</ele>
        <time>2014-09-09T07:25:27.770Z</time>
      </trkpt>
      <trkpt lat="48.67456" lon="2.61519">
        <ele>112</ele>
        <time>2014-09-09T07:25:28.765Z</time>
      </trkpt>
      <trkpt lat="48.67448" lon="2.61524">
        <ele>113</ele>
        <time>2014-09-09T07:25:36.747Z</time>
      </trkpt>
      <trkpt lat="48.67447" lon="2.61525">
        <ele>115</ele>
        <time>2014-09-09T07:25:37.766Z</time>
      </trkpt>
      <trkpt lat="48.6744" lon="2.61529">
        <ele>113</ele>
        <time>2014-09-09T07:25:44.733Z</time>
      </trkpt>
      <trkpt lat="48.67438" lon="2.6153">
        <ele>114</ele>
        <time>2014-09-09T07:25:45.739Z</time>
      </trkpt>
      <trkpt lat="48.67431" lon="2.61534">
        <ele>109</ele>
        <time>2014-09-09T07:25:51.739Z</time>
      </trkpt>
      <trkpt lat="48.6743" lon="2.61535">
        <ele>110</ele>
        <time>2014-09-09T07:25:52.770Z</time>
      </trkpt>
      <trkpt lat="48.67422" lon="2.61542">
        <ele>109</ele>
        <time>2014-09-09T07:25:59.766Z</time>
      </trkpt>
      <trkpt lat="48.67422" lon="2.61543">
        <ele>110</ele>
        <time>2014-09-09T07:26:00.737Z</time>
      </trkpt>
      <trkpt lat="48.67414" lon="2.61548">
        <ele>114</ele>
        <time>2014-09-09T07:26:08.772Z</time>
      </trkpt>
      <trkpt lat="48.67413" lon="2.61549">
        <ele>114</ele>
        <time>2014-09-09T07:26:09.768Z</time>
      </trkpt>
      <trkpt lat="48.67405" lon="2.61555">
        <ele>119</ele>
        <time>2014-09-09T07:26:17.772Z</time>
      </trkpt>
      <trkpt lat="48.67404" lon="2.61556">
        <ele>119</ele>
        <time>2014-09-09T07:26:18.774Z</time>
      </trkpt>
      <trkpt lat="48.67397" lon="2.61563">
        <ele>117</ele>
        <time>2014-09-09T07:26:26.771Z</time>
      </trkpt>
      <trkpt lat="48.67396" lon="2.61563">
        <ele>116</ele>
        <time>2014-09-09T07:26:27.772Z</time>
      </trkpt>
      <trkpt lat="48.67389" lon="2.61567">
        <ele>115</ele>
        <time>2014-09-09T07:26:34.734Z</time>
      </trkpt>
      <trkpt lat="48.67388" lon="2.61568">
        <ele>115</ele>
        <time>2014-09-09T07:26:35.789Z</time>
      </trkpt>
      <trkpt lat="48.67379" lon="2.61571">
        <ele>114</ele>
        <time>2014-09-09T07:26:43.809Z</time>
      </trkpt>
      <trkpt lat="48.67379" lon="2.61572">
        <ele>114</ele>
        <time>2014-09-09T07:26:44.772Z</time>
      </trkpt>
      <trkpt lat="48.6737" lon="2.61573">
        <ele>114</ele>
        <time>2014-09-09T07:27:40.784Z</time>
      </trkpt>
      <trkpt lat="48.67369" lon="2.61573">
        <ele>114</ele>
        <time>2014-09-09T07:27:41.785Z</time>
      </trkpt>
      <trkpt lat="48.67361" lon="2.61567">
        <ele>110</ele>
        <time>2014-09-09T07:27:52.833Z</time>
      </trkpt>
      <trkpt lat="48.6736" lon="2.61566">
        <ele>109</ele>
        <time>2014-09-09T07:27:53.784Z</time>
      </trkpt>
      <trkpt lat="48.67353" lon="2.61559">
        <ele>108</ele>
        <time>2014-09-09T07:28:03.779Z</time>
      </trkpt>
      <trkpt lat="48.67352" lon="2.61559">
        <ele>111</ele>
        <time>2014-09-09T07:28:04.781Z</time>
      </trkpt>
      <trkpt lat="48.67343" lon="2.61561">
        <ele>107</ele>
        <time>2014-09-09T07:28:13.780Z</time>
      </trkpt>
      <trkpt lat="48.67342" lon="2.61561">
        <ele>106</ele>
        <time>2014-09-09T07:28:14.744Z</time>
      </trkpt>
      <trkpt lat="48.67337" lon="2.61551">
        <ele>109</ele>
        <time>2014-09-09T07:28:24.782Z</time>
      </trkpt>
      <trkpt lat="48.67337" lon="2.61549">
        <ele>108</ele>
        <time>2014-09-09T07:28:25.780Z</time>
      </trkpt>
      <trkpt lat="48.67331" lon="2.6154">
        <ele>112</ele>
        <time>2014-09-09T07:28:36.770Z</time>
      </trkpt>
      <trkpt lat="48.6733" lon="2.61539">
        <ele>112</ele>
        <time>2014-09-09T07:28:37.763Z</time>
      </trkpt>
      <trkpt lat="48.67322" lon="2.61538">
        <ele>111</ele>
        <time>2014-09-09T07:28:45.780Z</time>
      </trkpt>
      <trkpt lat="48.67321" lon="2.61537">
        <ele>111</ele>
        <time>2014-09-09T07:28:46.775Z</time>
      </trkpt>
      <trkpt lat="48.67313" lon="2.61529">
        <ele>112</ele>
        <time>2014-09-09T07:28:54.777Z</time>
      </trkpt>
      <trkpt lat="48.67313" lon="2.61529">
        <ele>112</ele>
        <time>2014-09-09T07:28:55.733Z</time>
      </trkpt>
      <trkpt lat="48.67307" lon="2.61518">
        <ele>117</ele>
        <time>2014-09-09T07:29:35.778Z</time>
      </trkpt>
      <trkpt lat="48.67307" lon="2.61518">
        <ele>116</ele>
        <time>2014-09-09T07:29:36.788Z</time>
      </trkpt>
      <trkpt lat="48.67299" lon="2.61511">
        <ele>110</ele>
        <time>2014-09-09T07:30:16.752Z</time>
      </trkpt>
      <trkpt lat="48.67298" lon="2.61511">
        <ele>109</ele>
        <time>2014-09-09T07:30:17.778Z</time>
      </trkpt>
      <trkpt lat="48.67297" lon="2.61498">
        <ele>111</ele>
        <time>2014-09-09T07:31:21.758Z</time>
      </trkpt>
      <trkpt lat="48.67297" lon="2.61497">
        <ele>112</ele>
        <time>2014-09-09T07:31:22.776Z</time>
      </trkpt>
      <trkpt lat="48.67295" lon="2.61485">
        <ele>113</ele>
        <time>2014-09-09T07:31:52.740Z</time>
      </trkpt>
      <trkpt lat="48.67295" lon="2.61483">
        <ele>113</ele>
        <time>2014-09-09T07:31:53.740Z</time>
      </trkpt>
      <trkpt lat="48.6729" lon="2.61473">
        <ele>114</ele>
        <time>2014-09-09T07:32:01.782Z</time>
      </trkpt>
      <trkpt lat="48.6729" lon="2.61472">
        <ele>114</ele>
        <time>2014-09-09T07:32:02.781Z</time>
      </trkpt>
      <trkpt lat="48.67285" lon="2.61461">
        <ele>113</ele>
        <time>2014-09-09T07:32:13.732Z</time>
      </trkpt>
      <trkpt lat="48.67285" lon="2.61459">
        <ele>115</ele>
        <time>2014-09-09T07:32:14.732Z</time>
      </trkpt>
      <trkpt lat="48.67279" lon="2.61449">
        <ele>110</ele>
        <time>2014-09-09T07:32:24.803Z</time>
      </trkpt>
      <trkpt lat="48.67278" lon="2.61448">
        <ele>110</ele>
        <time>2014-09-09T07:32:25.781Z</time>
      </trkpt>
      <trkpt lat="48.67272" lon="2.61441">
        <ele>112</ele>
        <time>2014-09-09T07:32:33.780Z</time>
      </trkpt>
      <trkpt lat="48.67271" lon="2.6144">
        <ele>113</ele>
        <time>2014-09-09T07:32:34.791Z</time>
      </trkpt>
      <trkpt lat="48.67264" lon="2.61433">
        <ele>116</ele>
        <time>2014-09-09T07:32:47.821Z</time>
      </trkpt>
      <trkpt lat="48.67263" lon="2.61433">
        <ele>116</ele>
        <time>2014-09-09T07:32:48.752Z</time>
      </trkpt>
      <trkpt lat="48.67254" lon="2.61432">
        <ele>114</ele>
        <time>2014-09-09T07:32:57.782Z</time>
      </trkpt>
      <trkpt lat="48.67254" lon="2.61432">
        <ele>113</ele>
        <time>2014-09-09T07:32:58.755Z</time>
      </trkpt>
      <trkpt lat="48.67245" lon="2.61435">
        <ele>118</ele>
        <time>2014-09-09T07:33:09.775Z</time>
      </trkpt>
      <trkpt lat="48.67244" lon="2.61436">
        <ele>119</ele>
        <time>2014-09-09T07:33:10.775Z</time>
      </trkpt>
      <trkpt lat="48.67236" lon="2.61439">
        <ele>122</ele>
        <time>2014-09-09T07:33:20.763Z</time>
      </trkpt>
      <trkpt lat="48.67235" lon="2.61439">
        <ele>122</ele>
        <time>2014-09-09T07:33:21.752Z</time>
      </trkpt>
      <trkpt lat="48.67229" lon="2.61446">
        <ele>122</ele>
        <time>2014-09-09T07:33:29.777Z</time>
      </trkpt>
      <trkpt lat="48.67228" lon="2.61447">
        <ele>121</ele>
        <time>2014-09-09T07:33:30.773Z</time>
      </trkpt>
      <trkpt lat="48.6722" lon="2.61453">
        <ele>122</ele>
        <time>2014-09-09T07:33:39.777Z</time>
      </trkpt>
      <trkpt lat="48.67219" lon="2.61453">
        <ele>122</ele>
        <time>2014-09-09T07:33:40.795Z</time>
      </trkpt>
      <trkpt lat="48.67211" lon="2.61452">
        <ele>121</ele>
        <time>2014-09-09T07:33:52.779Z</time>
      </trkpt>
      <trkpt lat="48.6721" lon="2.61453">
        <ele>121</ele>
        <time>2014-09-09T07:33:53.773Z</time>
      </trkpt>
      <trkpt lat="48.67203" lon="2.61456">
        <ele>124</ele>
        <time>2014-09-09T07:34:03.776Z</time>
      </trkpt>
      <trkpt lat="48.67201" lon="2.61456">
        <ele>126</ele>
        <time>2014-09-09T07:34:04.784Z</time>
      </trkpt>
      <trkpt lat="48.67192" lon="2.61459">
        <ele>121</ele>
        <time>2014-09-09T07:34:11.775Z</time>
      </trkpt>
      <trkpt lat="48.67192" lon="2.6146">
        <ele>122</ele>
        <time>2014-09-09T07:34:12.779Z</time>
      </trkpt>
      <trkpt lat="48.67187" lon="2.61471">
        <ele>119</ele>
        <time>2014-09-09T07:34:22.790Z</time>
      </trkpt>
      <trkpt lat="48.67187" lon="2.61472">
        <ele>119</ele>
        <time>2014-09-09T07:34:23.778Z</time>
      </trkpt>
      <trkpt lat="48.67183" lon="2.61482">
        <ele>120</ele>
        <time>2014-09-09T07:34:31.737Z</time>
      </trkpt>
      <trkpt lat="48.67182" lon="2.61484">
        <ele>121</ele>
        <time>2014-09-09T07:34:32.782Z</time>
      </trkpt>
      <trkpt lat="48.67176" lon="2.61493">
        <ele>122</ele>
        <time>2014-09-09T07:34:39.785Z</time>
      </trkpt>
      <trkpt lat="48.67176" lon="2.61495">
        <ele>125</ele>
        <time>2014-09-09T07:34:40.745Z</time>
      </trkpt>
      <trkpt lat="48.67173" lon="2.61507">
        <ele>129</ele>
        <time>2014-09-09T07:34:48.778Z</time>
      </trkpt>
      <trkpt lat="48.67172" lon="2.61508">
        <ele>129</ele>
        <time>2014-09-09T07:34:49.779Z</time>
      </trkpt>
      <trkpt lat="48.67166" lon="2.61517">
        <ele>127</ele>
        <time>2014-09-09T07:35:00.740Z</time>
      </trkpt>
      <trkpt lat="48.67165" lon="2.61518">
        <ele>128</ele>
        <time>2014-09-09T07:35:01.737Z</time>
      </trkpt>
      <trkpt lat="48.67159" lon="2.61527">
        <ele>131</ele>
        <time>2014-09-09T07:35:10.803Z</time>
      </trkpt>
      <trkpt lat="48.67158" lon="2.61528">
        <ele>130</ele>
        <time>2014-09-09T07:35:11.778Z</time>
      </trkpt>
      <trkpt lat="48.67155" lon="2.61539">
        <ele>128</ele>
        <time>2014-09-09T07:35:19.784Z</time>
      </trkpt>
      <trkpt lat="48.67154" lon="2.6154">
        <ele>128</ele>
        <time>2014-09-09T07:35:20.787Z</time>
      </trkpt>
      <trkpt lat="48.6715" lon="2.61552">
        <ele>131</ele>
        <time>2014-09-09T07:35:28.777Z</time>
      </trkpt>
      <trkpt lat="48.6715" lon="2.61553">
        <ele>131</ele>
        <time>2014-09-09T07:35:29.761Z</time>
      </trkpt>
      <trkpt lat="48.67145" lon="2.61563">
        <ele>129</ele>
        <time>2014-09-09T07:35:38.777Z</time>
      </trkpt>
      <trkpt lat="48.67145" lon="2.61564">
        <ele>131</ele>
        <time>2014-09-09T07:35:39.737Z</time>
      </trkpt>
      <trkpt lat="48.67137" lon="2.61572">
        <ele>133</ele>
        <time>2014-09-09T07:35:49.740Z</time>
      </trkpt>
      <trkpt lat="48.67137" lon="2.61573">
        <ele>134</ele>
        <time>2014-09-09T07:35:50.783Z</time>
      </trkpt>
      <trkpt lat="48.6713" lon="2.61582">
        <ele>131</ele>
        <time>2014-09-09T07:35:59.771Z</time>
      </trkpt>
      <trkpt lat="48.6713" lon="2.61584">
        <ele>131</ele>
        <time>2014-09-09T07:36:00.785Z</time>
      </trkpt>
      <trkpt lat="48.67125" lon="2.61595">
        <ele>130</ele>
        <time>2014-09-09T07:36:07.785Z</time>
      </trkpt>
      <trkpt lat="48.67123" lon="2.61596">
        <ele>130</ele>
        <time>2014-09-09T07:36:08.779Z</time>
      </trkpt>
      <trkpt lat="48.67118" lon="2.61606">
        <ele>132</ele>
        <time>2014-09-09T07:36:15.780Z</time>
      </trkpt>
      <trkpt lat="48.67117" lon="2.61607">
        <ele>132</ele>
        <time>2014-09-09T07:36:16.779Z</time>
      </trkpt>
      <trkpt lat="48.67112" lon="2.61617">
        <ele>133</ele>
        <time>2014-09-09T07:36:23.779Z</time>
      </trkpt>
      <trkpt lat="48.67111" lon="2.61618">
        <ele>131</ele>
        <time>2014-09-09T07:36:24.739Z</time>
      </trkpt>
      <trkpt lat="48.67105" lon="2.61628">
        <ele>132</ele>
        <time>2014-09-09T07:36:35.782Z</time>
      </trkpt>
      <trkpt lat="48.67105" lon="2.61628">
        <ele>131</ele>
        <time>2014-09-09T07:36:36.738Z</time>
      </trkpt>
      <trkpt lat="48.67099" lon="2.61638">
        <ele>130</ele>
        <time>2014-09-09T07:36:43.767Z</time>
      </trkpt>
      <trkpt lat="48.67098" lon="2.61639">
        <ele>131</ele>
        <time>2014-09-09T07:36:44.737Z</time>
      </trkpt>
      <trkpt lat="48.67093" lon="2.61649">
        <ele>130</ele>
        <time>2014-09-09T07:36:54.784Z</time>
      </trkpt>
      <trkpt lat="48.67093" lon="2.6165">
        <ele>129</ele>
        <time>2014-09-09T07:36:55.810Z</time>
      </trkpt>
      <trkpt lat="48.67088" lon="2.6166">
        <ele>132</ele>
        <time>2014-09-09T07:37:02.774Z</time>
      </trkpt>
      <trkpt lat="48.67087" lon="2.61661">
        <ele>132</ele>
        <time>2014-09-09T07:37:03.735Z</time>
      </trkpt>
      <trkpt lat="48.67082" lon="2.61671">
        <ele>132</ele>
        <time>2014-09-09T07:37:10.788Z</time>
      </trkpt>
      <trkpt lat="48.67082" lon="2.61672">
        <ele>132</ele>
        <time>2014-09-09T07:37:11.785Z</time>
      </trkpt>
      <trkpt lat="48.67076" lon="2.61683">
        <ele>133</ele>
        <time>2014-09-09T07:37:19.783Z</time>
      </trkpt>
      <trkpt lat="48.67075" lon="2.61684">
        <ele>132</ele>
        <time>2014-09-09T07:37:20.784Z</time>
      </trkpt>
      <trkpt lat="48.67069" lon="2.61693">
        <ele>134</ele>
        <time>2014-09-09T07:37:28.786Z</time>
      </trkpt>
      <trkpt lat="48.67069" lon="2.61694">
        <ele>134</ele>
        <time>2014-09-09T07:37:29.771Z</time>
      </trkpt>
      <trkpt lat="48.67064" lon="2.61705">
        <ele>136</ele>
        <time>2014-09-09T07:37:37.782Z</time>
      </trkpt>
      <trkpt lat="48.67063" lon="2.61706">
        <ele>137</ele>
        <time>2014-09-09T07:37:38.776Z</time>
      </trkpt>
      <trkpt lat="48.67058" lon="2.61716">
        <ele>135</ele>
        <time>2014-09-09T07:37:46.778Z</time>
      </trkpt>
      <trkpt lat="48.67057" lon="2.61717">
        <ele>135</ele>
        <time>2014-09-09T07:37:47.780Z</time>
      </trkpt>
      <trkpt lat="48.67052" lon="2.61727">
        <ele>135</ele>
        <time>2014-09-09T07:37:55.783Z</time>
      </trkpt>
      <trkpt lat="48.67051" lon="2.61729">
        <ele>136</ele>
        <time>2014-09-09T07:37:56.783Z</time>
      </trkpt>
      <trkpt lat="48.67046" lon="2.61738">
        <ele>135</ele>
        <time>2014-09-09T07:38:03.781Z</time>
      </trkpt>
      <trkpt lat="48.67045" lon="2.61739">
        <ele>135</ele>
        <time>2014-09-09T07:38:04.784Z</time>
      </trkpt>
      <trkpt lat="48.6704" lon="2.61751">
        <ele>135</ele>
        <time>2014-09-09T07:38:13.780Z</time>
      </trkpt>
      <trkpt lat="48.6704" lon="2.61752">
        <ele>135</ele>
        <time>2014-09-09T07:38:14.784Z</time>
      </trkpt>
      <trkpt lat="48.67037" lon="2.61764">
        <ele>135</ele>
        <time>2014-09-09T07:38:21.781Z</time>
      </trkpt>
      <trkpt lat="48.67036" lon="2.61766">
        <ele>134</ele>
        <time>2014-09-09T07:38:22.778Z</time>
      </trkpt>
      <trkpt lat="48.6703" lon="2.61773">
        <ele>134</ele>
        <time>2014-09-09T07:38:28.778Z</time>
      </trkpt>
      <trkpt lat="48.67029" lon="2.61774">
        <ele>134</ele>
        <time>2014-09-09T07:38:29.782Z</time>
      </trkpt>
      <trkpt lat="48.67023" lon="2.61782">
        <ele>135</ele>
        <time>2014-09-09T07:38:36.785Z</time>
      </trkpt>
      <trkpt lat="48.67022" lon="2.61783">
        <ele>135</ele>
        <time>2014-09-09T07:38:37.740Z</time>
      </trkpt>
      <trkpt lat="48.67014" lon="2.61788">
        <ele>135</ele>
        <time>2014-09-09T07:38:44.768Z</time>
      </trkpt>
      <trkpt lat="48.67013" lon="2.61789">
        <ele>135</ele>
        <time>2014-09-09T07:38:45.777Z</time>
      </trkpt>
      <trkpt lat="48.67005" lon="2.61792">
        <ele>137</ele>
        <time>2014-09-09T07:38:51.783Z</time>
      </trkpt>
      <trkpt lat="48.67004" lon="2.61793">
        <ele>137</ele>
        <time>2014-09-09T07:38:52.739Z</time>
      </trkpt>
      <trkpt lat="48.66996" lon="2.61797">
        <ele>136</ele>
        <time>2014-09-09T07:38:58.784Z</time>
      </trkpt>
      <trkpt lat="48.66995" lon="2.61798">
        <ele>136</ele>
        <time>2014-09-09T07:38:59.741Z</time>
      </trkpt>
      <trkpt lat="48.66987" lon="2.61803">
        <ele>137</ele>
        <time>2014-09-09T07:39:06.801Z</time>
      </trkpt>
      <trkpt lat="48.66986" lon="2.61803">
        <ele>137</ele>
        <time>2014-09-09T07:39:07.786Z</time>
      </trkpt>
      <trkpt lat="48.66978" lon="2.61809">
        <ele>140</ele>
        <time>2014-09-09T07:39:14.747Z</time>
      </trkpt>
      <trkpt lat="48.66977" lon="2.6181">
        <ele>139</ele>
        <time>2014-09-09T07:39:15.752Z</time>
      </trkpt>
      <trkpt lat="48.66969" lon="2.61812">
        <ele>135</ele>
        <time>2014-09-09T07:39:23.757Z</time>
      </trkpt>
      <trkpt lat="48.66968" lon="2.61812">
        <ele>134</ele>
        <time>2014-09-09T07:39:24.778Z</time>
      </trkpt>
      <trkpt lat="48.6696" lon="2.61811">
        <ele>132</ele>
        <time>2014-09-09T07:39:30.781Z</time>
      </trkpt>
      <trkpt lat="48.66959" lon="2.61811">
        <ele>132</ele>
        <time>2014-09-09T07:39:31.754Z</time>
      </trkpt>
      <trkpt lat="48.6695" lon="2.61811">
        <ele>131</ele>
        <time>2014-09-09T07:39:38.782Z</time>
      </trkpt>
      <trkpt lat="48.66948" lon="2.61811">
        <ele>131</ele>
        <time>2014-09-09T07:39:39.742Z</time>
      </trkpt>
      <trkpt lat="48.6694" lon="2.61812">
        <ele>134</ele>
        <time>2014-09-09T07:39:46.740Z</time>
      </trkpt>
      <trkpt lat="48.66938" lon="2.61812">
        <ele>133</ele>
        <time>2014-09-09T07:39:47.758Z</time>
      </trkpt>
      <trkpt lat="48.66931" lon="2.61808">
        <ele>134</ele>
        <time>2014-09-09T07:39:55.781Z</time>
      </trkpt>
      <trkpt lat="48.6693" lon="2.61807">
        <ele>135</ele>
        <time>2014-09-09T07:39:56.784Z</time>
      </trkpt>
      <trkpt lat="48.66921" lon="2.61808">
        <ele>139</ele>
        <time>2014-09-09T07:40:03.783Z</time>
      </trkpt>
      <trkpt lat="48.66919" lon="2.61808">
        <ele>140</ele>
        <time>2014-09-09T07:40:04.740Z</time>
      </trkpt>
      <trkpt lat="48.66911" lon="2.6181">
        <ele>140</ele>
        <time>2014-09-09T07:40:09.785Z</time>
      </trkpt>
      <trkpt lat="48.6691" lon="2.61811">
        <ele>141</ele>
        <time>2014-09-09T07:40:10.802Z</time>
      </trkpt>
      <trkpt lat="48.66901" lon="2.61812">
        <ele>137</ele>
        <time>2014-09-09T07:40:19.766Z</time>
      </trkpt>
      <trkpt lat="48.669" lon="2.61812">
        <ele>137</ele>
        <time>2014-09-09T07:40:20.785Z</time>
      </trkpt>
      <trkpt lat="48.66893" lon="2.61816">
        <ele>133</ele>
        <time>2014-09-09T07:40:28.780Z</time>
      </trkpt>
      <trkpt lat="48.66892" lon="2.61817">
        <ele>134</ele>
        <time>2014-09-09T07:40:29.784Z</time>
      </trkpt>
      <trkpt lat="48.66883" lon="2.61816">
        <ele>132</ele>
        <time>2014-09-09T07:40:39.786Z</time>
      </trkpt>
      <trkpt lat="48.66882" lon="2.61817">
        <ele>131</ele>
        <time>2014-09-09T07:40:40.802Z</time>
      </trkpt>
      <trkpt lat="48.66874" lon="2.6182">
        <ele>130</ele>
        <time>2014-09-09T07:40:47.737Z</time>
      </trkpt>
      <trkpt lat="48.66873" lon="2.6182">
        <ele>129</ele>
        <time>2014-09-09T07:40:48.743Z</time>
      </trkpt>
      <trkpt lat="48.66864" lon="2.6182">
        <ele>126</ele>
        <time>2014-09-09T07:40:56.732Z</time>
      </trkpt>
      <trkpt lat="48.66863" lon="2.6182">
        <ele>125</ele>
        <time>2014-09-09T07:40:57.772Z</time>
      </trkpt>
      <trkpt lat="48.66855" lon="2.61821">
        <ele>125</ele>
        <time>2014-09-09T07:41:06.328Z</time>
      </trkpt>
      <trkpt lat="48.66854" lon="2.61821">
        <ele>126</ele>
        <time>2014-09-09T07:41:06.757Z</time>
      </trkpt>
      <trkpt lat="48.66845" lon="2.61822">
        <ele>127</ele>
        <time>2014-09-09T07:41:13.777Z</time>
      </trkpt>
      <trkpt lat="48.66843" lon="2.61822">
        <ele>127</ele>
        <time>2014-09-09T07:41:14.776Z</time>
      </trkpt>
      <trkpt lat="48.66834" lon="2.61821">
        <ele>126</ele>
        <time>2014-09-09T07:41:22.776Z</time>
      </trkpt>
      <trkpt lat="48.66833" lon="2.61822">
        <ele>126</ele>
        <time>2014-09-09T07:41:23.740Z</time>
      </trkpt>
      <trkpt lat="48.66824" lon="2.61823">
        <ele>126</ele>
        <time>2014-09-09T07:41:30.765Z</time>
      </trkpt>
      <trkpt lat="48.66823" lon="2.61823">
        <ele>126</ele>
        <time>2014-09-09T07:41:31.778Z</time>
      </trkpt>
      <trkpt lat="48.66815" lon="2.61824">
        <ele>123</ele>
        <time>2014-09-09T07:41:37.733Z</time>
      </trkpt>
      <trkpt lat="48.66814" lon="2.61824">
        <ele>123</ele>
        <time>2014-09-09T07:41:38.773Z</time>
      </trkpt>
      <trkpt lat="48.66806" lon="2.61827">
        <ele>122</ele>
        <time>2014-09-09T07:41:45.752Z</time>
      </trkpt>
      <trkpt lat="48.66805" lon="2.61828">
        <ele>121</ele>
        <time>2014-09-09T07:41:46.787Z</time>
      </trkpt>
      <trkpt lat="48.66797" lon="2.61834">
        <ele>119</ele>
        <time>2014-09-09T07:41:54.778Z</time>
      </trkpt>
      <trkpt lat="48.66796" lon="2.61835">
        <ele>119</ele>
        <time>2014-09-09T07:41:55.734Z</time>
      </trkpt>
      <trkpt lat="48.66788" lon="2.61839">
        <ele>118</ele>
        <time>2014-09-09T07:42:02.782Z</time>
      </trkpt>
      <trkpt lat="48.66787" lon="2.6184">
        <ele>118</ele>
        <time>2014-09-09T07:42:03.783Z</time>
      </trkpt>
      <trkpt lat="48.6678" lon="2.61845">
        <ele>118</ele>
        <time>2014-09-09T07:42:09.773Z</time>
      </trkpt>
      <trkpt lat="48.66779" lon="2.61846">
        <ele>118</ele>
        <time>2014-09-09T07:42:10.739Z</time>
      </trkpt>
      <trkpt lat="48.66771" lon="2.61852">
        <ele>119</ele>
        <time>2014-09-09T07:42:17.737Z</time>
      </trkpt>
      <trkpt lat="48.66769" lon="2.61853">
        <ele>117</ele>
        <time>2014-09-09T07:42:18.736Z</time>
      </trkpt>
      <trkpt lat="48.66762" lon="2.61858">
        <ele>116</ele>
        <time>2014-09-09T07:42:25.773Z</time>
      </trkpt>
      <trkpt lat="48.66761" lon="2.61859">
        <ele>115</ele>
        <time>2014-09-09T07:42:26.778Z</time>
      </trkpt>
      <trkpt lat="48.66753" lon="2.61864">
        <ele>113</ele>
        <time>2014-09-09T07:42:33.745Z</time>
      </trkpt>
      <trkpt lat="48.66752" lon="2.61865">
        <ele>113</ele>
        <time>2014-09-09T07:42:34.778Z</time>
      </trkpt>
      <trkpt lat="48.66744" lon="2.6187">
        <ele>113</ele>
        <time>2014-09-09T07:42:41.740Z</time>
      </trkpt>
      <trkpt lat="48.66743" lon="2.6187">
        <ele>112</ele>
        <time>2014-09-09T07:42:42.767Z</time>
      </trkpt>
      <trkpt lat="48.66737" lon="2.6188">
        <ele>114</ele>
        <time>2014-09-09T07:43:00.783Z</time>
      </trkpt>
      <trkpt lat="48.66736" lon="2.6188">
        <ele>112</ele>
        <time>2014-09-09T07:43:01.762Z</time>
      </trkpt>
      <trkpt lat="48.66729" lon="2.61888">
        <ele>116</ele>
        <time>2014-09-09T07:43:07.776Z</time>
      </trkpt>
      <trkpt lat="48.66728" lon="2.6189">
        <ele>118</ele>
        <time>2014-09-09T07:43:08.773Z</time>
      </trkpt>
      <trkpt lat="48.66722" lon="2.61898">
        <ele>121</ele>
        <time>2014-09-09T07:43:13.743Z</time>
      </trkpt>
      <trkpt lat="48.66721" lon="2.619">
        <ele>121</ele>
        <time>2014-09-09T07:43:14.739Z</time>
      </trkpt>
      <trkpt lat="48.66715" lon="2.61908">
        <ele>122</ele>
        <time>2014-09-09T07:43:20.801Z</time>
      </trkpt>
      <trkpt lat="48.66714" lon="2.61909">
        <ele>122</ele>
        <time>2014-09-09T07:43:21.772Z</time>
      </trkpt>
      <trkpt lat="48.6671" lon="2.6192">
        <ele>124</ele>
        <time>2014-09-09T07:43:27.735Z</time>
      </trkpt>
      <trkpt lat="48.66709" lon="2.61921">
        <ele>124</ele>
        <time>2014-09-09T07:43:28.733Z</time>
      </trkpt>
      <trkpt lat="48.66706" lon="2.61933">
        <ele>123</ele>
        <time>2014-09-09T07:43:36.766Z</time>
      </trkpt>
      <trkpt lat="48.66705" lon="2.61934">
        <ele>124</ele>
        <time>2014-09-09T07:43:37.773Z</time>
      </trkpt>
      <trkpt lat="48.66703" lon="2.61946">
        <ele>122</ele>
        <time>2014-09-09T07:43:45.769Z</time>
      </trkpt>
      <trkpt lat="48.66703" lon="2.61947">
        <ele>122</ele>
        <time>2014-09-09T07:43:46.771Z</time>
      </trkpt>
      <trkpt lat="48.66701" lon="2.61959">
        <ele>119</ele>
        <time>2014-09-09T07:43:53.779Z</time>
      </trkpt>
      <trkpt lat="48.667" lon="2.61961">
        <ele>119</ele>
        <time>2014-09-09T07:43:54.742Z</time>
      </trkpt>
      <trkpt lat="48.66697" lon="2.61973">
        <ele>117</ele>
        <time>2014-09-09T07:44:01.783Z</time>
      </trkpt>
      <trkpt lat="48.66697" lon="2.61974">
        <ele>118</ele>
        <time>2014-09-09T07:44:02.781Z</time>
      </trkpt>
      <trkpt lat="48.66693" lon="2.61986">
        <ele>119</ele>
        <time>2014-09-09T07:44:09.735Z</time>
      </trkpt>
      <trkpt lat="48.66692" lon="2.61988">
        <ele>119</ele>
        <time>2014-09-09T07:44:10.780Z</time>
      </trkpt>
      <trkpt lat="48.6669" lon="2.62">
        <ele>117</ele>
        <time>2014-09-09T07:44:17.770Z</time>
      </trkpt>
      <trkpt lat="48.66689" lon="2.62001">
        <ele>117</ele>
        <time>2014-09-09T07:44:18.735Z</time>
      </trkpt>
      <trkpt lat="48.66684" lon="2.62011">
        <ele>118</ele>
        <time>2014-09-09T07:44:24.780Z</time>
      </trkpt>
      <trkpt lat="48.66684" lon="2.62013">
        <ele>117</ele>
        <time>2014-09-09T07:44:25.781Z</time>
      </trkpt>
      <trkpt lat="48.6668" lon="2.62025">
        <ele>118</ele>
        <time>2014-09-09T07:44:32.776Z</time>
      </trkpt>
      <trkpt lat="48.6668" lon="2.62027">
        <ele>118</ele>
        <time>2014-09-09T07:44:33.776Z</time>
      </trkpt>
      <trkpt lat="48.66676" lon="2.62037">
        <ele>118</ele>
        <time>2014-09-09T07:44:40.632Z</time>
      </trkpt>
      <trkpt lat="48.66675" lon="2.62039">
        <ele>119</ele>
        <time>2014-09-09T07:44:40.733Z</time>
      </trkpt>
      <trkpt lat="48.66671" lon="2.6205">
        <ele>119</ele>
        <time>2014-09-09T07:44:47.748Z</time>
      </trkpt>
      <trkpt lat="48.6667" lon="2.62051">
        <ele>120</ele>
        <time>2014-09-09T07:44:48.795Z</time>
      </trkpt>
      <trkpt lat="48.66665" lon="2.62061">
        <ele>119</ele>
        <time>2014-09-09T07:44:55.804Z</time>
      </trkpt>
      <trkpt lat="48.66664" lon="2.62062">
        <ele>118</ele>
        <time>2014-09-09T07:44:56.772Z</time>
      </trkpt>
      <trkpt lat="48.6666" lon="2.62074">
        <ele>118</ele>
        <time>2014-09-09T07:45:04.774Z</time>
      </trkpt>
      <trkpt lat="48.6666" lon="2.62076">
        <ele>118</ele>
        <time>2014-09-09T07:45:05.767Z</time>
      </trkpt>
      <trkpt lat="48.66655" lon="2.62087">
        <ele>119</ele>
        <time>2014-09-09T07:45:12.734Z</time>
      </trkpt>
      <trkpt lat="48.66655" lon="2.62089">
        <ele>120</ele>
        <time>2014-09-09T07:45:13.739Z</time>
      </trkpt>
      <trkpt lat="48.6665" lon="2.62099">
        <ele>120</ele>
        <time>2014-09-09T07:45:20.778Z</time>
      </trkpt>
      <trkpt lat="48.66649" lon="2.62101">
        <ele>120</ele>
        <time>2014-09-09T07:45:21.780Z</time>
      </trkpt>
      <trkpt lat="48.66645" lon="2.62111">
        <ele>118</ele>
        <time>2014-09-09T07:45:27.782Z</time>
      </trkpt>
      <trkpt lat="48.66644" lon="2.62112">
        <ele>117</ele>
        <time>2014-09-09T07:45:28.780Z</time>
      </trkpt>
      <trkpt lat="48.66638" lon="2.62122">
        <ele>117</ele>
        <time>2014-09-09T07:45:34.784Z</time>
      </trkpt>
      <trkpt lat="48.66637" lon="2.62123">
        <ele>117</ele>
        <time>2014-09-09T07:45:35.780Z</time>
      </trkpt>
      <trkpt lat="48.66632" lon="2.62132">
        <ele>117</ele>
        <time>2014-09-09T07:45:42.740Z</time>
      </trkpt>
      <trkpt lat="48.66632" lon="2.62134">
        <ele>117</ele>
        <time>2014-09-09T07:45:43.780Z</time>
      </trkpt>
      <trkpt lat="48.66629" lon="2.62145">
        <ele>119</ele>
        <time>2014-09-09T07:45:49.781Z</time>
      </trkpt>
      <trkpt lat="48.66629" lon="2.62147">
        <ele>119</ele>
        <time>2014-09-09T07:45:50.785Z</time>
      </trkpt>
      <trkpt lat="48.66628" lon="2.62159">
        <ele>123</ele>
        <time>2014-09-09T07:45:56.767Z</time>
      </trkpt>
      <trkpt lat="48.66628" lon="2.62162">
        <ele>123</ele>
        <time>2014-09-09T07:45:57.775Z</time>
      </trkpt>
      <trkpt lat="48.66628" lon="2.62174">
        <ele>122</ele>
        <time>2014-09-09T07:46:03.739Z</time>
      </trkpt>
      <trkpt lat="48.66629" lon="2.62176">
        <ele>121</ele>
        <time>2014-09-09T07:46:04.775Z</time>
      </trkpt>
      <trkpt lat="48.66628" lon="2.62188">
        <ele>121</ele>
        <time>2014-09-09T07:46:11.732Z</time>
      </trkpt>
      <trkpt lat="48.66629" lon="2.6219">
        <ele>121</ele>
        <time>2014-09-09T07:46:12.749Z</time>
      </trkpt>
      <trkpt lat="48.6663" lon="2.62202">
        <ele>122</ele>
        <time>2014-09-09T07:46:19.767Z</time>
      </trkpt>
      <trkpt lat="48.6663" lon="2.62204">
        <ele>122</ele>
        <time>2014-09-09T07:46:20.772Z</time>
      </trkpt>
      <trkpt lat="48.66633" lon="2.62214">
        <ele>121</ele>
        <time>2014-09-09T07:46:26.832Z</time>
      </trkpt>
      <trkpt lat="48.66634" lon="2.62216">
        <ele>121</ele>
        <time>2014-09-09T07:46:27.768Z</time>
      </trkpt>
      <trkpt lat="48.66637" lon="2.62228">
        <ele>119</ele>
        <time>2014-09-09T07:46:34.772Z</time>
      </trkpt>
      <trkpt lat="48.66637" lon="2.6223">
        <ele>119</ele>
        <time>2014-09-09T07:46:35.744Z</time>
      </trkpt>
      <trkpt lat="48.66642" lon="2.62242">
        <ele>117</ele>
        <time>2014-09-09T07:46:42.735Z</time>
      </trkpt>
      <trkpt lat="48.66642" lon="2.62243">
        <ele>115</ele>
        <time>2014-09-09T07:46:43.736Z</time>
      </trkpt>
      <trkpt lat="48.66648" lon="2.62253">
        <ele>116</ele>
        <time>2014-09-09T07:46:51.779Z</time>
      </trkpt>
      <trkpt lat="48.66649" lon="2.62255">
        <ele>116</ele>
        <time>2014-09-09T07:46:52.740Z</time>
      </trkpt>
      <trkpt lat="48.66652" lon="2.62267">
        <ele>115</ele>
        <time>2014-09-09T07:46:59.741Z</time>
      </trkpt>
      <trkpt lat="48.66652" lon="2.62269">
        <ele>116</ele>
        <time>2014-09-09T07:47:00.778Z</time>
      </trkpt>
      <trkpt lat="48.66657" lon="2.62279">
        <ele>116</ele>
        <time>2014-09-09T07:47:06.737Z</time>
      </trkpt>
      <trkpt lat="48.66658" lon="2.6228">
        <ele>116</ele>
        <time>2014-09-09T07:47:07.774Z</time>
      </trkpt>
      <trkpt lat="48.66663" lon="2.6229">
        <ele>118</ele>
        <time>2014-09-09T07:47:13.772Z</time>
      </trkpt>
      <trkpt lat="48.66664" lon="2.62291">
        <ele>118</ele>
        <time>2014-09-09T07:47:14.768Z</time>
      </trkpt>
      <trkpt lat="48.66669" lon="2.623">
        <ele>118</ele>
        <time>2014-09-09T07:47:20.776Z</time>
      </trkpt>
      <trkpt lat="48.6667" lon="2.623">
        <ele>119</ele>
        <time>2014-09-09T07:47:21.781Z</time>
      </trkpt>
      <trkpt lat="48.66676" lon="2.62309">
        <ele>121</ele>
        <time>2014-09-09T07:47:27.790Z</time>
      </trkpt>
      <trkpt lat="48.66678" lon="2.6231">
        <ele>120</ele>
        <time>2014-09-09T07:47:28.775Z</time>
      </trkpt>
      <trkpt lat="48.66682" lon="2.6232">
        <ele>116</ele>
        <time>2014-09-09T07:47:35.824Z</time>
      </trkpt>
      <trkpt lat="48.66683" lon="2.62321">
        <ele>116</ele>
        <time>2014-09-09T07:47:36.777Z</time>
      </trkpt>
      <trkpt lat="48.66688" lon="2.62331">
        <ele>119</ele>
        <time>2014-09-09T07:47:43.771Z</time>
      </trkpt>
      <trkpt lat="48.66689" lon="2.62333">
        <ele>118</ele>
        <time>2014-09-09T07:47:44.770Z</time>
      </trkpt>
      <trkpt lat="48.66694" lon="2.62343">
        <ele>120</ele>
        <time>2014-09-09T07:47:50.783Z</time>
      </trkpt>
      <trkpt lat="48.66695" lon="2.62345">
        <ele>119</ele>
        <time>2014-09-09T07:47:51.789Z</time>
      </trkpt>
      <trkpt lat="48.667" lon="2.62354">
        <ele>117</ele>
        <time>2014-09-09T07:47:58.780Z</time>
      </trkpt>
      <trkpt lat="48.66701" lon="2.62355">
        <ele>118</ele>
        <time>2014-09-09T07:47:59.741Z</time>
      </trkpt>
      <trkpt lat="48.66707" lon="2.62366">
        <ele>117</ele>
        <time>2014-09-09T07:48:07.772Z</time>
      </trkpt>
      <trkpt lat="48.66707" lon="2.62368">
        <ele>117</ele>
        <time>2014-09-09T07:48:08.738Z</time>
      </trkpt>
      <trkpt lat="48.66704" lon="2.6238">
        <ele>117</ele>
        <time>2014-09-09T07:48:15.772Z</time>
      </trkpt>
      <trkpt lat="48.66703" lon="2.62382">
        <ele>117</ele>
        <time>2014-09-09T07:48:16.771Z</time>
      </trkpt>
      <trkpt lat="48.66699" lon="2.62392">
        <ele>116</ele>
        <time>2014-09-09T07:48:22.737Z</time>
      </trkpt>
      <trkpt lat="48.66698" lon="2.62394">
        <ele>115</ele>
        <time>2014-09-09T07:48:23.797Z</time>
      </trkpt>
      <trkpt lat="48.66695" lon="2.62404">
        <ele>117</ele>
        <time>2014-09-09T07:48:30.774Z</time>
      </trkpt>
      <trkpt lat="48.66694" lon="2.62406">
        <ele>117</ele>
        <time>2014-09-09T07:48:31.783Z</time>
      </trkpt>
      <trkpt lat="48.66691" lon="2.62418">
        <ele>117</ele>
        <time>2014-09-09T07:48:40.740Z</time>
      </trkpt>
      <trkpt lat="48.66691" lon="2.62419">
        <ele>117</ele>
        <time>2014-09-09T07:48:41.780Z</time>
      </trkpt>
      <trkpt lat="48.66688" lon="2.62432">
        <ele>117</ele>
        <time>2014-09-09T07:48:48.742Z</time>
      </trkpt>
      <trkpt lat="48.66688" lon="2.62433">
        <ele>115</ele>
        <time>2014-09-09T07:48:49.754Z</time>
      </trkpt>
      <trkpt lat="48.66689" lon="2.62446">
        <ele>114</ele>
        <time>2014-09-09T07:48:56.778Z</time>
      </trkpt>
      <trkpt lat="48.66689" lon="2.62448">
        <ele>113</ele>
        <time>2014-09-09T07:48:57.787Z</time>
      </trkpt>
      <trkpt lat="48.66693" lon="2.62459">
        <ele>113</ele>
        <time>2014-09-09T07:49:04.791Z</time>
      </trkpt>
      <trkpt lat="48.66693" lon="2.6246">
        <ele>113</ele>
        <time>2014-09-09T07:49:05.781Z</time>
      </trkpt>
      <trkpt lat="48.66698" lon="2.62469">
        <ele>116</ele>
        <time>2014-09-09T07:49:11.768Z</time>
      </trkpt>
      <trkpt lat="48.66699" lon="2.62471">
        <ele>117</ele>
        <time>2014-09-09T07:49:12.784Z</time>
      </trkpt>
      <trkpt lat="48.66705" lon="2.6248">
        <ele>113</ele>
        <time>2014-09-09T07:49:20.739Z</time>
      </trkpt>
      <trkpt lat="48.66706" lon="2.62481">
        <ele>113</ele>
        <time>2014-09-09T07:49:21.796Z</time>
      </trkpt>
      <trkpt lat="48.66713" lon="2.62489">
        <ele>115</ele>
        <time>2014-09-09T07:49:29.786Z</time>
      </trkpt>
      <trkpt lat="48.66714" lon="2.6249">
        <ele>114</ele>
        <time>2014-09-09T07:49:30.782Z</time>
      </trkpt>
      <trkpt lat="48.6672" lon="2.62497">
        <ele>114</ele>
        <time>2014-09-09T07:49:36.768Z</time>
      </trkpt>
      <trkpt lat="48.66721" lon="2.62499">
        <ele>115</ele>
        <time>2014-09-09T07:49:37.768Z</time>
      </trkpt>
      <trkpt lat="48.66728" lon="2.62507">
        <ele>113</ele>
        <time>2014-09-09T07:49:43.785Z</time>
      </trkpt>
      <trkpt lat="48.66729" lon="2.62508">
        <ele>114</ele>
        <time>2014-09-09T07:49:44.812Z</time>
      </trkpt>
      <trkpt lat="48.66735" lon="2.62514">
        <ele>114</ele>
        <time>2014-09-09T07:49:49.762Z</time>
      </trkpt>
      <trkpt lat="48.66736" lon="2.62516">
        <ele>116</ele>
        <time>2014-09-09T07:49:50.796Z</time>
      </trkpt>
      <trkpt lat="48.66742" lon="2.62523">
        <ele>113</ele>
        <time>2014-09-09T07:49:58.774Z</time>
      </trkpt>
      <trkpt lat="48.66743" lon="2.62524">
        <ele>115</ele>
        <time>2014-09-09T07:49:59.784Z</time>
      </trkpt>
      <trkpt lat="48.66749" lon="2.62533">
        <ele>116</ele>
        <time>2014-09-09T07:50:06.779Z</time>
      </trkpt>
      <trkpt lat="48.6675" lon="2.62535">
        <ele>116</ele>
        <time>2014-09-09T07:50:07.781Z</time>
      </trkpt>
      <trkpt lat="48.66756" lon="2.62544">
        <ele>117</ele>
        <time>2014-09-09T07:50:14.772Z</time>
      </trkpt>
      <trkpt lat="48.66757" lon="2.62546">
        <ele>117</ele>
        <time>2014-09-09T07:50:15.775Z</time>
      </trkpt>
      <trkpt lat="48.66762" lon="2.62554">
        <ele>119</ele>
        <time>2014-09-09T07:50:21.773Z</time>
      </trkpt>
      <trkpt lat="48.66763" lon="2.62555">
        <ele>119</ele>
        <time>2014-09-09T07:50:22.738Z</time>
      </trkpt>
      <trkpt lat="48.66769" lon="2.62566">
        <ele>118</ele>
        <time>2014-09-09T07:50:29.741Z</time>
      </trkpt>
      <trkpt lat="48.6677" lon="2.62567">
        <ele>118</ele>
        <time>2014-09-09T07:50:30.783Z</time>
      </trkpt>
      <trkpt lat="48.66776" lon="2.62576">
        <ele>118</ele>
        <time>2014-09-09T07:50:38.741Z</time>
      </trkpt>
      <trkpt lat="48.66777" lon="2.62578">
        <ele>118</ele>
        <time>2014-09-09T07:50:39.769Z</time>
      </trkpt>
      <trkpt lat="48.66782" lon="2.62586">
        <ele>119</ele>
        <time>2014-09-09T07:50:46.774Z</time>
      </trkpt>
      <trkpt lat="48.66783" lon="2.62588">
        <ele>119</ele>
        <time>2014-09-09T07:50:47.750Z</time>
      </trkpt>
      <trkpt lat="48.66789" lon="2.62595">
        <ele>119</ele>
        <time>2014-09-09T07:50:54.762Z</time>
      </trkpt>
      <trkpt lat="48.6679" lon="2.62596">
        <ele>120</ele>
        <time>2014-09-09T07:50:55.733Z</time>
      </trkpt>
      <trkpt lat="48.66796" lon="2.62604">
        <ele>122</ele>
        <time>2014-09-09T07:51:01.772Z</time>
      </trkpt>
      <trkpt lat="48.66797" lon="2.62605">
        <ele>122</ele>
        <time>2014-09-09T07:51:02.758Z</time>
      </trkpt>
      <trkpt lat="48.66804" lon="2.62613">
        <ele>120</ele>
        <time>2014-09-09T07:51:09.735Z</time>
      </trkpt>
      <trkpt lat="48.66805" lon="2.62614">
        <ele>121</ele>
        <time>2014-09-09T07:51:10.737Z</time>
      </trkpt>
      <trkpt lat="48.6681" lon="2.62625">
        <ele>119</ele>
        <time>2014-09-09T07:51:18.774Z</time>
      </trkpt>
      <trkpt lat="48.6681" lon="2.62627">
        <ele>119</ele>
        <time>2014-09-09T07:51:19.780Z</time>
      </trkpt>
      <trkpt lat="48.66815" lon="2.62638">
        <ele>119</ele>
        <time>2014-09-09T07:51:27.736Z</time>
      </trkpt>
      <trkpt lat="48.66816" lon="2.62639">
        <ele>120</ele>
        <time>2014-09-09T07:51:28.784Z</time>
      </trkpt>
      <trkpt lat="48.66821" lon="2.62648">
        <ele>119</ele>
        <time>2014-09-09T07:51:34.784Z</time>
      </trkpt>
      <trkpt lat="48.66822" lon="2.62649">
        <ele>119</ele>
        <time>2014-09-09T07:51:35.742Z</time>
      </trkpt>
      <trkpt lat="48.66828" lon="2.62659">
        <ele>119</ele>
        <time>2014-09-09T07:51:43.740Z</time>
      </trkpt>
      <trkpt lat="48.66829" lon="2.6266">
        <ele>119</ele>
        <time>2014-09-09T07:51:44.771Z</time>
      </trkpt>
      <trkpt lat="48.66835" lon="2.62668">
        <ele>117</ele>
        <time>2014-09-09T07:51:51.784Z</time>
      </trkpt>
      <trkpt lat="48.66836" lon="2.62669">
        <ele>116</ele>
        <time>2014-09-09T07:51:52.771Z</time>
      </trkpt>
      <trkpt lat="48.66842" lon="2.62679">
        <ele>115</ele>
        <time>2014-09-09T07:52:00.742Z</time>
      </trkpt>
      <trkpt lat="48.66842" lon="2.6268">
        <ele>115</ele>
        <time>2014-09-09T07:52:01.783Z</time>
      </trkpt>
      <trkpt lat="48.66848" lon="2.62689">
        <ele>115</ele>
        <time>2014-09-09T07:52:08.773Z</time>
      </trkpt>
      <trkpt lat="48.66848" lon="2.62691">
        <ele>114</ele>
        <time>2014-09-09T07:52:09.776Z</time>
      </trkpt>
      <trkpt lat="48.66853" lon="2.62702">
        <ele>115</ele>
        <time>2014-09-09T07:52:16.782Z</time>
      </trkpt>
      <trkpt lat="48.66854" lon="2.62703">
        <ele>115</ele>
        <time>2014-09-09T07:52:17.772Z</time>
      </trkpt>
      <trkpt lat="48.66859" lon="2.62713">
        <ele>121</ele>
        <time>2014-09-09T07:52:23.773Z</time>
      </trkpt>
      <trkpt lat="48.6686" lon="2.62715">
        <ele>120</ele>
        <time>2014-09-09T07:52:24.779Z</time>
      </trkpt>
      <trkpt lat="48.66866" lon="2.62724">
        <ele>122</ele>
        <time>2014-09-09T07:52:30.766Z</time>
      </trkpt>
      <trkpt lat="48.66867" lon="2.62726">
        <ele>122</ele>
        <time>2014-09-09T07:52:31.764Z</time>
      </trkpt>
      <trkpt lat="48.66871" lon="2.62735">
        <ele>122</ele>
        <time>2014-09-09T07:52:37.773Z</time>
      </trkpt>
      <trkpt lat="48.66872" lon="2.62737">
        <ele>122</ele>
        <time>2014-09-09T07:52:38.777Z</time>
      </trkpt>
      <trkpt lat="48.66877" lon="2.62746">
        <ele>120</ele>
        <time>2014-09-09T07:52:45.779Z</time>
      </trkpt>
      <trkpt lat="48.66878" lon="2.62748">
        <ele>121</ele>
        <time>2014-09-09T07:52:46.772Z</time>
      </trkpt>
      <trkpt lat="48.66882" lon="2.62759">
        <ele>121</ele>
        <time>2014-09-09T07:52:53.735Z</time>
      </trkpt>
      <trkpt lat="48.66882" lon="2.62761">
        <ele>121</ele>
        <time>2014-09-09T07:52:54.826Z</time>
      </trkpt>
      <trkpt lat="48.66887" lon="2.62771">
        <ele>122</ele>
        <time>2014-09-09T07:53:01.748Z</time>
      </trkpt>
      <trkpt lat="48.66888" lon="2.62773">
        <ele>123</ele>
        <time>2014-09-09T07:53:02.761Z</time>
      </trkpt>
      <trkpt lat="48.66893" lon="2.62781">
        <ele>125</ele>
        <time>2014-09-09T07:53:08.767Z</time>
      </trkpt>
      <trkpt lat="48.66894" lon="2.62783">
        <ele>124</ele>
        <time>2014-09-09T07:53:09.749Z</time>
      </trkpt>
      <trkpt lat="48.669" lon="2.62792">
        <ele>125</ele>
        <time>2014-09-09T07:53:15.785Z</time>
      </trkpt>
      <trkpt lat="48.66901" lon="2.62794">
        <ele>125</ele>
        <time>2014-09-09T07:53:16.767Z</time>
      </trkpt>
      <trkpt lat="48.66908" lon="2.62802">
        <ele>124</ele>
        <time>2014-09-09T07:53:24.772Z</time>
      </trkpt>
      <trkpt lat="48.66909" lon="2.62803">
        <ele>122</ele>
        <time>2014-09-09T07:53:25.738Z</time>
      </trkpt>
      <trkpt lat="48.66915" lon="2.62812">
        <ele>120</ele>
        <time>2014-09-09T07:53:33.788Z</time>
      </trkpt>
      <trkpt lat="48.66916" lon="2.62813">
        <ele>119</ele>
        <time>2014-09-09T07:53:34.745Z</time>
      </trkpt>
      <trkpt lat="48.66922" lon="2.62821">
        <ele>124</ele>
        <time>2014-09-09T07:53:41.763Z</time>
      </trkpt>
      <trkpt lat="48.66924" lon="2.62822">
        <ele>124</ele>
        <time>2014-09-09T07:53:42.766Z</time>
      </trkpt>
      <trkpt lat="48.66931" lon="2.62828">
        <ele>126</ele>
        <time>2014-09-09T07:53:48.777Z</time>
      </trkpt>
      <trkpt lat="48.66932" lon="2.62829">
        <ele>125</ele>
        <time>2014-09-09T07:53:49.834Z</time>
      </trkpt>
      <trkpt lat="48.66939" lon="2.62835">
        <ele>124</ele>
        <time>2014-09-09T07:53:55.768Z</time>
      </trkpt>
      <trkpt lat="48.6694" lon="2.62836">
        <ele>125</ele>
        <time>2014-09-09T07:53:56.780Z</time>
      </trkpt>
      <trkpt lat="48.66947" lon="2.62843">
        <ele>127</ele>
        <time>2014-09-09T07:54:04.770Z</time>
      </trkpt>
      <trkpt lat="48.66948" lon="2.62844">
        <ele>127</ele>
        <time>2014-09-09T07:54:05.770Z</time>
      </trkpt>
      <trkpt lat="48.66955" lon="2.6285">
        <ele>127</ele>
        <time>2014-09-09T07:54:12.738Z</time>
      </trkpt>
      <trkpt lat="48.66956" lon="2.6285">
        <ele>126</ele>
        <time>2014-09-09T07:54:13.773Z</time>
      </trkpt>
      <trkpt lat="48.66964" lon="2.62855">
        <ele>125</ele>
        <time>2014-09-09T07:54:21.782Z</time>
      </trkpt>
      <trkpt lat="48.66965" lon="2.62855">
        <ele>124</ele>
        <time>2014-09-09T07:54:22.805Z</time>
      </trkpt>
      <trkpt lat="48.66973" lon="2.62859">
        <ele>125</ele>
        <time>2014-09-09T07:54:29.770Z</time>
      </trkpt>
      <trkpt lat="48.66974" lon="2.6286">
        <ele>123</ele>
        <time>2014-09-09T07:54:30.742Z</time>
      </trkpt>
      <trkpt lat="48.66983" lon="2.62864">
        <ele>125</ele>
        <time>2014-09-09T07:54:41.769Z</time>
      </trkpt>
      <trkpt lat="48.66984" lon="2.62864">
        <ele>125</ele>
        <time>2014-09-09T07:54:42.735Z</time>
      </trkpt>
      <trkpt lat="48.66992" lon="2.62866">
        <ele>125</ele>
        <time>2014-09-09T07:54:48.783Z</time>
      </trkpt>
      <trkpt lat="48.66993" lon="2.62867">
        <ele>126</ele>
        <time>2014-09-09T07:54:49.797Z</time>
      </trkpt>
      <trkpt lat="48.67001" lon="2.62869">
        <ele>124</ele>
        <time>2014-09-09T07:54:55.773Z</time>
      </trkpt>
      <trkpt lat="48.67002" lon="2.6287">
        <ele>123</ele>
        <time>2014-09-09T07:54:56.779Z</time>
      </trkpt>
      <trkpt lat="48.67011" lon="2.62873">
        <ele>125</ele>
        <time>2014-09-09T07:55:02.781Z</time>
      </trkpt>
      <trkpt lat="48.67012" lon="2.62873">
        <ele>125</ele>
        <time>2014-09-09T07:55:03.771Z</time>
      </trkpt>
      <trkpt lat="48.6702" lon="2.62877">
        <ele>126</ele>
        <time>2014-09-09T07:55:10.787Z</time>
      </trkpt>
      <trkpt lat="48.67021" lon="2.62877">
        <ele>126</ele>
        <time>2014-09-09T07:55:11.744Z</time>
      </trkpt>
      <trkpt lat="48.67029" lon="2.62883">
        <ele>125</ele>
        <time>2014-09-09T07:55:19.787Z</time>
      </trkpt>
      <trkpt lat="48.6703" lon="2.62884">
        <ele>125</ele>
        <time>2014-09-09T07:55:20.740Z</time>
      </trkpt>
      <trkpt lat="48.67037" lon="2.6289">
        <ele>127</ele>
        <time>2014-09-09T07:55:27.786Z</time>
      </trkpt>
      <trkpt lat="48.67038" lon="2.62891">
        <ele>126</ele>
        <time>2014-09-09T07:55:28.772Z</time>
      </trkpt>
      <trkpt lat="48.67045" lon="2.62898">
        <ele>127</ele>
        <time>2014-09-09T07:55:35.768Z</time>
      </trkpt>
      <trkpt lat="48.67047" lon="2.62899">
        <ele>127</ele>
        <time>2014-09-09T07:55:36.778Z</time>
      </trkpt>
      <trkpt lat="48.67054" lon="2.62906">
        <ele>128</ele>
        <time>2014-09-09T07:55:43.802Z</time>
      </trkpt>
      <trkpt lat="48.67054" lon="2.62907">
        <ele>127</ele>
        <time>2014-09-09T07:55:44.765Z</time>
      </trkpt>
      <trkpt lat="48.67057" lon="2.62919">
        <ele>128</ele>
        <time>2014-09-09T07:55:52.776Z</time>
      </trkpt>
      <trkpt lat="48.67058" lon="2.62921">
        <ele>129</ele>
        <time>2014-09-09T07:55:53.758Z</time>
      </trkpt>
      <trkpt lat="48.67063" lon="2.62931">
        <ele>127</ele>
        <time>2014-09-09T07:56:01.770Z</time>
      </trkpt>
      <trkpt lat="48.67064" lon="2.62932">
        <ele>127</ele>
        <time>2014-09-09T07:56:02.748Z</time>
      </trkpt>
      <trkpt lat="48.67066" lon="2.62945">
        <ele>128</ele>
        <time>2014-09-09T07:56:10.738Z</time>
      </trkpt>
      <trkpt lat="48.67067" lon="2.62946">
        <ele>129</ele>
        <time>2014-09-09T07:56:11.776Z</time>
      </trkpt>
      <trkpt lat="48.67073" lon="2.62954">
        <ele>128</ele>
        <time>2014-09-09T07:56:18.778Z</time>
      </trkpt>
      <trkpt lat="48.67074" lon="2.62955">
        <ele>128</ele>
        <time>2014-09-09T07:56:19.776Z</time>
      </trkpt>
      <trkpt lat="48.67081" lon="2.62963">
        <ele>127</ele>
        <time>2014-09-09T07:56:28.167Z</time>
      </trkpt>
      <trkpt lat="48.67082" lon="2.62964">
        <ele>128</ele>
        <time>2014-09-09T07:56:28.737Z</time>
      </trkpt>
      <trkpt lat="48.67088" lon="2.62972">
        <ele>128</ele>
        <time>2014-09-09T07:56:37.737Z</time>
      </trkpt>
      <trkpt lat="48.67089" lon="2.62973">
        <ele>129</ele>
        <time>2014-09-09T07:56:38.773Z</time>
      </trkpt>
      <trkpt lat="48.67096" lon="2.62981">
        <ele>128</ele>
        <time>2014-09-09T07:56:46.776Z</time>
      </trkpt>
      <trkpt lat="48.67097" lon="2.62982">
        <ele>129</ele>
        <time>2014-09-09T07:56:47.733Z</time>
      </trkpt>
      <trkpt lat="48.67104" lon="2.62989">
        <ele>133</ele>
        <time>2014-09-09T07:56:54.774Z</time>
      </trkpt>
      <trkpt lat="48.67105" lon="2.6299">
        <ele>134</ele>
        <time>2014-09-09T07:56:55.771Z</time>
      </trkpt>
      <trkpt lat="48.67112" lon="2.62995">
        <ele>134</ele>
        <time>2014-09-09T07:57:02.778Z</time>
      </trkpt>
      <trkpt lat="48.67113" lon="2.62996">
        <ele>134</ele>
        <time>2014-09-09T07:57:03.747Z</time>
      </trkpt>
      <trkpt lat="48.6712" lon="2.63004">
        <ele>134</ele>
        <time>2014-09-09T07:57:11.776Z</time>
      </trkpt>
      <trkpt lat="48.67121" lon="2.63005">
        <ele>135</ele>
        <time>2014-09-09T07:57:12.778Z</time>
      </trkpt>
      <trkpt lat="48.67127" lon="2.63013">
        <ele>135</ele>
        <time>2014-09-09T07:57:19.777Z</time>
      </trkpt>
      <trkpt lat="48.67128" lon="2.63014">
        <ele>136</ele>
        <time>2014-09-09T07:57:20.778Z</time>
      </trkpt>
      <trkpt lat="48.67134" lon="2.63022">
        <ele>135</ele>
        <time>2014-09-09T07:57:27.774Z</time>
      </trkpt>
      <trkpt lat="48.67134" lon="2.63024">
        <ele>135</ele>
        <time>2014-09-09T07:57:28.753Z</time>
      </trkpt>
      <trkpt lat="48.67139" lon="2.63034">
        <ele>136</ele>
        <time>2014-09-09T07:57:35.770Z</time>
      </trkpt>
      <trkpt lat="48.6714" lon="2.63036">
        <ele>136</ele>
        <time>2014-09-09T07:57:36.763Z</time>
      </trkpt>
      <trkpt lat="48.67143" lon="2.63046">
        <ele>135</ele>
        <time>2014-09-09T07:57:43.748Z</time>
      </trkpt>
      <trkpt lat="48.67144" lon="2.63048">
        <ele>135</ele>
        <time>2014-09-09T07:57:44.749Z</time>
      </trkpt>
      <trkpt lat="48.6715" lon="2.63057">
        <ele>136</ele>
        <time>2014-09-09T07:57:51.778Z</time>
      </trkpt>
      <trkpt lat="48.67151" lon="2.63058">
        <ele>137</ele>
        <time>2014-09-09T07:57:52.777Z</time>
      </trkpt>
      <trkpt lat="48.67156" lon="2.63068">
        <ele>136</ele>
        <time>2014-09-09T07:57:59.738Z</time>
      </trkpt>
      <trkpt lat="48.67157" lon="2.63069">
        <ele>135</ele>
        <time>2014-09-09T07:58:00.792Z</time>
      </trkpt>
      <trkpt lat="48.67162" lon="2.6308">
        <ele>135</ele>
        <time>2014-09-09T07:58:07.768Z</time>
      </trkpt>
      <trkpt lat="48.67163" lon="2.63082">
        <ele>136</ele>
        <time>2014-09-09T07:58:08.745Z</time>
      </trkpt>
      <trkpt lat="48.67166" lon="2.63094">
        <ele>135</ele>
        <time>2014-09-09T07:58:15.741Z</time>
      </trkpt>
      <trkpt lat="48.67167" lon="2.63095">
        <ele>135</ele>
        <time>2014-09-09T07:58:16.775Z</time>
      </trkpt>
      <trkpt lat="48.67171" lon="2.63107">
        <ele>135</ele>
        <time>2014-09-09T07:58:24.741Z</time>
      </trkpt>
      <trkpt lat="48.67172" lon="2.63108">
        <ele>135</ele>
        <time>2014-09-09T07:58:25.776Z</time>
      </trkpt>
      <trkpt lat="48.67177" lon="2.63117">
        <ele>135</ele>
        <time>2014-09-09T07:58:32.784Z</time>
      </trkpt>
      <trkpt lat="48.67178" lon="2.63119">
        <ele>135</ele>
        <time>2014-09-09T07:58:33.781Z</time>
      </trkpt>
      <trkpt lat="48.67183" lon="2.63129">
        <ele>136</ele>
        <time>2014-09-09T07:58:40.778Z</time>
      </trkpt>
      <trkpt lat="48.67183" lon="2.63131">
        <ele>136</ele>
        <time>2014-09-09T07:58:41.774Z</time>
      </trkpt>
      <trkpt lat="48.67188" lon="2.63142">
        <ele>136</ele>
        <time>2014-09-09T07:58:49.743Z</time>
      </trkpt>
      <trkpt lat="48.67189" lon="2.63143">
        <ele>137</ele>
        <time>2014-09-09T07:58:50.777Z</time>
      </trkpt>
      <trkpt lat="48.67193" lon="2.63153">
        <ele>136</ele>
        <time>2014-09-09T07:58:58.786Z</time>
      </trkpt>
      <trkpt lat="48.67194" lon="2.63155">
        <ele>136</ele>
        <time>2014-09-09T07:58:59.746Z</time>
      </trkpt>
      <trkpt lat="48.67199" lon="2.63165">
        <ele>135</ele>
        <time>2014-09-09T07:59:07.746Z</time>
      </trkpt>
      <trkpt lat="48.672" lon="2.63166">
        <ele>135</ele>
        <time>2014-09-09T07:59:08.798Z</time>
      </trkpt>
      <trkpt lat="48.67204" lon="2.63176">
        <ele>136</ele>
        <time>2014-09-09T07:59:14.778Z</time>
      </trkpt>
      <trkpt lat="48.67205" lon="2.63177">
        <ele>135</ele>
        <time>2014-09-09T07:59:15.783Z</time>
      </trkpt>
      <trkpt lat="48.6721" lon="2.63186">
        <ele>136</ele>
        <time>2014-09-09T07:59:21.778Z</time>
      </trkpt>
      <trkpt lat="48.67211" lon="2.63187">
        <ele>136</ele>
        <time>2014-09-09T07:59:22.748Z</time>
      </trkpt>
      <trkpt lat="48.67216" lon="2.63197">
        <ele>133</ele>
        <time>2014-09-09T07:59:29.747Z</time>
      </trkpt>
      <trkpt lat="48.67216" lon="2.63199">
        <ele>133</ele>
        <time>2014-09-09T07:59:30.771Z</time>
      </trkpt>
      <trkpt lat="48.67222" lon="2.63208">
        <ele>135</ele>
        <time>2014-09-09T07:59:37.764Z</time>
      </trkpt>
      <trkpt lat="48.67222" lon="2.63211">
        <ele>135</ele>
        <time>2014-09-09T07:59:38.794Z</time>
      </trkpt>
      <trkpt lat="48.67227" lon="2.63221">
        <ele>137</ele>
        <time>2014-09-09T07:59:44.738Z</time>
      </trkpt>
      <trkpt lat="48.67227" lon="2.63223">
        <ele>137</ele>
        <time>2014-09-09T07:59:45.736Z</time>
      </trkpt>
      <trkpt lat="48.67232" lon="2.63232">
        <ele>139</ele>
        <time>2014-09-09T07:59:51.738Z</time>
      </trkpt>
      <trkpt lat="48.67233" lon="2.63233">
        <ele>140</ele>
        <time>2014-09-09T07:59:52.779Z</time>
      </trkpt>
      <trkpt lat="48.67238" lon="2.63244">
        <ele>141</ele>
        <time>2014-09-09T08:00:01.772Z</time>
      </trkpt>
      <trkpt lat="48.67238" lon="2.63244">
        <ele>141</ele>
        <time>2014-09-09T08:00:02.740Z</time>
      </trkpt>
      <trkpt lat="48.67242" lon="2.63255">
        <ele>140</ele>
        <time>2014-09-09T08:00:09.780Z</time>
      </trkpt>
      <trkpt lat="48.67243" lon="2.63257">
        <ele>140</ele>
        <time>2014-09-09T08:00:10.784Z</time>
      </trkpt>
      <trkpt lat="48.67246" lon="2.63268">
        <ele>141</ele>
        <time>2014-09-09T08:00:17.590Z</time>
      </trkpt>
      <trkpt lat="48.67246" lon="2.6327">
        <ele>142</ele>
        <time>2014-09-09T08:00:17.737Z</time>
      </trkpt>
      <trkpt lat="48.67251" lon="2.6328">
        <ele>142</ele>
        <time>2014-09-09T08:00:23.781Z</time>
      </trkpt>
      <trkpt lat="48.67252" lon="2.63282">
        <ele>143</ele>
        <time>2014-09-09T08:00:24.758Z</time>
      </trkpt>
      <trkpt lat="48.67254" lon="2.63294">
        <ele>138</ele>
        <time>2014-09-09T08:00:31.736Z</time>
      </trkpt>
      <trkpt lat="48.67254" lon="2.63296">
        <ele>138</ele>
        <time>2014-09-09T08:00:32.767Z</time>
      </trkpt>
      <trkpt lat="48.67256" lon="2.63309">
        <ele>139</ele>
        <time>2014-09-09T08:00:39.777Z</time>
      </trkpt>
      <trkpt lat="48.67257" lon="2.6331">
        <ele>139</ele>
        <time>2014-09-09T08:00:40.764Z</time>
      </trkpt>
      <trkpt lat="48.67263" lon="2.63319">
        <ele>139</ele>
        <time>2014-09-09T08:00:47.783Z</time>
      </trkpt>
      <trkpt lat="48.67263" lon="2.63321">
        <ele>139</ele>
        <time>2014-09-09T08:00:48.782Z</time>
      </trkpt>
      <trkpt lat="48.67267" lon="2.63332">
        <ele>140</ele>
        <time>2014-09-09T08:00:55.768Z</time>
      </trkpt>
      <trkpt lat="48.67267" lon="2.63333">
        <ele>139</ele>
        <time>2014-09-09T08:00:56.735Z</time>
      </trkpt>
      <trkpt lat="48.67268" lon="2.63346">
        <ele>137</ele>
        <time>2014-09-09T08:01:03.833Z</time>
      </trkpt>
      <trkpt lat="48.67269" lon="2.63348">
        <ele>138</ele>
        <time>2014-09-09T08:01:04.779Z</time>
      </trkpt>
      <trkpt lat="48.67272" lon="2.6336">
        <ele>139</ele>
        <time>2014-09-09T08:01:11.798Z</time>
      </trkpt>
      <trkpt lat="48.67272" lon="2.63362">
        <ele>139</ele>
        <time>2014-09-09T08:01:12.786Z</time>
      </trkpt>
      <trkpt lat="48.67276" lon="2.63373">
        <ele>138</ele>
        <time>2014-09-09T08:01:19.739Z</time>
      </trkpt>
      <trkpt lat="48.67276" lon="2.63374">
        <ele>139</ele>
        <time>2014-09-09T08:01:20.785Z</time>
      </trkpt>
      <trkpt lat="48.67278" lon="2.63387">
        <ele>138</ele>
        <time>2014-09-09T08:01:28.741Z</time>
      </trkpt>
      <trkpt lat="48.67279" lon="2.63388">
        <ele>138</ele>
        <time>2014-09-09T08:01:29.740Z</time>
      </trkpt>
      <trkpt lat="48.67284" lon="2.63399">
        <ele>137</ele>
        <time>2014-09-09T08:01:37.798Z</time>
      </trkpt>
      <trkpt lat="48.67285" lon="2.634">
        <ele>136</ele>
        <time>2014-09-09T08:01:38.784Z</time>
      </trkpt>
      <trkpt lat="48.67288" lon="2.63411">
        <ele>137</ele>
        <time>2014-09-09T08:01:45.776Z</time>
      </trkpt>
      <trkpt lat="48.67289" lon="2.63412">
        <ele>138</ele>
        <time>2014-09-09T08:01:46.784Z</time>
      </trkpt>
      <trkpt lat="48.67293" lon="2.63424">
        <ele>140</ele>
        <time>2014-09-09T08:01:53.738Z</time>
      </trkpt>
      <trkpt lat="48.67293" lon="2.63425">
        <ele>139</ele>
        <time>2014-09-09T08:01:54.738Z</time>
      </trkpt>
      <trkpt lat="48.67295" lon="2.63438">
        <ele>138</ele>
        <time>2014-09-09T08:02:01.785Z</time>
      </trkpt>
      <trkpt lat="48.67295" lon="2.6344">
        <ele>138</ele>
        <time>2014-09-09T08:02:02.759Z</time>
      </trkpt>
      <trkpt lat="48.67299" lon="2.63451">
        <ele>138</ele>
        <time>2014-09-09T08:02:12.737Z</time>
      </trkpt>
      <trkpt lat="48.673" lon="2.63453">
        <ele>138</ele>
        <time>2014-09-09T08:02:13.739Z</time>
      </trkpt>
      <trkpt lat="48.67303" lon="2.63465">
        <ele>140</ele>
        <time>2014-09-09T08:02:19.784Z</time>
      </trkpt>
      <trkpt lat="48.67303" lon="2.63467">
        <ele>140</ele>
        <time>2014-09-09T08:02:20.774Z</time>
      </trkpt>
      <trkpt lat="48.67308" lon="2.63477">
        <ele>140</ele>
        <time>2014-09-09T08:02:26.768Z</time>
      </trkpt>
      <trkpt lat="48.67308" lon="2.63479">
        <ele>139</ele>
        <time>2014-09-09T08:02:27.777Z</time>
      </trkpt>
      <trkpt lat="48.67313" lon="2.63491">
        <ele>141</ele>
        <time>2014-09-09T08:02:34.738Z</time>
      </trkpt>
      <trkpt lat="48.67313" lon="2.63492">
        <ele>141</ele>
        <time>2014-09-09T08:02:35.782Z</time>
      </trkpt>
      <trkpt lat="48.67317" lon="2.63503">
        <ele>144</ele>
        <time>2014-09-09T08:02:42.776Z</time>
      </trkpt>
      <trkpt lat="48.67317" lon="2.63505">
        <ele>144</ele>
        <time>2014-09-09T08:02:43.781Z</time>
      </trkpt>
      <trkpt lat="48.6732" lon="2.63517">
        <ele>145</ele>
        <time>2014-09-09T08:02:50.772Z</time>
      </trkpt>
      <trkpt lat="48.6732" lon="2.63519">
        <ele>144</ele>
        <time>2014-09-09T08:02:51.768Z</time>
      </trkpt>
      <trkpt lat="48.67324" lon="2.6353">
        <ele>138</ele>
        <time>2014-09-09T08:02:59.789Z</time>
      </trkpt>
      <trkpt lat="48.67325" lon="2.63531">
        <ele>139</ele>
        <time>2014-09-09T08:03:00.785Z</time>
      </trkpt>
      <trkpt lat="48.67328" lon="2.63543">
        <ele>138</ele>
        <time>2014-09-09T08:03:08.773Z</time>
      </trkpt>
      <trkpt lat="48.67328" lon="2.63544">
        <ele>138</ele>
        <time>2014-09-09T08:03:09.777Z</time>
      </trkpt>
      <trkpt lat="48.67333" lon="2.63555">
        <ele>140</ele>
        <time>2014-09-09T08:03:16.776Z</time>
      </trkpt>
      <trkpt lat="48.67333" lon="2.63558">
        <ele>140</ele>
        <time>2014-09-09T08:03:17.822Z</time>
      </trkpt>
      <trkpt lat="48.67336" lon="2.6357">
        <ele>138</ele>
        <time>2014-09-09T08:03:24.473Z</time>
      </trkpt>
      <trkpt lat="48.67337" lon="2.63571">
        <ele>138</ele>
        <time>2014-09-09T08:03:24.786Z</time>
      </trkpt>
      <trkpt lat="48.67341" lon="2.63583">
        <ele>137</ele>
        <time>2014-09-09T08:03:35.733Z</time>
      </trkpt>
      <trkpt lat="48.67342" lon="2.63585">
        <ele>137</ele>
        <time>2014-09-09T08:03:36.769Z</time>
      </trkpt>
      <trkpt lat="48.67347" lon="2.63594">
        <ele>135</ele>
        <time>2014-09-09T08:03:42.781Z</time>
      </trkpt>
      <trkpt lat="48.67347" lon="2.63596">
        <ele>136</ele>
        <time>2014-09-09T08:03:43.772Z</time>
      </trkpt>
      <trkpt lat="48.6735" lon="2.63607">
        <ele>135</ele>
        <time>2014-09-09T08:03:50.777Z</time>
      </trkpt>
      <trkpt lat="48.67351" lon="2.63609">
        <ele>135</ele>
        <time>2014-09-09T08:03:51.783Z</time>
      </trkpt>
      <trkpt lat="48.67355" lon="2.6362">
        <ele>135</ele>
        <time>2014-09-09T08:03:58.733Z</time>
      </trkpt>
      <trkpt lat="48.67356" lon="2.63621">
        <ele>135</ele>
        <time>2014-09-09T08:03:59.773Z</time>
      </trkpt>
      <trkpt lat="48.67359" lon="2.63633">
        <ele>133</ele>
        <time>2014-09-09T08:04:06.742Z</time>
      </trkpt>
      <trkpt lat="48.67359" lon="2.63635">
        <ele>133</ele>
        <time>2014-09-09T08:04:07.780Z</time>
      </trkpt>
      <trkpt lat="48.67363" lon="2.63647">
        <ele>135</ele>
        <time>2014-09-09T08:04:14.769Z</time>
      </trkpt>
      <trkpt lat="48.67363" lon="2.63649">
        <ele>135</ele>
        <time>2014-09-09T08:04:15.770Z</time>
      </trkpt>
      <trkpt lat="48.67366" lon="2.63661">
        <ele>133</ele>
        <time>2014-09-09T08:04:22.768Z</time>
      </trkpt>
      <trkpt lat="48.67367" lon="2.63662">
        <ele>134</ele>
        <time>2014-09-09T08:04:23.765Z</time>
      </trkpt>
      <trkpt lat="48.67371" lon="2.63673">
        <ele>141</ele>
        <time>2014-09-09T08:04:30.782Z</time>
      </trkpt>
      <trkpt lat="48.67372" lon="2.63675">
        <ele>142</ele>
        <time>2014-09-09T08:04:31.788Z</time>
      </trkpt>
      <trkpt lat="48.67376" lon="2.63686">
        <ele>142</ele>
        <time>2014-09-09T08:04:37.784Z</time>
      </trkpt>
      <trkpt lat="48.67377" lon="2.63688">
        <ele>142</ele>
        <time>2014-09-09T08:04:38.774Z</time>
      </trkpt>
      <trkpt lat="48.67382" lon="2.63697">
        <ele>141</ele>
        <time>2014-09-09T08:04:44.773Z</time>
      </trkpt>
      <trkpt lat="48.67383" lon="2.63699">
        <ele>139</ele>
        <time>2014-09-09T08:04:45.803Z</time>
      </trkpt>
      <trkpt lat="48.67385" lon="2.63712">
        <ele>140</ele>
        <time>2014-09-09T08:04:52.788Z</time>
      </trkpt>
      <trkpt lat="48.67386" lon="2.63713">
        <ele>141</ele>
        <time>2014-09-09T08:04:53.783Z</time>
      </trkpt>
      <trkpt lat="48.6739" lon="2.63725">
        <ele>139</ele>
        <time>2014-09-09T08:05:02.776Z</time>
      </trkpt>
      <trkpt lat="48.67389" lon="2.63726">
        <ele>139</ele>
        <time>2014-09-09T08:05:03.783Z</time>
      </trkpt>
      <trkpt lat="48.67392" lon="2.63737">
        <ele>140</ele>
        <time>2014-09-09T08:05:18.782Z</time>
      </trkpt>
      <trkpt lat="48.67392" lon="2.63739">
        <ele>140</ele>
        <time>2014-09-09T08:05:19.773Z</time>
      </trkpt>
      <trkpt lat="48.67397" lon="2.63749">
        <ele>140</ele>
        <time>2014-09-09T08:05:25.777Z</time>
      </trkpt>
      <trkpt lat="48.67398" lon="2.63751">
        <ele>140</ele>
        <time>2014-09-09T08:05:26.799Z</time>
      </trkpt>
      <trkpt lat="48.67401" lon="2.63763">
        <ele>139</ele>
        <time>2014-09-09T08:05:32.778Z</time>
      </trkpt>
      <trkpt lat="48.67402" lon="2.63765">
        <ele>140</ele>
        <time>2014-09-09T08:05:33.764Z</time>
      </trkpt>
      <trkpt lat="48.67406" lon="2.63777">
        <ele>137</ele>
        <time>2014-09-09T08:05:39.744Z</time>
      </trkpt>
      <trkpt lat="48.67407" lon="2.63779">
        <ele>137</ele>
        <time>2014-09-09T08:05:40.771Z</time>
      </trkpt>
      <trkpt lat="48.67409" lon="2.63791">
        <ele>139</ele>
        <time>2014-09-09T08:05:46.740Z</time>
      </trkpt>
      <trkpt lat="48.6741" lon="2.63793">
        <ele>139</ele>
        <time>2014-09-09T08:05:47.768Z</time>
      </trkpt>
      <trkpt lat="48.67413" lon="2.63803">
        <ele>139</ele>
        <time>2014-09-09T08:05:53.778Z</time>
      </trkpt>
      <trkpt lat="48.67414" lon="2.63805">
        <ele>139</ele>
        <time>2014-09-09T08:05:54.739Z</time>
      </trkpt>
      <trkpt lat="48.67418" lon="2.63817">
        <ele>141</ele>
        <time>2014-09-09T08:06:00.778Z</time>
      </trkpt>
      <trkpt lat="48.67419" lon="2.63818">
        <ele>141</ele>
        <time>2014-09-09T08:06:01.783Z</time>
      </trkpt>
      <trkpt lat="48.67425" lon="2.63825">
        <ele>138</ele>
        <time>2014-09-09T08:06:07.770Z</time>
      </trkpt>
      <trkpt lat="48.67425" lon="2.63827">
        <ele>138</ele>
        <time>2014-09-09T08:06:08.784Z</time>
      </trkpt>
      <trkpt lat="48.67429" lon="2.63839">
        <ele>139</ele>
        <time>2014-09-09T08:06:15.742Z</time>
      </trkpt>
      <trkpt lat="48.67429" lon="2.6384">
        <ele>138</ele>
        <time>2014-09-09T08:06:16.767Z</time>
      </trkpt>
      <trkpt lat="48.67433" lon="2.63851">
        <ele>140</ele>
        <time>2014-09-09T08:06:22.741Z</time>
      </trkpt>
      <trkpt lat="48.67433" lon="2.63852">
        <ele>138</ele>
        <time>2014-09-09T08:06:23.739Z</time>
      </trkpt>
      <trkpt lat="48.67438" lon="2.63863">
        <ele>139</ele>
        <time>2014-09-09T08:06:29.783Z</time>
      </trkpt>
      <trkpt lat="48.67438" lon="2.63865">
        <ele>138</ele>
        <time>2014-09-09T08:06:30.779Z</time>
      </trkpt>
      <trkpt lat="48.67442" lon="2.63875">
        <ele>140</ele>
        <time>2014-09-09T08:06:37.783Z</time>
      </trkpt>
      <trkpt lat="48.67443" lon="2.63877">
        <ele>140</ele>
        <time>2014-09-09T08:06:38.781Z</time>
      </trkpt>
      <trkpt lat="48.67448" lon="2.63887">
        <ele>140</ele>
        <time>2014-09-09T08:06:45.754Z</time>
      </trkpt>
      <trkpt lat="48.67448" lon="2.63889">
        <ele>137</ele>
        <time>2014-09-09T08:06:46.738Z</time>
      </trkpt>
      <trkpt lat="48.6745" lon="2.63901">
        <ele>138</ele>
        <time>2014-09-09T08:06:53.757Z</time>
      </trkpt>
      <trkpt lat="48.6745" lon="2.63903">
        <ele>138</ele>
        <time>2014-09-09T08:06:54.734Z</time>
      </trkpt>
      <trkpt lat="48.67454" lon="2.63913">
        <ele>141</ele>
        <time>2014-09-09T08:07:01.736Z</time>
      </trkpt>
      <trkpt lat="48.67454" lon="2.63915">
        <ele>141</ele>
        <time>2014-09-09T08:07:02.813Z</time>
      </trkpt>
      <trkpt lat="48.67458" lon="2.63926">
        <ele>140</ele>
        <time>2014-09-09T08:07:09.766Z</time>
      </trkpt>
      <trkpt lat="48.67459" lon="2.63928">
        <ele>141</ele>
        <time>2014-09-09T08:07:10.767Z</time>
      </trkpt>
      <trkpt lat="48.67463" lon="2.63939">
        <ele>140</ele>
        <time>2014-09-09T08:07:17.769Z</time>
      </trkpt>
      <trkpt lat="48.67463" lon="2.63941">
        <ele>140</ele>
        <time>2014-09-09T08:07:18.770Z</time>
      </trkpt>
      <trkpt lat="48.67466" lon="2.63951">
        <ele>142</ele>
        <time>2014-09-09T08:07:27.745Z</time>
      </trkpt>
      <trkpt lat="48.67467" lon="2.63953">
        <ele>141</ele>
        <time>2014-09-09T08:07:28.797Z</time>
      </trkpt>
      <trkpt lat="48.6747" lon="2.63964">
        <ele>139</ele>
        <time>2014-09-09T08:07:34.746Z</time>
      </trkpt>
      <trkpt lat="48.67471" lon="2.63966">
        <ele>139</ele>
        <time>2014-09-09T08:07:35.766Z</time>
      </trkpt>
      <trkpt lat="48.67474" lon="2.63978">
        <ele>139</ele>
        <time>2014-09-09T08:07:42.748Z</time>
      </trkpt>
      <trkpt lat="48.67474" lon="2.63979">
        <ele>139</ele>
        <time>2014-09-09T08:07:43.770Z</time>
      </trkpt>
      <trkpt lat="48.67477" lon="2.63991">
        <ele>142</ele>
        <time>2014-09-09T08:07:50.735Z</time>
      </trkpt>
      <trkpt lat="48.67478" lon="2.63993">
        <ele>142</ele>
        <time>2014-09-09T08:07:51.783Z</time>
      </trkpt>
      <trkpt lat="48.67482" lon="2.64006">
        <ele>139</ele>
        <time>2014-09-09T08:07:59.772Z</time>
      </trkpt>
      <trkpt lat="48.67482" lon="2.64007">
        <ele>139</ele>
        <time>2014-09-09T08:08:00.783Z</time>
      </trkpt>
      <trkpt lat="48.67484" lon="2.6402">
        <ele>137</ele>
        <time>2014-09-09T08:08:07.780Z</time>
      </trkpt>
      <trkpt lat="48.67485" lon="2.64022">
        <ele>137</ele>
        <time>2014-09-09T08:08:08.774Z</time>
      </trkpt>
      <trkpt lat="48.67486" lon="2.64035">
        <ele>139</ele>
        <time>2014-09-09T08:08:15.775Z</time>
      </trkpt>
      <trkpt lat="48.67486" lon="2.64037">
        <ele>140</ele>
        <time>2014-09-09T08:08:16.782Z</time>
      </trkpt>
      <trkpt lat="48.67489" lon="2.64049">
        <ele>140</ele>
        <time>2014-09-09T08:08:23.784Z</time>
      </trkpt>
      <trkpt lat="48.6749" lon="2.6405">
        <ele>139</ele>
        <time>2014-09-09T08:08:24.783Z</time>
      </trkpt>
      <trkpt lat="48.67494" lon="2.64062">
        <ele>139</ele>
        <time>2014-09-09T08:08:32.796Z</time>
      </trkpt>
      <trkpt lat="48.67494" lon="2.64064">
        <ele>139</ele>
        <time>2014-09-09T08:08:33.778Z</time>
      </trkpt>
      <trkpt lat="48.67497" lon="2.64076">
        <ele>139</ele>
        <time>2014-09-09T08:08:41.777Z</time>
      </trkpt>
      <trkpt lat="48.67497" lon="2.64078">
        <ele>140</ele>
        <time>2014-09-09T08:08:42.779Z</time>
      </trkpt>
      <trkpt lat="48.675" lon="2.6409">
        <ele>138</ele>
        <time>2014-09-09T08:08:48.754Z</time>
      </trkpt>
      <trkpt lat="48.675" lon="2.64092">
        <ele>139</ele>
        <time>2014-09-09T08:08:49.736Z</time>
      </trkpt>
      <trkpt lat="48.67502" lon="2.64104">
        <ele>136</ele>
        <time>2014-09-09T08:08:56.753Z</time>
      </trkpt>
      <trkpt lat="48.67502" lon="2.64106">
        <ele>137</ele>
        <time>2014-09-09T08:08:57.785Z</time>
      </trkpt>
      <trkpt lat="48.67505" lon="2.64117">
        <ele>140</ele>
        <time>2014-09-09T08:09:03.763Z</time>
      </trkpt>
      <trkpt lat="48.67505" lon="2.64118">
        <ele>139</ele>
        <time>2014-09-09T08:09:04.786Z</time>
      </trkpt>
      <trkpt lat="48.67508" lon="2.64131">
        <ele>140</ele>
        <time>2014-09-09T08:09:11.784Z</time>
      </trkpt>
      <trkpt lat="48.67508" lon="2.64133">
        <ele>140</ele>
        <time>2014-09-09T08:09:12.778Z</time>
      </trkpt>
      <trkpt lat="48.67511" lon="2.64144">
        <ele>141</ele>
        <time>2014-09-09T08:09:18.783Z</time>
      </trkpt>
      <trkpt lat="48.67512" lon="2.64146">
        <ele>142</ele>
        <time>2014-09-09T08:09:19.781Z</time>
      </trkpt>
      <trkpt lat="48.67514" lon="2.64158">
        <ele>141</ele>
        <time>2014-09-09T08:09:26.775Z</time>
      </trkpt>
      <trkpt lat="48.67514" lon="2.6416">
        <ele>140</ele>
        <time>2014-09-09T08:09:27.799Z</time>
      </trkpt>
      <trkpt lat="48.67516" lon="2.64172">
        <ele>141</ele>
        <time>2014-09-09T08:09:34.759Z</time>
      </trkpt>
      <trkpt lat="48.67516" lon="2.64174">
        <ele>141</ele>
        <time>2014-09-09T08:09:35.770Z</time>
      </trkpt>
      <trkpt lat="48.67518" lon="2.64185">
        <ele>141</ele>
        <time>2014-09-09T08:09:41.782Z</time>
      </trkpt>
      <trkpt lat="48.67518" lon="2.64187">
        <ele>139</ele>
        <time>2014-09-09T08:09:42.778Z</time>
      </trkpt>
      <trkpt lat="48.6752" lon="2.64199">
        <ele>136</ele>
        <time>2014-09-09T08:09:48.774Z</time>
      </trkpt>
      <trkpt lat="48.6752" lon="2.64201">
        <ele>138</ele>
        <time>2014-09-09T08:09:49.787Z</time>
      </trkpt>
      <trkpt lat="48.67521" lon="2.64214">
        <ele>136</ele>
        <time>2014-09-09T08:09:56.783Z</time>
      </trkpt>
      <trkpt lat="48.67522" lon="2.64215">
        <ele>136</ele>
        <time>2014-09-09T08:09:57.740Z</time>
      </trkpt>
      <trkpt lat="48.67525" lon="2.64227">
        <ele>139</ele>
        <time>2014-09-09T08:10:04.778Z</time>
      </trkpt>
      <trkpt lat="48.67526" lon="2.64229">
        <ele>139</ele>
        <time>2014-09-09T08:10:05.781Z</time>
      </trkpt>
      <trkpt lat="48.67527" lon="2.64242">
        <ele>137</ele>
        <time>2014-09-09T08:10:12.744Z</time>
      </trkpt>
      <trkpt lat="48.67528" lon="2.64244">
        <ele>137</ele>
        <time>2014-09-09T08:10:13.783Z</time>
      </trkpt>
      <trkpt lat="48.6753" lon="2.64255">
        <ele>137</ele>
        <time>2014-09-09T08:10:20.795Z</time>
      </trkpt>
      <trkpt lat="48.67531" lon="2.64257">
        <ele>137</ele>
        <time>2014-09-09T08:10:21.768Z</time>
      </trkpt>
      <trkpt lat="48.67534" lon="2.64268">
        <ele>136</ele>
        <time>2014-09-09T08:10:28.737Z</time>
      </trkpt>
      <trkpt lat="48.67534" lon="2.6427">
        <ele>136</ele>
        <time>2014-09-09T08:10:29.783Z</time>
      </trkpt>
      <trkpt lat="48.67535" lon="2.64283">
        <ele>137</ele>
        <time>2014-09-09T08:10:35.757Z</time>
      </trkpt>
      <trkpt lat="48.67536" lon="2.64284">
        <ele>137</ele>
        <time>2014-09-09T08:10:36.783Z</time>
      </trkpt>
      <trkpt lat="48.67539" lon="2.64296">
        <ele>141</ele>
        <time>2014-09-09T08:10:43.784Z</time>
      </trkpt>
      <trkpt lat="48.67539" lon="2.64298">
        <ele>140</ele>
        <time>2014-09-09T08:10:44.782Z</time>
      </trkpt>
      <trkpt lat="48.6754" lon="2.6431">
        <ele>137</ele>
        <time>2014-09-09T08:10:51.739Z</time>
      </trkpt>
      <trkpt lat="48.6754" lon="2.64312">
        <ele>137</ele>
        <time>2014-09-09T08:10:52.791Z</time>
      </trkpt>
      <trkpt lat="48.67543" lon="2.64324">
        <ele>136</ele>
        <time>2014-09-09T08:10:59.769Z</time>
      </trkpt>
      <trkpt lat="48.67543" lon="2.64326">
        <ele>135</ele>
        <time>2014-09-09T08:11:00.768Z</time>
      </trkpt>
      <trkpt lat="48.67545" lon="2.64338">
        <ele>135</ele>
        <time>2014-09-09T08:11:07.772Z</time>
      </trkpt>
      <trkpt lat="48.67545" lon="2.6434">
        <ele>134</ele>
        <time>2014-09-09T08:11:08.737Z</time>
      </trkpt>
      <trkpt lat="48.67549" lon="2.64351">
        <ele>137</ele>
        <time>2014-09-09T08:11:15.745Z</time>
      </trkpt>
      <trkpt lat="48.6755" lon="2.64352">
        <ele>137</ele>
        <time>2014-09-09T08:11:16.781Z</time>
      </trkpt>
      <trkpt lat="48.67548" lon="2.64365">
        <ele>137</ele>
        <time>2014-09-09T08:11:27.786Z</time>
      </trkpt>
      <trkpt lat="48.67548" lon="2.64367">
        <ele>137</ele>
        <time>2014-09-09T08:11:28.754Z</time>
      </trkpt>
      <trkpt lat="48.67545" lon="2.64378">
        <ele>135</ele>
        <time>2014-09-09T08:11:37.782Z</time>
      </trkpt>
      <trkpt lat="48.67544" lon="2.6438">
        <ele>135</ele>
        <time>2014-09-09T08:11:38.781Z</time>
      </trkpt>
      <trkpt lat="48.6754" lon="2.64391">
        <ele>138</ele>
        <time>2014-09-09T08:11:46.776Z</time>
      </trkpt>
      <trkpt lat="48.6754" lon="2.64392">
        <ele>138</ele>
        <time>2014-09-09T08:11:47.774Z</time>
      </trkpt>
      <trkpt lat="48.67539" lon="2.64404">
        <ele>142</ele>
        <time>2014-09-09T08:13:04.779Z</time>
      </trkpt>
      <trkpt lat="48.6754" lon="2.64406">
        <ele>143</ele>
        <time>2014-09-09T08:13:05.751Z</time>
      </trkpt>
      <trkpt lat="48.67548" lon="2.6441">
        <ele>141</ele>
        <time>2014-09-09T08:13:21.776Z</time>
      </trkpt>
      <trkpt lat="48.67549" lon="2.6441">
        <ele>141</ele>
        <time>2014-09-09T08:13:22.766Z</time>
      </trkpt>
      <trkpt lat="48.67557" lon="2.64408">
        <ele>141</ele>
        <time>2014-09-09T08:13:28.769Z</time>
      </trkpt>
      <trkpt lat="48.67558" lon="2.64408">
        <ele>141</ele>
        <time>2014-09-09T08:13:29.781Z</time>
      </trkpt>
      <trkpt lat="48.67566" lon="2.64405">
        <ele>139</ele>
        <time>2014-09-09T08:13:48.748Z</time>
      </trkpt>
      <trkpt lat="48.67568" lon="2.64405">
        <ele>139</ele>
        <time>2014-09-09T08:13:49.781Z</time>
      </trkpt>
      <trkpt lat="48.67576" lon="2.64403">
        <ele>138</ele>
        <time>2014-09-09T08:13:58.738Z</time>
      </trkpt>
      <trkpt lat="48.67578" lon="2.64402">
        <ele>140</ele>
        <time>2014-09-09T08:13:59.750Z</time>
      </trkpt>
      <trkpt lat="48.67586" lon="2.64402">
        <ele>141</ele>
        <time>2014-09-09T08:14:04.747Z</time>
      </trkpt>
      <trkpt lat="48.67588" lon="2.64402">
        <ele>142</ele>
        <time>2014-09-09T08:14:05.784Z</time>
      </trkpt>
      <trkpt lat="48.67596" lon="2.64402">
        <ele>142</ele>
        <time>2014-09-09T08:14:14.780Z</time>
      </trkpt>
      <trkpt lat="48.67597" lon="2.64402">
        <ele>142</ele>
        <time>2014-09-09T08:14:15.776Z</time>
      </trkpt>
      <trkpt lat="48.67605" lon="2.64401">
        <ele>141</ele>
        <time>2014-09-09T08:14:23.777Z</time>
      </trkpt>
      <trkpt lat="48.67606" lon="2.64401">
        <ele>142</ele>
        <time>2014-09-09T08:14:24.780Z</time>
      </trkpt>
      <trkpt lat="48.67615" lon="2.64402">
        <ele>140</ele>
        <time>2014-09-09T08:14:32.780Z</time>
      </trkpt>
      <trkpt lat="48.67616" lon="2.64402">
        <ele>140</ele>
        <time>2014-09-09T08:14:33.794Z</time>
      </trkpt>
      <trkpt lat="48.67624" lon="2.64405">
        <ele>140</ele>
        <time>2014-09-09T08:14:49.785Z</time>
      </trkpt>
      <trkpt lat="48.67625" lon="2.64405">
        <ele>141</ele>
        <time>2014-09-09T08:14:50.743Z</time>
      </trkpt>
      <trkpt lat="48.67633" lon="2.64405">
        <ele>140</ele>
        <time>2014-09-09T08:14:58.778Z</time>
      </trkpt>
      <trkpt lat="48.67634" lon="2.64405">
        <ele>140</ele>
        <time>2014-09-09T08:14:59.786Z</time>
      </trkpt>
      <trkpt lat="48.67643" lon="2.64405">
        <ele>141</ele>
        <time>2014-09-09T08:15:07.787Z</time>
      </trkpt>
      <trkpt lat="48.67644" lon="2.64405">
        <ele>141</ele>
        <time>2014-09-09T08:15:08.783Z</time>
      </trkpt>
      <trkpt lat="48.67652" lon="2.64405">
        <ele>139</ele>
        <time>2014-09-09T08:15:16.784Z</time>
      </trkpt>
      <trkpt lat="48.67653" lon="2.64405">
        <ele>139</ele>
        <time>2014-09-09T08:15:17.784Z</time>
      </trkpt>
      <trkpt lat="48.67661" lon="2.64404">
        <ele>139</ele>
        <time>2014-09-09T08:15:24.735Z</time>
      </trkpt>
      <trkpt lat="48.67662" lon="2.64404">
        <ele>139</ele>
        <time>2014-09-09T08:15:25.751Z</time>
      </trkpt>
      <trkpt lat="48.6767" lon="2.64403">
        <ele>139</ele>
        <time>2014-09-09T08:15:32.779Z</time>
      </trkpt>
      <trkpt lat="48.67671" lon="2.64403">
        <ele>139</ele>
        <time>2014-09-09T08:15:33.763Z</time>
      </trkpt>
      <trkpt lat="48.6768" lon="2.64402">
        <ele>138</ele>
        <time>2014-09-09T08:15:40.744Z</time>
      </trkpt>
      <trkpt lat="48.67681" lon="2.64402">
        <ele>138</ele>
        <time>2014-09-09T08:15:41.787Z</time>
      </trkpt>
      <trkpt lat="48.67688" lon="2.644">
        <ele>138</ele>
        <time>2014-09-09T08:15:48.784Z</time>
      </trkpt>
      <trkpt lat="48.6769" lon="2.64399">
        <ele>138</ele>
        <time>2014-09-09T08:15:49.779Z</time>
      </trkpt>
      <trkpt lat="48.67698" lon="2.644">
        <ele>138</ele>
        <time>2014-09-09T08:15:56.785Z</time>
      </trkpt>
      <trkpt lat="48.67699" lon="2.644">
        <ele>139</ele>
        <time>2014-09-09T08:15:57.785Z</time>
      </trkpt>
      <trkpt lat="48.67707" lon="2.64401">
        <ele>139</ele>
        <time>2014-09-09T08:16:06.809Z</time>
      </trkpt>
      <trkpt lat="48.67708" lon="2.64401">
        <ele>139</ele>
        <time>2014-09-09T08:16:07.783Z</time>
      </trkpt>
      <trkpt lat="48.67716" lon="2.64406">
        <ele>138</ele>
        <time>2014-09-09T08:16:21.773Z</time>
      </trkpt>
      <trkpt lat="48.67717" lon="2.64406">
        <ele>138</ele>
        <time>2014-09-09T08:16:22.777Z</time>
      </trkpt>
      <trkpt lat="48.67725" lon="2.64403">
        <ele>138</ele>
        <time>2014-09-09T08:16:28.772Z</time>
      </trkpt>
      <trkpt lat="48.67727" lon="2.64403">
        <ele>138</ele>
        <time>2014-09-09T08:16:29.775Z</time>
      </trkpt>
      <trkpt lat="48.67735" lon="2.64402">
        <ele>138</ele>
        <time>2014-09-09T08:16:36.740Z</time>
      </trkpt>
      <trkpt lat="48.67736" lon="2.64402">
        <ele>137</ele>
        <time>2014-09-09T08:16:37.781Z</time>
      </trkpt>
      <trkpt lat="48.67745" lon="2.64403">
        <ele>138</ele>
        <time>2014-09-09T08:16:44.784Z</time>
      </trkpt>
      <trkpt lat="48.67746" lon="2.64403">
        <ele>138</ele>
        <time>2014-09-09T08:16:45.781Z</time>
      </trkpt>
      <trkpt lat="48.67755" lon="2.64403">
        <ele>138</ele>
        <time>2014-09-09T08:16:53.778Z</time>
      </trkpt>
      <trkpt lat="48.67756" lon="2.64403">
        <ele>138</ele>
        <time>2014-09-09T08:16:54.745Z</time>
      </trkpt>
      <trkpt lat="48.67764" lon="2.64403">
        <ele>139</ele>
        <time>2014-09-09T08:17:01.783Z</time>
      </trkpt>
      <trkpt lat="48.67765" lon="2.64403">
        <ele>139</ele>
        <time>2014-09-09T08:17:02.783Z</time>
      </trkpt>
      <trkpt lat="48.67772" lon="2.64403">
        <ele>138</ele>
        <time>2014-09-09T08:17:08.778Z</time>
      </trkpt>
      <trkpt lat="48.67774" lon="2.64402">
        <ele>138</ele>
        <time>2014-09-09T08:17:09.781Z</time>
      </trkpt>
      <trkpt lat="48.67783" lon="2.644">
        <ele>138</ele>
        <time>2014-09-09T08:17:16.764Z</time>
      </trkpt>
      <trkpt lat="48.67784" lon="2.644">
        <ele>138</ele>
        <time>2014-09-09T08:17:17.736Z</time>
      </trkpt>
      <trkpt lat="48.67792" lon="2.64401">
        <ele>136</ele>
        <time>2014-09-09T08:17:24.778Z</time>
      </trkpt>
      <trkpt lat="48.67794" lon="2.64401">
        <ele>136</ele>
        <time>2014-09-09T08:17:25.780Z</time>
      </trkpt>
      <trkpt lat="48.67802" lon="2.64401">
        <ele>136</ele>
        <time>2014-09-09T08:17:35.520Z</time>
      </trkpt>
      <trkpt lat="48.67803" lon="2.64401">
        <ele>136</ele>
        <time>2014-09-09T08:17:35.737Z</time>
      </trkpt>
      <trkpt lat="48.67812" lon="2.64402">
        <ele>135</ele>
        <time>2014-09-09T08:17:44.783Z</time>
      </trkpt>
      <trkpt lat="48.67813" lon="2.64402">
        <ele>136</ele>
        <time>2014-09-09T08:17:45.778Z</time>
      </trkpt>
      <trkpt lat="48.67822" lon="2.64403">
        <ele>136</ele>
        <time>2014-09-09T08:17:52.760Z</time>
      </trkpt>
      <trkpt lat="48.67823" lon="2.64403">
        <ele>136</ele>
        <time>2014-09-09T08:17:53.764Z</time>
      </trkpt>
      <trkpt lat="48.67831" lon="2.64405">
        <ele>137</ele>
        <time>2014-09-09T08:18:02.784Z</time>
      </trkpt>
      <trkpt lat="48.67832" lon="2.64405">
        <ele>137</ele>
        <time>2014-09-09T08:18:03.785Z</time>
      </trkpt>
      <trkpt lat="48.67841" lon="2.64408">
        <ele>136</ele>
        <time>2014-09-09T08:18:13.776Z</time>
      </trkpt>
      <trkpt lat="48.67842" lon="2.64409">
        <ele>136</ele>
        <time>2014-09-09T08:18:14.773Z</time>
      </trkpt>
      <trkpt lat="48.6785" lon="2.64407">
        <ele>135</ele>
        <time>2014-09-09T08:18:25.783Z</time>
      </trkpt>
      <trkpt lat="48.67851" lon="2.64408">
        <ele>136</ele>
        <time>2014-09-09T08:18:26.741Z</time>
      </trkpt>
      <trkpt lat="48.67859" lon="2.64409">
        <ele>136</ele>
        <time>2014-09-09T08:18:42.773Z</time>
      </trkpt>
      <trkpt lat="48.6786" lon="2.64409">
        <ele>137</ele>
        <time>2014-09-09T08:18:43.774Z</time>
      </trkpt>
      <trkpt lat="48.67868" lon="2.64409">
        <ele>134</ele>
        <time>2014-09-09T08:18:54.781Z</time>
      </trkpt>
      <trkpt lat="48.67869" lon="2.64408">
        <ele>134</ele>
        <time>2014-09-09T08:18:55.758Z</time>
      </trkpt>
      <trkpt lat="48.67877" lon="2.64409">
        <ele>133</ele>
        <time>2014-09-09T08:19:04.781Z</time>
      </trkpt>
      <trkpt lat="48.67878" lon="2.64409">
        <ele>133</ele>
        <time>2014-09-09T08:19:05.781Z</time>
      </trkpt>
      <trkpt lat="48.67887" lon="2.64412">
        <ele>134</ele>
        <time>2014-09-09T08:19:14.780Z</time>
      </trkpt>
      <trkpt lat="48.67887" lon="2.64412">
        <ele>134</ele>
        <time>2014-09-09T08:19:15.768Z</time>
      </trkpt>
      <trkpt lat="48.67893" lon="2.64421">
        <ele>137</ele>
        <time>2014-09-09T08:19:25.754Z</time>
      </trkpt>
      <trkpt lat="48.67894" lon="2.64423">
        <ele>137</ele>
        <time>2014-09-09T08:19:26.777Z</time>
      </trkpt>
      <trkpt lat="48.67901" lon="2.64415">
        <ele>136</ele>
        <time>2014-09-09T08:20:33.806Z</time>
      </trkpt>
      <trkpt lat="48.67901" lon="2.64415">
        <ele>136</ele>
        <time>2014-09-09T08:20:34.777Z</time>
      </trkpt>
      <trkpt lat="48.67909" lon="2.64409">
        <ele>136</ele>
        <time>2014-09-09T08:39:39.775Z</time>
      </trkpt>
      <trkpt lat="48.6791" lon="2.64409">
        <ele>137</ele>
        <time>2014-09-09T08:39:40.738Z</time>
      </trkpt>
      <trkpt lat="48.67918" lon="2.64409">
        <ele>135</ele>
        <time>2014-09-09T08:39:49.750Z</time>
      </trkpt>
      <trkpt lat="48.67919" lon="2.64409">
        <ele>136</ele>
        <time>2014-09-09T08:39:50.769Z</time>
      </trkpt>
      <trkpt lat="48.67928" lon="2.64408">
        <ele>134</ele>
        <time>2014-09-09T08:40:02.765Z</time>
      </trkpt>
      <trkpt lat="48.67929" lon="2.64408">
        <ele>134</ele>
        <time>2014-09-09T08:40:03.738Z</time>
      </trkpt>
      <trkpt lat="48.67937" lon="2.64405">
        <ele>137</ele>
        <time>2014-09-09T08:40:15.774Z</time>
      </trkpt>
      <trkpt lat="48.67937" lon="2.64405">
        <ele>137</ele>
        <time>2014-09-09T08:40:16.737Z</time>
      </trkpt>
      <trkpt lat="48.67945" lon="2.64401">
        <ele>140</ele>
        <time>2014-09-09T08:40:25.766Z</time>
      </trkpt>
      <trkpt lat="48.67946" lon="2.644">
        <ele>140</ele>
        <time>2014-09-09T08:40:26.806Z</time>
      </trkpt>
      <trkpt lat="48.67954" lon="2.64399">
        <ele>139</ele>
        <time>2014-09-09T08:40:35.784Z</time>
      </trkpt>
      <trkpt lat="48.67955" lon="2.64399">
        <ele>139</ele>
        <time>2014-09-09T08:40:36.783Z</time>
      </trkpt>
      <trkpt lat="48.67963" lon="2.64395">
        <ele>137</ele>
        <time>2014-09-09T08:40:48.734Z</time>
      </trkpt>
      <trkpt lat="48.67964" lon="2.64395">
        <ele>138</ele>
        <time>2014-09-09T08:40:49.778Z</time>
      </trkpt>
      <trkpt lat="48.67972" lon="2.64392">
        <ele>137</ele>
        <time>2014-09-09T08:40:58.752Z</time>
      </trkpt>
      <trkpt lat="48.67973" lon="2.64391">
        <ele>136</ele>
        <time>2014-09-09T08:40:59.771Z</time>
      </trkpt>
      <trkpt lat="48.67981" lon="2.64389">
        <ele>135</ele>
        <time>2014-09-09T08:41:08.811Z</time>
      </trkpt>
      <trkpt lat="48.67982" lon="2.64388">
        <ele>135</ele>
        <time>2014-09-09T08:41:09.758Z</time>
      </trkpt>
      <trkpt lat="48.67991" lon="2.64385">
        <ele>134</ele>
        <time>2014-09-09T08:41:18.782Z</time>
      </trkpt>
      <trkpt lat="48.67992" lon="2.64385">
        <ele>134</ele>
        <time>2014-09-09T08:41:19.782Z</time>
      </trkpt>
      <trkpt lat="48.68" lon="2.64382">
        <ele>133</ele>
        <time>2014-09-09T08:41:28.780Z</time>
      </trkpt>
      <trkpt lat="48.68001" lon="2.64382">
        <ele>133</ele>
        <time>2014-09-09T08:41:29.780Z</time>
      </trkpt>
      <trkpt lat="48.68009" lon="2.64379">
        <ele>132</ele>
        <time>2014-09-09T08:41:37.736Z</time>
      </trkpt>
      <trkpt lat="48.6801" lon="2.64378">
        <ele>131</ele>
        <time>2014-09-09T08:41:38.779Z</time>
      </trkpt>
      <trkpt lat="48.68018" lon="2.64375">
        <ele>132</ele>
        <time>2014-09-09T08:41:46.783Z</time>
      </trkpt>
      <trkpt lat="48.68019" lon="2.64374">
        <ele>132</ele>
        <time>2014-09-09T08:41:47.787Z</time>
      </trkpt>
      <trkpt lat="48.68027" lon="2.64371">
        <ele>133</ele>
        <time>2014-09-09T08:41:55.737Z</time>
      </trkpt>
      <trkpt lat="48.68028" lon="2.6437">
        <ele>133</ele>
        <time>2014-09-09T08:41:56.738Z</time>
      </trkpt>
      <trkpt lat="48.68036" lon="2.64366">
        <ele>132</ele>
        <time>2014-09-09T08:42:03.773Z</time>
      </trkpt>
      <trkpt lat="48.68037" lon="2.64366">
        <ele>132</ele>
        <time>2014-09-09T08:42:04.783Z</time>
      </trkpt>
      <trkpt lat="48.68044" lon="2.6436">
        <ele>132</ele>
        <time>2014-09-09T08:42:12.811Z</time>
      </trkpt>
      <trkpt lat="48.68045" lon="2.6436">
        <ele>132</ele>
        <time>2014-09-09T08:42:13.742Z</time>
      </trkpt>
      <trkpt lat="48.68053" lon="2.64354">
        <ele>132</ele>
        <time>2014-09-09T08:42:20.787Z</time>
      </trkpt>
      <trkpt lat="48.68054" lon="2.64353">
        <ele>133</ele>
        <time>2014-09-09T08:42:21.754Z</time>
      </trkpt>
      <trkpt lat="48.6806" lon="2.64347">
        <ele>132</ele>
        <time>2014-09-09T08:42:29.740Z</time>
      </trkpt>
      <trkpt lat="48.68061" lon="2.64346">
        <ele>132</ele>
        <time>2014-09-09T08:42:30.785Z</time>
      </trkpt>
      <trkpt lat="48.68069" lon="2.64342">
        <ele>134</ele>
        <time>2014-09-09T08:42:37.747Z</time>
      </trkpt>
      <trkpt lat="48.6807" lon="2.64341">
        <ele>134</ele>
        <time>2014-09-09T08:42:38.777Z</time>
      </trkpt>
      <trkpt lat="48.68078" lon="2.64336">
        <ele>131</ele>
        <time>2014-09-09T08:42:45.773Z</time>
      </trkpt>
      <trkpt lat="48.68079" lon="2.64336">
        <ele>131</ele>
        <time>2014-09-09T08:42:46.783Z</time>
      </trkpt>
      <trkpt lat="48.68086" lon="2.64329">
        <ele>130</ele>
        <time>2014-09-09T08:42:55.776Z</time>
      </trkpt>
      <trkpt lat="48.68086" lon="2.64328">
        <ele>130</ele>
        <time>2014-09-09T08:42:56.773Z</time>
      </trkpt>
      <trkpt lat="48.68094" lon="2.64323">
        <ele>131</ele>
        <time>2014-09-09T08:43:09.786Z</time>
      </trkpt>
      <trkpt lat="48.68095" lon="2.64322">
        <ele>131</ele>
        <time>2014-09-09T08:43:10.784Z</time>
      </trkpt>
      <trkpt lat="48.68103" lon="2.64319">
        <ele>131</ele>
        <time>2014-09-09T08:43:20.781Z</time>
      </trkpt>
      <trkpt lat="48.68104" lon="2.64319">
        <ele>132</ele>
        <time>2014-09-09T08:43:21.783Z</time>
      </trkpt>
      <trkpt lat="48.68113" lon="2.64317">
        <ele>131</ele>
        <time>2014-09-09T08:43:31.772Z</time>
      </trkpt>
      <trkpt lat="48.68114" lon="2.64317">
        <ele>131</ele>
        <time>2014-09-09T08:43:32.779Z</time>
      </trkpt>
      <trkpt lat="48.68123" lon="2.64316">
        <ele>132</ele>
        <time>2014-09-09T08:43:41.741Z</time>
      </trkpt>
      <trkpt lat="48.68124" lon="2.64315">
        <ele>132</ele>
        <time>2014-09-09T08:43:42.783Z</time>
      </trkpt>
      <trkpt lat="48.68131" lon="2.64313">
        <ele>130</ele>
        <time>2014-09-09T08:43:48.740Z</time>
      </trkpt>
      <trkpt lat="48.68133" lon="2.64313">
        <ele>131</ele>
        <time>2014-09-09T08:43:49.782Z</time>
      </trkpt>
      <trkpt lat="48.68141" lon="2.64311">
        <ele>131</ele>
        <time>2014-09-09T08:43:56.783Z</time>
      </trkpt>
      <trkpt lat="48.68142" lon="2.64311">
        <ele>132</ele>
        <time>2014-09-09T08:43:57.784Z</time>
      </trkpt>
      <trkpt lat="48.6815" lon="2.64306">
        <ele>131</ele>
        <time>2014-09-09T08:44:06.738Z</time>
      </trkpt>
      <trkpt lat="48.68151" lon="2.64306">
        <ele>131</ele>
        <time>2014-09-09T08:44:07.778Z</time>
      </trkpt>
      <trkpt lat="48.68159" lon="2.64301">
        <ele>130</ele>
        <time>2014-09-09T08:44:16.765Z</time>
      </trkpt>
      <trkpt lat="48.6816" lon="2.643">
        <ele>130</ele>
        <time>2014-09-09T08:44:17.770Z</time>
      </trkpt>
      <trkpt lat="48.68167" lon="2.64293">
        <ele>131</ele>
        <time>2014-09-09T08:44:29.778Z</time>
      </trkpt>
      <trkpt lat="48.68168" lon="2.64292">
        <ele>129</ele>
        <time>2014-09-09T08:44:30.764Z</time>
      </trkpt>
      <trkpt lat="48.68174" lon="2.64284">
        <ele>133</ele>
        <time>2014-09-09T08:44:42.758Z</time>
      </trkpt>
      <trkpt lat="48.68175" lon="2.64283">
        <ele>133</ele>
        <time>2014-09-09T08:44:43.779Z</time>
      </trkpt>
      <trkpt lat="48.6818" lon="2.64294">
        <ele>131</ele>
        <time>2014-09-09T08:45:19.748Z</time>
      </trkpt>
      <trkpt lat="48.6818" lon="2.64294">
        <ele>131</ele>
        <time>2014-09-09T08:45:20.777Z</time>
      </trkpt>
      <trkpt lat="48.68179" lon="2.64307">
        <ele>132</ele>
        <time>2014-09-09T08:45:53.786Z</time>
      </trkpt>
      <trkpt lat="48.68179" lon="2.64309">
        <ele>132</ele>
        <time>2014-09-09T08:45:54.782Z</time>
      </trkpt>
      <trkpt lat="48.68183" lon="2.64298">
        <ele>133</ele>
        <time>2014-09-09T08:46:44.737Z</time>
      </trkpt>
      <trkpt lat="48.68183" lon="2.64296">
        <ele>133</ele>
        <time>2014-09-09T08:46:45.771Z</time>
      </trkpt>
      <trkpt lat="48.68187" lon="2.64284">
        <ele>133</ele>
        <time>2014-09-09T08:46:54.782Z</time>
      </trkpt>
      <trkpt lat="48.68187" lon="2.64283">
        <ele>133</ele>
        <time>2014-09-09T08:46:55.783Z</time>
      </trkpt>
      <trkpt lat="48.68191" lon="2.64272">
        <ele>133</ele>
        <time>2014-09-09T08:47:03.768Z</time>
      </trkpt>
      <trkpt lat="48.68191" lon="2.64271">
        <ele>133</ele>
        <time>2014-09-09T08:47:04.775Z</time>
      </trkpt>
      <trkpt lat="48.68195" lon="2.64259">
        <ele>132</ele>
        <time>2014-09-09T08:47:12.782Z</time>
      </trkpt>
      <trkpt lat="48.68195" lon="2.64257">
        <ele>132</ele>
        <time>2014-09-09T08:47:13.797Z</time>
      </trkpt>
      <trkpt lat="48.68198" lon="2.64244">
        <ele>132</ele>
        <time>2014-09-09T08:47:21.788Z</time>
      </trkpt>
      <trkpt lat="48.68198" lon="2.64243">
        <ele>132</ele>
        <time>2014-09-09T08:47:22.807Z</time>
      </trkpt>
      <trkpt lat="48.68202" lon="2.64232">
        <ele>133</ele>
        <time>2014-09-09T08:47:30.772Z</time>
      </trkpt>
      <trkpt lat="48.68202" lon="2.6423">
        <ele>134</ele>
        <time>2014-09-09T08:47:31.782Z</time>
      </trkpt>
      <trkpt lat="48.68205" lon="2.64218">
        <ele>136</ele>
        <time>2014-09-09T08:47:39.769Z</time>
      </trkpt>
      <trkpt lat="48.68206" lon="2.64216">
        <ele>136</ele>
        <time>2014-09-09T08:47:40.782Z</time>
      </trkpt>
      <trkpt lat="48.68209" lon="2.64203">
        <ele>135</ele>
        <time>2014-09-09T08:47:48.767Z</time>
      </trkpt>
      <trkpt lat="48.68209" lon="2.64202">
        <ele>135</ele>
        <time>2014-09-09T08:47:49.737Z</time>
      </trkpt>
      <trkpt lat="48.68212" lon="2.64189">
        <ele>134</ele>
        <time>2014-09-09T08:47:57.739Z</time>
      </trkpt>
      <trkpt lat="48.68212" lon="2.64188">
        <ele>133</ele>
        <time>2014-09-09T08:47:58.784Z</time>
      </trkpt>
      <trkpt lat="48.68215" lon="2.64176">
        <ele>132</ele>
        <time>2014-09-09T08:48:06.742Z</time>
      </trkpt>
      <trkpt lat="48.68216" lon="2.64175">
        <ele>132</ele>
        <time>2014-09-09T08:48:07.780Z</time>
      </trkpt>
      <trkpt lat="48.68218" lon="2.64164">
        <ele>134</ele>
        <time>2014-09-09T08:48:14.771Z</time>
      </trkpt>
      <trkpt lat="48.68219" lon="2.64162">
        <ele>134</ele>
        <time>2014-09-09T08:48:15.739Z</time>
      </trkpt>
      <trkpt lat="48.68222" lon="2.6415">
        <ele>133</ele>
        <time>2014-09-09T08:48:23.774Z</time>
      </trkpt>
      <trkpt lat="48.68222" lon="2.64148">
        <ele>133</ele>
        <time>2014-09-09T08:48:24.785Z</time>
      </trkpt>
      <trkpt lat="48.68225" lon="2.64136">
        <ele>134</ele>
        <time>2014-09-09T08:48:32.783Z</time>
      </trkpt>
      <trkpt lat="48.68225" lon="2.64135">
        <ele>135</ele>
        <time>2014-09-09T08:48:33.784Z</time>
      </trkpt>
      <trkpt lat="48.68229" lon="2.64123">
        <ele>134</ele>
        <time>2014-09-09T08:48:41.767Z</time>
      </trkpt>
      <trkpt lat="48.68229" lon="2.64121">
        <ele>134</ele>
        <time>2014-09-09T08:48:42.753Z</time>
      </trkpt>
      <trkpt lat="48.68233" lon="2.6411">
        <ele>136</ele>
        <time>2014-09-09T08:48:49.781Z</time>
      </trkpt>
      <trkpt lat="48.68233" lon="2.64108">
        <ele>137</ele>
        <time>2014-09-09T08:48:50.778Z</time>
      </trkpt>
      <trkpt lat="48.68235" lon="2.64096">
        <ele>140</ele>
        <time>2014-09-09T08:48:58.738Z</time>
      </trkpt>
      <trkpt lat="48.68235" lon="2.64095">
        <ele>139</ele>
        <time>2014-09-09T08:48:59.777Z</time>
      </trkpt>
      <trkpt lat="48.68237" lon="2.64082">
        <ele>140</ele>
        <time>2014-09-09T08:49:07.778Z</time>
      </trkpt>
      <trkpt lat="48.68237" lon="2.64081">
        <ele>140</ele>
        <time>2014-09-09T08:49:08.784Z</time>
      </trkpt>
      <trkpt lat="48.68239" lon="2.64067">
        <ele>140</ele>
        <time>2014-09-09T08:49:17.777Z</time>
      </trkpt>
      <trkpt lat="48.68239" lon="2.64066">
        <ele>140</ele>
        <time>2014-09-09T08:49:18.769Z</time>
      </trkpt>
      <trkpt lat="48.68243" lon="2.64055">
        <ele>138</ele>
        <time>2014-09-09T08:49:25.770Z</time>
      </trkpt>
      <trkpt lat="48.68244" lon="2.64054">
        <ele>138</ele>
        <time>2014-09-09T08:49:26.773Z</time>
      </trkpt>
      <trkpt lat="48.68246" lon="2.64042">
        <ele>138</ele>
        <time>2014-09-09T08:49:34.781Z</time>
      </trkpt>
      <trkpt lat="48.68247" lon="2.6404">
        <ele>137</ele>
        <time>2014-09-09T08:49:35.767Z</time>
      </trkpt>
      <trkpt lat="48.68249" lon="2.64028">
        <ele>138</ele>
        <time>2014-09-09T08:49:43.776Z</time>
      </trkpt>
      <trkpt lat="48.68249" lon="2.64026">
        <ele>138</ele>
        <time>2014-09-09T08:49:44.772Z</time>
      </trkpt>
      <trkpt lat="48.68253" lon="2.64014">
        <ele>139</ele>
        <time>2014-09-09T08:49:53.484Z</time>
      </trkpt>
      <trkpt lat="48.68254" lon="2.64013">
        <ele>138</ele>
        <time>2014-09-09T08:49:53.756Z</time>
      </trkpt>
      <trkpt lat="48.68257" lon="2.64002">
        <ele>140</ele>
        <time>2014-09-09T08:50:00.756Z</time>
      </trkpt>
      <trkpt lat="48.68258" lon="2.64">
        <ele>140</ele>
        <time>2014-09-09T08:50:01.768Z</time>
      </trkpt>
      <trkpt lat="48.68259" lon="2.63987">
        <ele>141</ele>
        <time>2014-09-09T08:50:09.781Z</time>
      </trkpt>
      <trkpt lat="48.68259" lon="2.63986">
        <ele>142</ele>
        <time>2014-09-09T08:50:10.737Z</time>
      </trkpt>
      <trkpt lat="48.68261" lon="2.63973">
        <ele>142</ele>
        <time>2014-09-09T08:50:18.778Z</time>
      </trkpt>
      <trkpt lat="48.68262" lon="2.63971">
        <ele>142</ele>
        <time>2014-09-09T08:50:19.774Z</time>
      </trkpt>
      <trkpt lat="48.68264" lon="2.6396">
        <ele>143</ele>
        <time>2014-09-09T08:50:26.782Z</time>
      </trkpt>
      <trkpt lat="48.68265" lon="2.63958">
        <ele>143</ele>
        <time>2014-09-09T08:50:27.775Z</time>
      </trkpt>
      <trkpt lat="48.68268" lon="2.63946">
        <ele>142</ele>
        <time>2014-09-09T08:50:35.740Z</time>
      </trkpt>
      <trkpt lat="48.68268" lon="2.63944">
        <ele>142</ele>
        <time>2014-09-09T08:50:36.768Z</time>
      </trkpt>
      <trkpt lat="48.68272" lon="2.63933">
        <ele>144</ele>
        <time>2014-09-09T08:50:45.777Z</time>
      </trkpt>
      <trkpt lat="48.68272" lon="2.63931">
        <ele>143</ele>
        <time>2014-09-09T08:50:46.767Z</time>
      </trkpt>
      <trkpt lat="48.68273" lon="2.63918">
        <ele>147</ele>
        <time>2014-09-09T08:51:05.749Z</time>
      </trkpt>
      <trkpt lat="48.68273" lon="2.63917">
        <ele>146</ele>
        <time>2014-09-09T08:51:06.771Z</time>
      </trkpt>
      <trkpt lat="48.68277" lon="2.63905">
        <ele>146</ele>
        <time>2014-09-09T08:51:16.780Z</time>
      </trkpt>
      <trkpt lat="48.68278" lon="2.63904">
        <ele>146</ele>
        <time>2014-09-09T08:51:17.781Z</time>
      </trkpt>
      <trkpt lat="48.68281" lon="2.63892">
        <ele>149</ele>
        <time>2014-09-09T08:51:25.776Z</time>
      </trkpt>
      <trkpt lat="48.68281" lon="2.63891">
        <ele>150</ele>
        <time>2014-09-09T08:51:26.761Z</time>
      </trkpt>
      <trkpt lat="48.68283" lon="2.63879">
        <ele>149</ele>
        <time>2014-09-09T08:51:34.768Z</time>
      </trkpt>
      <trkpt lat="48.68284" lon="2.63878">
        <ele>149</ele>
        <time>2014-09-09T08:51:35.738Z</time>
      </trkpt>
      <trkpt lat="48.68286" lon="2.63865">
        <ele>147</ele>
        <time>2014-09-09T08:51:43.779Z</time>
      </trkpt>
      <trkpt lat="48.68286" lon="2.63864">
        <ele>147</ele>
        <time>2014-09-09T08:51:44.773Z</time>
      </trkpt>
      <trkpt lat="48.6829" lon="2.63852">
        <ele>146</ele>
        <time>2014-09-09T08:51:52.780Z</time>
      </trkpt>
      <trkpt lat="48.6829" lon="2.6385">
        <ele>147</ele>
        <time>2014-09-09T08:51:53.781Z</time>
      </trkpt>
      <trkpt lat="48.68298" lon="2.63849">
        <ele>147</ele>
        <time>2014-09-09T08:52:18.785Z</time>
      </trkpt>
      <trkpt lat="48.683" lon="2.63849">
        <ele>147</ele>
        <time>2014-09-09T08:52:19.783Z</time>
      </trkpt>
      <trkpt lat="48.68299" lon="2.63863">
        <ele>146</ele>
        <time>2014-09-09T08:52:27.742Z</time>
      </trkpt>
      <trkpt lat="48.68298" lon="2.63864">
        <ele>146</ele>
        <time>2014-09-09T08:52:28.783Z</time>
      </trkpt>
      <trkpt lat="48.68295" lon="2.63876">
        <ele>145</ele>
        <time>2014-09-09T08:52:35.744Z</time>
      </trkpt>
      <trkpt lat="48.68294" lon="2.63878">
        <ele>143</ele>
        <time>2014-09-09T08:52:36.748Z</time>
      </trkpt>
      <trkpt lat="48.68292" lon="2.6389">
        <ele>142</ele>
        <time>2014-09-09T08:52:43.782Z</time>
      </trkpt>
      <trkpt lat="48.68292" lon="2.63892">
        <ele>143</ele>
        <time>2014-09-09T08:52:44.781Z</time>
      </trkpt>
      <trkpt lat="48.6829" lon="2.63903">
        <ele>142</ele>
        <time>2014-09-09T08:52:51.773Z</time>
      </trkpt>
      <trkpt lat="48.6829" lon="2.63905">
        <ele>142</ele>
        <time>2014-09-09T08:52:52.777Z</time>
      </trkpt>
      <trkpt lat="48.68286" lon="2.63917">
        <ele>143</ele>
        <time>2014-09-09T08:52:59.782Z</time>
      </trkpt>
      <trkpt lat="48.68286" lon="2.63919">
        <ele>143</ele>
        <time>2014-09-09T08:53:00.790Z</time>
      </trkpt>
      <trkpt lat="48.68282" lon="2.63931">
        <ele>141</ele>
        <time>2014-09-09T08:53:08.759Z</time>
      </trkpt>
      <trkpt lat="48.68282" lon="2.63933">
        <ele>141</ele>
        <time>2014-09-09T08:53:09.738Z</time>
      </trkpt>
      <trkpt lat="48.68289" lon="2.63941">
        <ele>140</ele>
        <time>2014-09-09T08:53:19.786Z</time>
      </trkpt>
      <trkpt lat="48.6829" lon="2.63941">
        <ele>140</ele>
        <time>2014-09-09T08:53:20.786Z</time>
      </trkpt>
      <trkpt lat="48.68297" lon="2.63946">
        <ele>144</ele>
        <time>2014-09-09T08:53:41.745Z</time>
      </trkpt>
      <trkpt lat="48.68299" lon="2.63946">
        <ele>144</ele>
        <time>2014-09-09T08:53:42.774Z</time>
      </trkpt>
      <trkpt lat="48.68307" lon="2.63948">
        <ele>146</ele>
        <time>2014-09-09T08:53:50.780Z</time>
      </trkpt>
      <trkpt lat="48.68308" lon="2.63948">
        <ele>146</ele>
        <time>2014-09-09T08:53:51.736Z</time>
      </trkpt>
      <trkpt lat="48.68317" lon="2.6395">
        <ele>147</ele>
        <time>2014-09-09T08:53:59.777Z</time>
      </trkpt>
      <trkpt lat="48.68318" lon="2.63951">
        <ele>147</ele>
        <time>2014-09-09T08:54:00.775Z</time>
      </trkpt>
      <trkpt lat="48.68327" lon="2.63953">
        <ele>149</ele>
        <time>2014-09-09T08:54:07.782Z</time>
      </trkpt>
      <trkpt lat="48.68328" lon="2.63953">
        <ele>148</ele>
        <time>2014-09-09T08:54:08.781Z</time>
      </trkpt>
      <trkpt lat="48.68336" lon="2.63955">
        <ele>149</ele>
        <time>2014-09-09T08:54:15.734Z</time>
      </trkpt>
      <trkpt lat="48.68337" lon="2.63955">
        <ele>149</ele>
        <time>2014-09-09T08:54:16.778Z</time>
      </trkpt>
      <trkpt lat="48.68345" lon="2.63957">
        <ele>148</ele>
        <time>2014-09-09T08:54:23.766Z</time>
      </trkpt>
      <trkpt lat="48.68346" lon="2.63957">
        <ele>148</ele>
        <time>2014-09-09T08:54:24.777Z</time>
      </trkpt>
      <trkpt lat="48.68354" lon="2.63961">
        <ele>149</ele>
        <time>2014-09-09T08:54:31.779Z</time>
      </trkpt>
      <trkpt lat="48.68355" lon="2.63961">
        <ele>149</ele>
        <time>2014-09-09T08:54:32.785Z</time>
      </trkpt>
      <trkpt lat="48.68364" lon="2.63964">
        <ele>147</ele>
        <time>2014-09-09T08:54:39.811Z</time>
      </trkpt>
      <trkpt lat="48.68365" lon="2.63964">
        <ele>147</ele>
        <time>2014-09-09T08:54:40.781Z</time>
      </trkpt>
      <trkpt lat="48.68373" lon="2.63965">
        <ele>148</ele>
        <time>2014-09-09T08:54:46.780Z</time>
      </trkpt>
      <trkpt lat="48.68374" lon="2.63966">
        <ele>148</ele>
        <time>2014-09-09T08:54:47.777Z</time>
      </trkpt>
      <trkpt lat="48.68383" lon="2.63968">
        <ele>148</ele>
        <time>2014-09-09T08:54:54.776Z</time>
      </trkpt>
      <trkpt lat="48.68384" lon="2.63969">
        <ele>148</ele>
        <time>2014-09-09T08:54:55.813Z</time>
      </trkpt>
      <trkpt lat="48.68392" lon="2.6397">
        <ele>145</ele>
        <time>2014-09-09T08:55:04.780Z</time>
      </trkpt>
      <trkpt lat="48.68393" lon="2.6397">
        <ele>146</ele>
        <time>2014-09-09T08:55:05.778Z</time>
      </trkpt>
      <trkpt lat="48.68401" lon="2.63972">
        <ele>147</ele>
        <time>2014-09-09T08:55:12.744Z</time>
      </trkpt>
      <trkpt lat="48.68403" lon="2.63972">
        <ele>147</ele>
        <time>2014-09-09T08:55:13.740Z</time>
      </trkpt>
      <trkpt lat="48.68411" lon="2.63975">
        <ele>146</ele>
        <time>2014-09-09T08:55:20.810Z</time>
      </trkpt>
      <trkpt lat="48.68412" lon="2.63975">
        <ele>145</ele>
        <time>2014-09-09T08:55:21.741Z</time>
      </trkpt>
      <trkpt lat="48.6842" lon="2.63976">
        <ele>146</ele>
        <time>2014-09-09T08:55:27.783Z</time>
      </trkpt>
      <trkpt lat="48.68421" lon="2.63976">
        <ele>145</ele>
        <time>2014-09-09T08:55:28.787Z</time>
      </trkpt>
      <trkpt lat="48.68429" lon="2.63977">
        <ele>145</ele>
        <time>2014-09-09T08:55:35.745Z</time>
      </trkpt>
      <trkpt lat="48.6843" lon="2.63977">
        <ele>145</ele>
        <time>2014-09-09T08:55:36.774Z</time>
      </trkpt>
      <trkpt lat="48.68439" lon="2.6398">
        <ele>142</ele>
        <time>2014-09-09T08:55:44.776Z</time>
      </trkpt>
      <trkpt lat="48.6844" lon="2.6398">
        <ele>143</ele>
        <time>2014-09-09T08:55:45.797Z</time>
      </trkpt>
      <trkpt lat="48.68449" lon="2.6398">
        <ele>140</ele>
        <time>2014-09-09T08:55:53.737Z</time>
      </trkpt>
      <trkpt lat="48.6845" lon="2.6398">
        <ele>140</ele>
        <time>2014-09-09T08:55:54.756Z</time>
      </trkpt>
      <trkpt lat="48.68459" lon="2.6398">
        <ele>138</ele>
        <time>2014-09-09T08:56:02.763Z</time>
      </trkpt>
      <trkpt lat="48.6846" lon="2.63981">
        <ele>138</ele>
        <time>2014-09-09T08:56:03.767Z</time>
      </trkpt>
      <trkpt lat="48.68468" lon="2.63984">
        <ele>138</ele>
        <time>2014-09-09T08:56:10.742Z</time>
      </trkpt>
      <trkpt lat="48.68469" lon="2.63984">
        <ele>138</ele>
        <time>2014-09-09T08:56:11.783Z</time>
      </trkpt>
      <trkpt lat="48.68478" lon="2.63986">
        <ele>137</ele>
        <time>2014-09-09T08:56:18.781Z</time>
      </trkpt>
      <trkpt lat="48.68479" lon="2.63986">
        <ele>138</ele>
        <time>2014-09-09T08:56:19.784Z</time>
      </trkpt>
      <trkpt lat="48.68487" lon="2.63989">
        <ele>137</ele>
        <time>2014-09-09T08:56:25.735Z</time>
      </trkpt>
      <trkpt lat="48.68488" lon="2.63989">
        <ele>137</ele>
        <time>2014-09-09T08:56:26.770Z</time>
      </trkpt>
      <trkpt lat="48.68496" lon="2.63991">
        <ele>135</ele>
        <time>2014-09-09T08:56:32.741Z</time>
      </trkpt>
      <trkpt lat="48.68497" lon="2.63992">
        <ele>134</ele>
        <time>2014-09-09T08:56:33.807Z</time>
      </trkpt>
      <trkpt lat="48.68506" lon="2.63995">
        <ele>135</ele>
        <time>2014-09-09T08:56:40.787Z</time>
      </trkpt>
      <trkpt lat="48.68507" lon="2.63996">
        <ele>135</ele>
        <time>2014-09-09T08:56:41.773Z</time>
      </trkpt>
      <trkpt lat="48.68515" lon="2.63997">
        <ele>135</ele>
        <time>2014-09-09T08:56:49.765Z</time>
      </trkpt>
      <trkpt lat="48.68516" lon="2.63998">
        <ele>135</ele>
        <time>2014-09-09T08:56:50.733Z</time>
      </trkpt>
      <trkpt lat="48.68524" lon="2.63995">
        <ele>135</ele>
        <time>2014-09-09T08:56:58.784Z</time>
      </trkpt>
      <trkpt lat="48.68525" lon="2.63994">
        <ele>135</ele>
        <time>2014-09-09T08:56:59.783Z</time>
      </trkpt>
      <trkpt lat="48.68532" lon="2.63986">
        <ele>138</ele>
        <time>2014-09-09T08:57:06.770Z</time>
      </trkpt>
      <trkpt lat="48.68533" lon="2.63985">
        <ele>137</ele>
        <time>2014-09-09T08:57:07.780Z</time>
      </trkpt>
      <trkpt lat="48.68538" lon="2.63974">
        <ele>137</ele>
        <time>2014-09-09T08:57:14.798Z</time>
      </trkpt>
      <trkpt lat="48.68538" lon="2.63972">
        <ele>137</ele>
        <time>2014-09-09T08:57:15.797Z</time>
      </trkpt>
      <trkpt lat="48.68543" lon="2.63962">
        <ele>138</ele>
        <time>2014-09-09T08:57:22.774Z</time>
      </trkpt>
      <trkpt lat="48.68543" lon="2.6396">
        <ele>138</ele>
        <time>2014-09-09T08:57:23.777Z</time>
      </trkpt>
      <trkpt lat="48.68546" lon="2.63949">
        <ele>139</ele>
        <time>2014-09-09T08:57:31.785Z</time>
      </trkpt>
      <trkpt lat="48.68546" lon="2.63947">
        <ele>139</ele>
        <time>2014-09-09T08:57:32.773Z</time>
      </trkpt>
      <trkpt lat="48.6855" lon="2.63935">
        <ele>135</ele>
        <time>2014-09-09T08:57:40.775Z</time>
      </trkpt>
      <trkpt lat="48.6855" lon="2.63933">
        <ele>134</ele>
        <time>2014-09-09T08:57:41.737Z</time>
      </trkpt>
      <trkpt lat="48.68553" lon="2.63921">
        <ele>134</ele>
        <time>2014-09-09T08:57:47.738Z</time>
      </trkpt>
      <trkpt lat="48.68553" lon="2.63919">
        <ele>134</ele>
        <time>2014-09-09T08:57:48.733Z</time>
      </trkpt>
      <trkpt lat="48.68557" lon="2.63907">
        <ele>133</ele>
        <time>2014-09-09T08:57:55.785Z</time>
      </trkpt>
      <trkpt lat="48.68558" lon="2.63906">
        <ele>135</ele>
        <time>2014-09-09T08:57:56.745Z</time>
      </trkpt>
      <trkpt lat="48.68561" lon="2.63894">
        <ele>135</ele>
        <time>2014-09-09T08:58:03.752Z</time>
      </trkpt>
      <trkpt lat="48.68562" lon="2.63893">
        <ele>135</ele>
        <time>2014-09-09T08:58:04.783Z</time>
      </trkpt>
      <trkpt lat="48.68566" lon="2.63881">
        <ele>136</ele>
        <time>2014-09-09T08:58:13.782Z</time>
      </trkpt>
      <trkpt lat="48.68566" lon="2.6388">
        <ele>136</ele>
        <time>2014-09-09T08:58:14.768Z</time>
      </trkpt>
      <trkpt lat="48.68571" lon="2.63869">
        <ele>136</ele>
        <time>2014-09-09T08:58:21.788Z</time>
      </trkpt>
      <trkpt lat="48.68572" lon="2.63868">
        <ele>136</ele>
        <time>2014-09-09T08:58:22.771Z</time>
      </trkpt>
      <trkpt lat="48.68578" lon="2.63859">
        <ele>135</ele>
        <time>2014-09-09T08:58:29.786Z</time>
      </trkpt>
      <trkpt lat="48.68579" lon="2.63858">
        <ele>136</ele>
        <time>2014-09-09T08:58:30.770Z</time>
      </trkpt>
      <trkpt lat="48.68588" lon="2.63855">
        <ele>136</ele>
        <time>2014-09-09T08:58:40.785Z</time>
      </trkpt>
      <trkpt lat="48.68589" lon="2.63856">
        <ele>135</ele>
        <time>2014-09-09T08:58:41.787Z</time>
      </trkpt>
      <trkpt lat="48.68596" lon="2.63863">
        <ele>137</ele>
        <time>2014-09-09T08:58:51.780Z</time>
      </trkpt>
      <trkpt lat="48.68597" lon="2.63864">
        <ele>138</ele>
        <time>2014-09-09T08:58:52.783Z</time>
      </trkpt>
      <trkpt lat="48.68603" lon="2.63871">
        <ele>141</ele>
        <time>2014-09-09T08:59:01.781Z</time>
      </trkpt>
      <trkpt lat="48.68605" lon="2.63872">
        <ele>142</ele>
        <time>2014-09-09T08:59:02.780Z</time>
      </trkpt>
      <trkpt lat="48.68611" lon="2.63876">
        <ele>145</ele>
        <time>2014-09-09T08:59:08.487Z</time>
      </trkpt>
      <trkpt lat="48.68613" lon="2.63877">
        <ele>147</ele>
        <time>2014-09-09T08:59:08.755Z</time>
      </trkpt>
      <trkpt lat="48.68619" lon="2.63885">
        <ele>151</ele>
        <time>2014-09-09T08:59:13.783Z</time>
      </trkpt>
      <trkpt lat="48.6862" lon="2.63886">
        <ele>152</ele>
        <time>2014-09-09T08:59:14.781Z</time>
      </trkpt>
      <trkpt lat="48.68626" lon="2.63896">
        <ele>152</ele>
        <time>2014-09-09T08:59:20.778Z</time>
      </trkpt>
      <trkpt lat="48.68627" lon="2.63898">
        <ele>153</ele>
        <time>2014-09-09T08:59:21.783Z</time>
      </trkpt>
      <trkpt lat="48.68627" lon="2.63911">
        <ele>147</ele>
        <time>2014-09-09T08:59:29.742Z</time>
      </trkpt>
      <trkpt lat="48.68626" lon="2.63912">
        <ele>147</ele>
        <time>2014-09-09T08:59:30.779Z</time>
      </trkpt>
      <trkpt lat="48.68618" lon="2.63915">
        <ele>143</ele>
        <time>2014-09-09T08:59:39.780Z</time>
      </trkpt>
      <trkpt lat="48.68617" lon="2.63916">
        <ele>143</ele>
        <time>2014-09-09T08:59:40.778Z</time>
      </trkpt>
      <trkpt lat="48.68612" lon="2.63926">
        <ele>142</ele>
        <time>2014-09-09T08:59:49.783Z</time>
      </trkpt>
      <trkpt lat="48.68611" lon="2.63928">
        <ele>142</ele>
        <time>2014-09-09T08:59:50.782Z</time>
      </trkpt>
      <trkpt lat="48.68606" lon="2.63937">
        <ele>141</ele>
        <time>2014-09-09T08:59:56.785Z</time>
      </trkpt>
      <trkpt lat="48.68605" lon="2.63939">
        <ele>141</ele>
        <time>2014-09-09T08:59:57.741Z</time>
      </trkpt>
      <trkpt lat="48.68599" lon="2.63948">
        <ele>140</ele>
        <time>2014-09-09T09:00:04.771Z</time>
      </trkpt>
      <trkpt lat="48.68599" lon="2.63949">
        <ele>140</ele>
        <time>2014-09-09T09:00:05.778Z</time>
      </trkpt>
      <trkpt lat="48.68594" lon="2.63959">
        <ele>139</ele>
        <time>2014-09-09T09:00:12.784Z</time>
      </trkpt>
      <trkpt lat="48.68593" lon="2.63961">
        <ele>139</ele>
        <time>2014-09-09T09:00:13.781Z</time>
      </trkpt>
      <trkpt lat="48.68588" lon="2.63971">
        <ele>139</ele>
        <time>2014-09-09T09:00:20.786Z</time>
      </trkpt>
      <trkpt lat="48.68588" lon="2.63972">
        <ele>139</ele>
        <time>2014-09-09T09:00:21.787Z</time>
      </trkpt>
      <trkpt lat="48.68583" lon="2.63982">
        <ele>138</ele>
        <time>2014-09-09T09:00:27.786Z</time>
      </trkpt>
      <trkpt lat="48.68582" lon="2.63983">
        <ele>138</ele>
        <time>2014-09-09T09:00:28.786Z</time>
      </trkpt>
      <trkpt lat="48.68577" lon="2.63993">
        <ele>136</ele>
        <time>2014-09-09T09:00:35.759Z</time>
      </trkpt>
      <trkpt lat="48.68576" lon="2.63994">
        <ele>137</ele>
        <time>2014-09-09T09:00:36.786Z</time>
      </trkpt>
      <trkpt lat="48.68571" lon="2.64005">
        <ele>136</ele>
        <time>2014-09-09T09:00:44.812Z</time>
      </trkpt>
      <trkpt lat="48.6857" lon="2.64007">
        <ele>136</ele>
        <time>2014-09-09T09:00:45.740Z</time>
      </trkpt>
      <trkpt lat="48.68566" lon="2.64018">
        <ele>135</ele>
        <time>2014-09-09T09:00:52.740Z</time>
      </trkpt>
      <trkpt lat="48.68565" lon="2.6402">
        <ele>135</ele>
        <time>2014-09-09T09:00:53.784Z</time>
      </trkpt>
      <trkpt lat="48.68559" lon="2.6403">
        <ele>134</ele>
        <time>2014-09-09T09:01:00.786Z</time>
      </trkpt>
      <trkpt lat="48.68559" lon="2.64031">
        <ele>134</ele>
        <time>2014-09-09T09:01:01.786Z</time>
      </trkpt>
      <trkpt lat="48.68555" lon="2.64041">
        <ele>134</ele>
        <time>2014-09-09T09:01:08.784Z</time>
      </trkpt>
      <trkpt lat="48.68554" lon="2.64043">
        <ele>134</ele>
        <time>2014-09-09T09:01:09.794Z</time>
      </trkpt>
      <trkpt lat="48.68549" lon="2.64052">
        <ele>134</ele>
        <time>2014-09-09T09:01:16.743Z</time>
      </trkpt>
      <trkpt lat="48.68548" lon="2.64053">
        <ele>133</ele>
        <time>2014-09-09T09:01:17.741Z</time>
      </trkpt>
      <trkpt lat="48.68542" lon="2.64061">
        <ele>132</ele>
        <time>2014-09-09T09:01:24.753Z</time>
      </trkpt>
      <trkpt lat="48.68541" lon="2.64062">
        <ele>132</ele>
        <time>2014-09-09T09:01:25.785Z</time>
      </trkpt>
      <trkpt lat="48.68533" lon="2.64066">
        <ele>132</ele>
        <time>2014-09-09T09:01:34.785Z</time>
      </trkpt>
      <trkpt lat="48.68532" lon="2.64066">
        <ele>132</ele>
        <time>2014-09-09T09:01:35.741Z</time>
      </trkpt>
      <trkpt lat="48.68529" lon="2.64054">
        <ele>134</ele>
        <time>2014-09-09T09:01:44.791Z</time>
      </trkpt>
      <trkpt lat="48.6853" lon="2.64052">
        <ele>134</ele>
        <time>2014-09-09T09:01:45.761Z</time>
      </trkpt>
      <trkpt lat="48.68536" lon="2.64044">
        <ele>134</ele>
        <time>2014-09-09T09:01:52.784Z</time>
      </trkpt>
      <trkpt lat="48.68537" lon="2.64043">
        <ele>134</ele>
        <time>2014-09-09T09:01:53.748Z</time>
      </trkpt>
      <trkpt lat="48.68543" lon="2.64035">
        <ele>136</ele>
        <time>2014-09-09T09:01:59.787Z</time>
      </trkpt>
      <trkpt lat="48.68544" lon="2.64034">
        <ele>134</ele>
        <time>2014-09-09T09:02:00.795Z</time>
      </trkpt>
      <trkpt lat="48.68548" lon="2.64023">
        <ele>135</ele>
        <time>2014-09-09T09:02:09.778Z</time>
      </trkpt>
      <trkpt lat="48.68549" lon="2.64022">
        <ele>134</ele>
        <time>2014-09-09T09:02:10.783Z</time>
      </trkpt>
      <trkpt lat="48.68553" lon="2.64011">
        <ele>134</ele>
        <time>2014-09-09T09:02:19.755Z</time>
      </trkpt>
      <trkpt lat="48.68554" lon="2.64009">
        <ele>133</ele>
        <time>2014-09-09T09:02:20.783Z</time>
      </trkpt>
      <trkpt lat="48.68556" lon="2.63996">
        <ele>138</ele>
        <time>2014-09-09T09:02:27.791Z</time>
      </trkpt>
      <trkpt lat="48.68556" lon="2.63995">
        <ele>138</ele>
        <time>2014-09-09T09:02:28.785Z</time>
      </trkpt>
      <trkpt lat="48.68559" lon="2.63983">
        <ele>138</ele>
        <time>2014-09-09T09:02:35.777Z</time>
      </trkpt>
      <trkpt lat="48.6856" lon="2.63981">
        <ele>138</ele>
        <time>2014-09-09T09:02:36.751Z</time>
      </trkpt>
      <trkpt lat="48.68564" lon="2.6397">
        <ele>135</ele>
        <time>2014-09-09T09:02:44.782Z</time>
      </trkpt>
      <trkpt lat="48.68565" lon="2.63969">
        <ele>135</ele>
        <time>2014-09-09T09:02:45.741Z</time>
      </trkpt>
      <trkpt lat="48.68569" lon="2.63958">
        <ele>134</ele>
        <time>2014-09-09T09:02:53.853Z</time>
      </trkpt>
      <trkpt lat="48.6857" lon="2.63957">
        <ele>136</ele>
        <time>2014-09-09T09:02:54.740Z</time>
      </trkpt>
      <trkpt lat="48.68577" lon="2.6395">
        <ele>134</ele>
        <time>2014-09-09T09:03:01.428Z</time>
      </trkpt>
      <trkpt lat="48.68578" lon="2.63948">
        <ele>132</ele>
        <time>2014-09-09T09:03:01.758Z</time>
      </trkpt>
      <trkpt lat="48.68584" lon="2.63939">
        <ele>129</ele>
        <time>2014-09-09T09:03:07.741Z</time>
      </trkpt>
      <trkpt lat="48.68584" lon="2.63937">
        <ele>130</ele>
        <time>2014-09-09T09:03:08.783Z</time>
      </trkpt>
      <trkpt lat="48.6859" lon="2.63927">
        <ele>127</ele>
        <time>2014-09-09T09:03:15.748Z</time>
      </trkpt>
      <trkpt lat="48.6859" lon="2.63925">
        <ele>127</ele>
        <time>2014-09-09T09:03:16.775Z</time>
      </trkpt>
      <trkpt lat="48.68593" lon="2.63913">
        <ele>129</ele>
        <time>2014-09-09T09:03:23.780Z</time>
      </trkpt>
      <trkpt lat="48.68592" lon="2.63911">
        <ele>129</ele>
        <time>2014-09-09T09:03:24.779Z</time>
      </trkpt>
      <trkpt lat="48.68591" lon="2.63899">
        <ele>131</ele>
        <time>2014-09-09T09:03:31.736Z</time>
      </trkpt>
      <trkpt lat="48.68591" lon="2.63897">
        <ele>133</ele>
        <time>2014-09-09T09:03:32.780Z</time>
      </trkpt>
      <trkpt lat="48.68594" lon="2.63885">
        <ele>138</ele>
        <time>2014-09-09T09:03:40.781Z</time>
      </trkpt>
      <trkpt lat="48.68596" lon="2.63884">
        <ele>137</ele>
        <time>2014-09-09T09:03:41.743Z</time>
      </trkpt>
      <trkpt lat="48.68603" lon="2.63876">
        <ele>140</ele>
        <time>2014-09-09T09:03:47.740Z</time>
      </trkpt>
      <trkpt lat="48.68604" lon="2.63875">
        <ele>141</ele>
        <time>2014-09-09T09:03:48.743Z</time>
      </trkpt>
      <trkpt lat="48.6861" lon="2.63866">
        <ele>141</ele>
        <time>2014-09-09T09:03:55.774Z</time>
      </trkpt>
      <trkpt lat="48.68612" lon="2.63866">
        <ele>143</ele>
        <time>2014-09-09T09:03:56.784Z</time>
      </trkpt>
      <trkpt lat="48.68617" lon="2.63855">
        <ele>141</ele>
        <time>2014-09-09T09:04:02.785Z</time>
      </trkpt>
      <trkpt lat="48.68618" lon="2.63854">
        <ele>141</ele>
        <time>2014-09-09T09:04:03.737Z</time>
      </trkpt>
      <trkpt lat="48.68622" lon="2.63842">
        <ele>140</ele>
        <time>2014-09-09T09:04:12.735Z</time>
      </trkpt>
      <trkpt lat="48.68621" lon="2.63841">
        <ele>139</ele>
        <time>2014-09-09T09:04:13.780Z</time>
      </trkpt>
      <trkpt lat="48.68624" lon="2.63829">
        <ele>139</ele>
        <time>2014-09-09T09:04:22.801Z</time>
      </trkpt>
      <trkpt lat="48.68625" lon="2.63828">
        <ele>138</ele>
        <time>2014-09-09T09:04:23.780Z</time>
      </trkpt>
      <trkpt lat="48.6863" lon="2.63817">
        <ele>138</ele>
        <time>2014-09-09T09:04:30.744Z</time>
      </trkpt>
      <trkpt lat="48.6863" lon="2.63815">
        <ele>137</ele>
        <time>2014-09-09T09:04:31.778Z</time>
      </trkpt>
      <trkpt lat="48.68636" lon="2.63806">
        <ele>137</ele>
        <time>2014-09-09T09:04:38.773Z</time>
      </trkpt>
      <trkpt lat="48.68637" lon="2.63805">
        <ele>138</ele>
        <time>2014-09-09T09:04:39.774Z</time>
      </trkpt>
      <trkpt lat="48.68641" lon="2.63795">
        <ele>135</ele>
        <time>2014-09-09T09:04:45.776Z</time>
      </trkpt>
      <trkpt lat="48.68641" lon="2.63793">
        <ele>134</ele>
        <time>2014-09-09T09:04:46.783Z</time>
      </trkpt>
      <trkpt lat="48.68648" lon="2.63785">
        <ele>137</ele>
        <time>2014-09-09T09:04:52.781Z</time>
      </trkpt>
      <trkpt lat="48.68649" lon="2.63783">
        <ele>138</ele>
        <time>2014-09-09T09:04:53.750Z</time>
      </trkpt>
      <trkpt lat="48.68653" lon="2.63774">
        <ele>139</ele>
        <time>2014-09-09T09:04:59.777Z</time>
      </trkpt>
      <trkpt lat="48.68654" lon="2.63772">
        <ele>139</ele>
        <time>2014-09-09T09:05:00.777Z</time>
      </trkpt>
      <trkpt lat="48.68658" lon="2.63761">
        <ele>138</ele>
        <time>2014-09-09T09:05:08.741Z</time>
      </trkpt>
      <trkpt lat="48.68659" lon="2.6376">
        <ele>139</ele>
        <time>2014-09-09T09:05:09.779Z</time>
      </trkpt>
      <trkpt lat="48.68664" lon="2.63749">
        <ele>138</ele>
        <time>2014-09-09T09:05:17.781Z</time>
      </trkpt>
      <trkpt lat="48.68665" lon="2.63748">
        <ele>138</ele>
        <time>2014-09-09T09:05:18.784Z</time>
      </trkpt>
      <trkpt lat="48.68669" lon="2.63737">
        <ele>138</ele>
        <time>2014-09-09T09:05:24.778Z</time>
      </trkpt>
      <trkpt lat="48.6867" lon="2.63736">
        <ele>138</ele>
        <time>2014-09-09T09:05:25.783Z</time>
      </trkpt>
      <trkpt lat="48.68674" lon="2.63726">
        <ele>137</ele>
        <time>2014-09-09T09:05:33.744Z</time>
      </trkpt>
      <trkpt lat="48.68674" lon="2.63724">
        <ele>139</ele>
        <time>2014-09-09T09:05:34.777Z</time>
      </trkpt>
      <trkpt lat="48.68679" lon="2.63715">
        <ele>136</ele>
        <time>2014-09-09T09:05:40.737Z</time>
      </trkpt>
      <trkpt lat="48.6868" lon="2.63713">
        <ele>136</ele>
        <time>2014-09-09T09:05:41.772Z</time>
      </trkpt>
      <trkpt lat="48.68684" lon="2.63703">
        <ele>136</ele>
        <time>2014-09-09T09:05:47.782Z</time>
      </trkpt>
      <trkpt lat="48.68685" lon="2.63702">
        <ele>134</ele>
        <time>2014-09-09T09:05:48.737Z</time>
      </trkpt>
      <trkpt lat="48.68689" lon="2.63691">
        <ele>134</ele>
        <time>2014-09-09T09:05:55.731Z</time>
      </trkpt>
      <trkpt lat="48.6869" lon="2.6369">
        <ele>133</ele>
        <time>2014-09-09T09:05:56.776Z</time>
      </trkpt>
      <trkpt lat="48.68693" lon="2.63677">
        <ele>133</ele>
        <time>2014-09-09T09:06:04.743Z</time>
      </trkpt>
      <trkpt lat="48.68693" lon="2.63675">
        <ele>135</ele>
        <time>2014-09-09T09:06:05.811Z</time>
      </trkpt>
      <trkpt lat="48.687" lon="2.6367">
        <ele>136</ele>
        <time>2014-09-09T09:06:10.781Z</time>
      </trkpt>
      <trkpt lat="48.68701" lon="2.63668">
        <ele>135</ele>
        <time>2014-09-09T09:06:11.740Z</time>
      </trkpt>
      <trkpt lat="48.68704" lon="2.63656">
        <ele>140</ele>
        <time>2014-09-09T09:06:19.778Z</time>
      </trkpt>
      <trkpt lat="48.68704" lon="2.63654">
        <ele>140</ele>
        <time>2014-09-09T09:06:20.784Z</time>
      </trkpt>
      <trkpt lat="48.68709" lon="2.63643">
        <ele>135</ele>
        <time>2014-09-09T09:06:28.786Z</time>
      </trkpt>
      <trkpt lat="48.6871" lon="2.63642">
        <ele>135</ele>
        <time>2014-09-09T09:06:29.732Z</time>
      </trkpt>
      <trkpt lat="48.68716" lon="2.63632">
        <ele>137</ele>
        <time>2014-09-09T09:06:36.811Z</time>
      </trkpt>
      <trkpt lat="48.68717" lon="2.63631">
        <ele>136</ele>
        <time>2014-09-09T09:06:37.778Z</time>
      </trkpt>
      <trkpt lat="48.68722" lon="2.63621">
        <ele>136</ele>
        <time>2014-09-09T09:06:43.777Z</time>
      </trkpt>
      <trkpt lat="48.68723" lon="2.63619">
        <ele>136</ele>
        <time>2014-09-09T09:06:44.737Z</time>
      </trkpt>
      <trkpt lat="48.68728" lon="2.63609">
        <ele>135</ele>
        <time>2014-09-09T09:06:50.782Z</time>
      </trkpt>
      <trkpt lat="48.68728" lon="2.63607">
        <ele>134</ele>
        <time>2014-09-09T09:06:51.775Z</time>
      </trkpt>
      <trkpt lat="48.68726" lon="2.63595">
        <ele>134</ele>
        <time>2014-09-09T09:06:58.807Z</time>
      </trkpt>
      <trkpt lat="48.68727" lon="2.63593">
        <ele>134</ele>
        <time>2014-09-09T09:06:59.780Z</time>
      </trkpt>
      <trkpt lat="48.68733" lon="2.63585">
        <ele>138</ele>
        <time>2014-09-09T09:07:06.407Z</time>
      </trkpt>
      <trkpt lat="48.68734" lon="2.63584">
        <ele>136</ele>
        <time>2014-09-09T09:07:06.771Z</time>
      </trkpt>
      <trkpt lat="48.68741" lon="2.63575">
        <ele>135</ele>
        <time>2014-09-09T09:07:12.785Z</time>
      </trkpt>
      <trkpt lat="48.68742" lon="2.63573">
        <ele>135</ele>
        <time>2014-09-09T09:07:13.784Z</time>
      </trkpt>
      <trkpt lat="48.68745" lon="2.63562">
        <ele>131</ele>
        <time>2014-09-09T09:07:20.783Z</time>
      </trkpt>
      <trkpt lat="48.68746" lon="2.6356">
        <ele>130</ele>
        <time>2014-09-09T09:07:21.744Z</time>
      </trkpt>
      <trkpt lat="48.68748" lon="2.63549">
        <ele>131</ele>
        <time>2014-09-09T09:07:29.733Z</time>
      </trkpt>
      <trkpt lat="48.68749" lon="2.63547">
        <ele>132</ele>
        <time>2014-09-09T09:07:30.778Z</time>
      </trkpt>
      <trkpt lat="48.68755" lon="2.6354">
        <ele>134</ele>
        <time>2014-09-09T09:07:36.740Z</time>
      </trkpt>
      <trkpt lat="48.68756" lon="2.63538">
        <ele>136</ele>
        <time>2014-09-09T09:07:37.774Z</time>
      </trkpt>
      <trkpt lat="48.68761" lon="2.63528">
        <ele>134</ele>
        <time>2014-09-09T09:07:45.790Z</time>
      </trkpt>
      <trkpt lat="48.68762" lon="2.63526">
        <ele>133</ele>
        <time>2014-09-09T09:07:46.782Z</time>
      </trkpt>
      <trkpt lat="48.6877" lon="2.63518">
        <ele>135</ele>
        <time>2014-09-09T09:07:52.782Z</time>
      </trkpt>
      <trkpt lat="48.6877" lon="2.63516">
        <ele>135</ele>
        <time>2014-09-09T09:07:53.787Z</time>
      </trkpt>
      <trkpt lat="48.68774" lon="2.63504">
        <ele>131</ele>
        <time>2014-09-09T09:08:00.782Z</time>
      </trkpt>
      <trkpt lat="48.68775" lon="2.63502">
        <ele>131</ele>
        <time>2014-09-09T09:08:01.758Z</time>
      </trkpt>
      <trkpt lat="48.6878" lon="2.63492">
        <ele>133</ele>
        <time>2014-09-09T09:08:08.748Z</time>
      </trkpt>
      <trkpt lat="48.68781" lon="2.63491">
        <ele>134</ele>
        <time>2014-09-09T09:08:09.785Z</time>
      </trkpt>
      <trkpt lat="48.68788" lon="2.63484">
        <ele>134</ele>
        <time>2014-09-09T09:08:17.780Z</time>
      </trkpt>
      <trkpt lat="48.68788" lon="2.63483">
        <ele>133</ele>
        <time>2014-09-09T09:08:18.744Z</time>
      </trkpt>
      <trkpt lat="48.68794" lon="2.63474">
        <ele>132</ele>
        <time>2014-09-09T09:08:24.769Z</time>
      </trkpt>
      <trkpt lat="48.68796" lon="2.63473">
        <ele>132</ele>
        <time>2014-09-09T09:08:25.775Z</time>
      </trkpt>
      <trkpt lat="48.68801" lon="2.63462">
        <ele>132</ele>
        <time>2014-09-09T09:08:32.545Z</time>
      </trkpt>
      <trkpt lat="48.68802" lon="2.63461">
        <ele>131</ele>
        <time>2014-09-09T09:08:32.740Z</time>
      </trkpt>
      <trkpt lat="48.68805" lon="2.63448">
        <ele>134</ele>
        <time>2014-09-09T09:08:40.784Z</time>
      </trkpt>
      <trkpt lat="48.68805" lon="2.63446">
        <ele>134</ele>
        <time>2014-09-09T09:08:41.782Z</time>
      </trkpt>
      <trkpt lat="48.68809" lon="2.63435">
        <ele>136</ele>
        <time>2014-09-09T09:08:48.785Z</time>
      </trkpt>
      <trkpt lat="48.6881" lon="2.63433">
        <ele>137</ele>
        <time>2014-09-09T09:08:49.781Z</time>
      </trkpt>
      <trkpt lat="48.68814" lon="2.63422">
        <ele>144</ele>
        <time>2014-09-09T09:08:56.784Z</time>
      </trkpt>
      <trkpt lat="48.68815" lon="2.63421">
        <ele>144</ele>
        <time>2014-09-09T09:08:57.785Z</time>
      </trkpt>
      <trkpt lat="48.68819" lon="2.63409">
        <ele>143</ele>
        <time>2014-09-09T09:09:05.783Z</time>
      </trkpt>
      <trkpt lat="48.6882" lon="2.63408">
        <ele>144</ele>
        <time>2014-09-09T09:09:06.778Z</time>
      </trkpt>
      <trkpt lat="48.68819" lon="2.63394">
        <ele>139</ele>
        <time>2014-09-09T09:09:15.773Z</time>
      </trkpt>
      <trkpt lat="48.68818" lon="2.63394">
        <ele>140</ele>
        <time>2014-09-09T09:09:16.809Z</time>
      </trkpt>
      <trkpt lat="48.68826" lon="2.63388">
        <ele>137</ele>
        <time>2014-09-09T09:09:21.781Z</time>
      </trkpt>
      <trkpt lat="48.68826" lon="2.63386">
        <ele>135</ele>
        <time>2014-09-09T09:09:22.750Z</time>
      </trkpt>
      <trkpt lat="48.6883" lon="2.63376">
        <ele>135</ele>
        <time>2014-09-09T09:09:28.778Z</time>
      </trkpt>
      <trkpt lat="48.68831" lon="2.63375">
        <ele>135</ele>
        <time>2014-09-09T09:09:29.735Z</time>
      </trkpt>
      <trkpt lat="48.68838" lon="2.63368">
        <ele>137</ele>
        <time>2014-09-09T09:09:34.780Z</time>
      </trkpt>
      <trkpt lat="48.6884" lon="2.63366">
        <ele>137</ele>
        <time>2014-09-09T09:09:35.773Z</time>
      </trkpt>
      <trkpt lat="48.68845" lon="2.63359">
        <ele>140</ele>
        <time>2014-09-09T09:09:40.759Z</time>
      </trkpt>
      <trkpt lat="48.68847" lon="2.63358">
        <ele>139</ele>
        <time>2014-09-09T09:09:41.781Z</time>
      </trkpt>
      <trkpt lat="48.68853" lon="2.63349">
        <ele>138</ele>
        <time>2014-09-09T09:09:47.744Z</time>
      </trkpt>
      <trkpt lat="48.68854" lon="2.63348">
        <ele>138</ele>
        <time>2014-09-09T09:09:48.782Z</time>
      </trkpt>
      <trkpt lat="48.6886" lon="2.63338">
        <ele>141</ele>
        <time>2014-09-09T09:09:55.787Z</time>
      </trkpt>
      <trkpt lat="48.6886" lon="2.63337">
        <ele>141</ele>
        <time>2014-09-09T09:09:56.785Z</time>
      </trkpt>
      <trkpt lat="48.68863" lon="2.63324">
        <ele>142</ele>
        <time>2014-09-09T09:10:07.779Z</time>
      </trkpt>
      <trkpt lat="48.68863" lon="2.63323">
        <ele>142</ele>
        <time>2014-09-09T09:10:08.780Z</time>
      </trkpt>
      <trkpt lat="48.68868" lon="2.63312">
        <ele>145</ele>
        <time>2014-09-09T09:10:14.780Z</time>
      </trkpt>
      <trkpt lat="48.68869" lon="2.6331">
        <ele>145</ele>
        <time>2014-09-09T09:10:15.787Z</time>
      </trkpt>
      <trkpt lat="48.68874" lon="2.633">
        <ele>145</ele>
        <time>2014-09-09T09:10:21.781Z</time>
      </trkpt>
      <trkpt lat="48.68874" lon="2.63299">
        <ele>145</ele>
        <time>2014-09-09T09:10:22.760Z</time>
      </trkpt>
      <trkpt lat="48.68878" lon="2.63287">
        <ele>144</ele>
        <time>2014-09-09T09:10:29.784Z</time>
      </trkpt>
      <trkpt lat="48.68879" lon="2.63286">
        <ele>144</ele>
        <time>2014-09-09T09:10:30.781Z</time>
      </trkpt>
      <trkpt lat="48.68885" lon="2.63276">
        <ele>144</ele>
        <time>2014-09-09T09:10:37.784Z</time>
      </trkpt>
      <trkpt lat="48.68885" lon="2.63274">
        <ele>144</ele>
        <time>2014-09-09T09:10:38.741Z</time>
      </trkpt>
      <trkpt lat="48.68889" lon="2.63264">
        <ele>141</ele>
        <time>2014-09-09T09:10:45.750Z</time>
      </trkpt>
      <trkpt lat="48.6889" lon="2.63263">
        <ele>144</ele>
        <time>2014-09-09T09:10:46.777Z</time>
      </trkpt>
      <trkpt lat="48.68896" lon="2.63254">
        <ele>143</ele>
        <time>2014-09-09T09:10:52.776Z</time>
      </trkpt>
      <trkpt lat="48.68896" lon="2.63253">
        <ele>142</ele>
        <time>2014-09-09T09:10:53.782Z</time>
      </trkpt>
      <trkpt lat="48.68901" lon="2.63242">
        <ele>139</ele>
        <time>2014-09-09T09:11:00.776Z</time>
      </trkpt>
      <trkpt lat="48.68902" lon="2.6324">
        <ele>139</ele>
        <time>2014-09-09T09:11:01.758Z</time>
      </trkpt>
      <trkpt lat="48.68908" lon="2.63234">
        <ele>137</ele>
        <time>2014-09-09T09:11:07.740Z</time>
      </trkpt>
      <trkpt lat="48.68909" lon="2.63232">
        <ele>136</ele>
        <time>2014-09-09T09:11:08.779Z</time>
      </trkpt>
      <trkpt lat="48.68914" lon="2.63223">
        <ele>135</ele>
        <time>2014-09-09T09:11:14.738Z</time>
      </trkpt>
      <trkpt lat="48.68915" lon="2.63221">
        <ele>134</ele>
        <time>2014-09-09T09:11:15.776Z</time>
      </trkpt>
      <trkpt lat="48.6892" lon="2.63212">
        <ele>133</ele>
        <time>2014-09-09T09:11:20.790Z</time>
      </trkpt>
      <trkpt lat="48.68921" lon="2.63211">
        <ele>134</ele>
        <time>2014-09-09T09:11:21.783Z</time>
      </trkpt>
      <trkpt lat="48.68924" lon="2.63199">
        <ele>135</ele>
        <time>2014-09-09T09:11:28.811Z</time>
      </trkpt>
      <trkpt lat="48.68924" lon="2.63198">
        <ele>136</ele>
        <time>2014-09-09T09:11:29.743Z</time>
      </trkpt>
      <trkpt lat="48.68929" lon="2.63188">
        <ele>133</ele>
        <time>2014-09-09T09:11:36.746Z</time>
      </trkpt>
      <trkpt lat="48.68929" lon="2.63186">
        <ele>134</ele>
        <time>2014-09-09T09:11:37.739Z</time>
      </trkpt>
      <trkpt lat="48.6893" lon="2.63173">
        <ele>130</ele>
        <time>2014-09-09T09:11:43.740Z</time>
      </trkpt>
      <trkpt lat="48.68931" lon="2.63171">
        <ele>131</ele>
        <time>2014-09-09T09:11:44.785Z</time>
      </trkpt>
      <trkpt lat="48.68936" lon="2.63162">
        <ele>131</ele>
        <time>2014-09-09T09:11:50.781Z</time>
      </trkpt>
      <trkpt lat="48.68937" lon="2.63161">
        <ele>132</ele>
        <time>2014-09-09T09:11:51.783Z</time>
      </trkpt>
      <trkpt lat="48.6894" lon="2.63149">
        <ele>139</ele>
        <time>2014-09-09T09:12:00.741Z</time>
      </trkpt>
      <trkpt lat="48.68941" lon="2.63147">
        <ele>139</ele>
        <time>2014-09-09T09:12:01.819Z</time>
      </trkpt>
      <trkpt lat="48.68945" lon="2.63136">
        <ele>138</ele>
        <time>2014-09-09T09:12:08.785Z</time>
      </trkpt>
      <trkpt lat="48.68946" lon="2.63134">
        <ele>139</ele>
        <time>2014-09-09T09:12:09.786Z</time>
      </trkpt>
      <trkpt lat="48.68952" lon="2.63126">
        <ele>139</ele>
        <time>2014-09-09T09:12:15.777Z</time>
      </trkpt>
      <trkpt lat="48.68953" lon="2.63125">
        <ele>140</ele>
        <time>2014-09-09T09:12:16.747Z</time>
      </trkpt>
      <trkpt lat="48.6896" lon="2.63119">
        <ele>142</ele>
        <time>2014-09-09T09:12:21.780Z</time>
      </trkpt>
      <trkpt lat="48.68961" lon="2.63118">
        <ele>142</ele>
        <time>2014-09-09T09:12:22.775Z</time>
      </trkpt>
      <trkpt lat="48.68964" lon="2.63106">
        <ele>139</ele>
        <time>2014-09-09T09:12:30.738Z</time>
      </trkpt>
      <trkpt lat="48.68965" lon="2.63104">
        <ele>138</ele>
        <time>2014-09-09T09:12:31.785Z</time>
      </trkpt>
      <trkpt lat="48.68968" lon="2.63092">
        <ele>134</ele>
        <time>2014-09-09T09:12:39.779Z</time>
      </trkpt>
      <trkpt lat="48.68968" lon="2.63091">
        <ele>136</ele>
        <time>2014-09-09T09:12:40.781Z</time>
      </trkpt>
      <trkpt lat="48.68975" lon="2.63083">
        <ele>139</ele>
        <time>2014-09-09T09:12:46.777Z</time>
      </trkpt>
      <trkpt lat="48.68976" lon="2.63081">
        <ele>139</ele>
        <time>2014-09-09T09:12:47.781Z</time>
      </trkpt>
      <trkpt lat="48.6898" lon="2.6307">
        <ele>137</ele>
        <time>2014-09-09T09:12:54.780Z</time>
      </trkpt>
      <trkpt lat="48.68981" lon="2.63068">
        <ele>137</ele>
        <time>2014-09-09T09:12:55.786Z</time>
      </trkpt>
      <trkpt lat="48.68986" lon="2.63057">
        <ele>138</ele>
        <time>2014-09-09T09:13:02.783Z</time>
      </trkpt>
      <trkpt lat="48.68986" lon="2.63056">
        <ele>138</ele>
        <time>2014-09-09T09:13:03.784Z</time>
      </trkpt>
      <trkpt lat="48.6899" lon="2.63045">
        <ele>137</ele>
        <time>2014-09-09T09:13:10.741Z</time>
      </trkpt>
      <trkpt lat="48.68991" lon="2.63043">
        <ele>137</ele>
        <time>2014-09-09T09:13:11.778Z</time>
      </trkpt>
      <trkpt lat="48.68995" lon="2.63032">
        <ele>136</ele>
        <time>2014-09-09T09:13:18.781Z</time>
      </trkpt>
      <trkpt lat="48.68996" lon="2.63031">
        <ele>136</ele>
        <time>2014-09-09T09:13:19.782Z</time>
      </trkpt>
      <trkpt lat="48.69001" lon="2.6302">
        <ele>137</ele>
        <time>2014-09-09T09:13:26.782Z</time>
      </trkpt>
      <trkpt lat="48.69001" lon="2.63019">
        <ele>137</ele>
        <time>2014-09-09T09:13:27.784Z</time>
      </trkpt>
      <trkpt lat="48.69005" lon="2.63008">
        <ele>136</ele>
        <time>2014-09-09T09:13:34.780Z</time>
      </trkpt>
      <trkpt lat="48.69006" lon="2.63006">
        <ele>136</ele>
        <time>2014-09-09T09:13:35.734Z</time>
      </trkpt>
      <trkpt lat="48.69011" lon="2.62996">
        <ele>138</ele>
        <time>2014-09-09T09:13:42.785Z</time>
      </trkpt>
      <trkpt lat="48.69011" lon="2.62995">
        <ele>138</ele>
        <time>2014-09-09T09:13:43.785Z</time>
      </trkpt>
      <trkpt lat="48.69018" lon="2.62986">
        <ele>139</ele>
        <time>2014-09-09T09:13:50.740Z</time>
      </trkpt>
      <trkpt lat="48.69018" lon="2.62984">
        <ele>138</ele>
        <time>2014-09-09T09:13:51.783Z</time>
      </trkpt>
      <trkpt lat="48.69023" lon="2.62973">
        <ele>138</ele>
        <time>2014-09-09T09:13:58.816Z</time>
      </trkpt>
      <trkpt lat="48.69023" lon="2.62972">
        <ele>138</ele>
        <time>2014-09-09T09:13:59.783Z</time>
      </trkpt>
      <trkpt lat="48.69027" lon="2.6296">
        <ele>137</ele>
        <time>2014-09-09T09:14:06.785Z</time>
      </trkpt>
      <trkpt lat="48.69028" lon="2.62959">
        <ele>138</ele>
        <time>2014-09-09T09:14:07.773Z</time>
      </trkpt>
      <trkpt lat="48.69033" lon="2.6295">
        <ele>139</ele>
        <time>2014-09-09T09:14:13.778Z</time>
      </trkpt>
      <trkpt lat="48.69034" lon="2.62949">
        <ele>138</ele>
        <time>2014-09-09T09:14:14.828Z</time>
      </trkpt>
      <trkpt lat="48.69039" lon="2.62938">
        <ele>137</ele>
        <time>2014-09-09T09:14:21.778Z</time>
      </trkpt>
      <trkpt lat="48.69039" lon="2.62936">
        <ele>135</ele>
        <time>2014-09-09T09:14:22.784Z</time>
      </trkpt>
      <trkpt lat="48.69042" lon="2.62924">
        <ele>135</ele>
        <time>2014-09-09T09:14:29.765Z</time>
      </trkpt>
      <trkpt lat="48.69043" lon="2.62922">
        <ele>136</ele>
        <time>2014-09-09T09:14:30.742Z</time>
      </trkpt>
      <trkpt lat="48.69049" lon="2.62914">
        <ele>138</ele>
        <time>2014-09-09T09:14:36.801Z</time>
      </trkpt>
      <trkpt lat="48.6905" lon="2.62913">
        <ele>138</ele>
        <time>2014-09-09T09:14:37.777Z</time>
      </trkpt>
      <trkpt lat="48.69055" lon="2.62903">
        <ele>138</ele>
        <time>2014-09-09T09:14:44.743Z</time>
      </trkpt>
      <trkpt lat="48.69057" lon="2.62902">
        <ele>138</ele>
        <time>2014-09-09T09:14:45.778Z</time>
      </trkpt>
      <trkpt lat="48.69063" lon="2.62892">
        <ele>136</ele>
        <time>2014-09-09T09:14:52.780Z</time>
      </trkpt>
      <trkpt lat="48.69063" lon="2.6289">
        <ele>136</ele>
        <time>2014-09-09T09:14:53.773Z</time>
      </trkpt>
      <trkpt lat="48.69068" lon="2.62879">
        <ele>137</ele>
        <time>2014-09-09T09:15:00.784Z</time>
      </trkpt>
      <trkpt lat="48.69068" lon="2.62877">
        <ele>136</ele>
        <time>2014-09-09T09:15:01.776Z</time>
      </trkpt>
      <trkpt lat="48.69073" lon="2.62866">
        <ele>137</ele>
        <time>2014-09-09T09:15:09.775Z</time>
      </trkpt>
      <trkpt lat="48.69073" lon="2.62864">
        <ele>135</ele>
        <time>2014-09-09T09:15:10.742Z</time>
      </trkpt>
      <trkpt lat="48.69077" lon="2.62853">
        <ele>135</ele>
        <time>2014-09-09T09:15:17.781Z</time>
      </trkpt>
      <trkpt lat="48.69078" lon="2.62852">
        <ele>136</ele>
        <time>2014-09-09T09:15:18.785Z</time>
      </trkpt>
      <trkpt lat="48.69084" lon="2.62844">
        <ele>138</ele>
        <time>2014-09-09T09:15:24.738Z</time>
      </trkpt>
      <trkpt lat="48.69085" lon="2.62842">
        <ele>139</ele>
        <time>2014-09-09T09:15:25.738Z</time>
      </trkpt>
      <trkpt lat="48.69091" lon="2.62833">
        <ele>137</ele>
        <time>2014-09-09T09:15:32.770Z</time>
      </trkpt>
      <trkpt lat="48.69092" lon="2.62832">
        <ele>138</ele>
        <time>2014-09-09T09:15:33.772Z</time>
      </trkpt>
      <trkpt lat="48.69099" lon="2.62823">
        <ele>140</ele>
        <time>2014-09-09T09:15:39.785Z</time>
      </trkpt>
      <trkpt lat="48.69101" lon="2.62822">
        <ele>141</ele>
        <time>2014-09-09T09:15:40.780Z</time>
      </trkpt>
      <trkpt lat="48.69106" lon="2.62813">
        <ele>141</ele>
        <time>2014-09-09T09:15:47.783Z</time>
      </trkpt>
      <trkpt lat="48.69107" lon="2.62811">
        <ele>141</ele>
        <time>2014-09-09T09:15:48.783Z</time>
      </trkpt>
      <trkpt lat="48.69109" lon="2.628">
        <ele>140</ele>
        <time>2014-09-09T09:15:56.755Z</time>
      </trkpt>
      <trkpt lat="48.69109" lon="2.62798">
        <ele>140</ele>
        <time>2014-09-09T09:15:57.786Z</time>
      </trkpt>
      <trkpt lat="48.69115" lon="2.62807">
        <ele>145</ele>
        <time>2014-09-09T09:18:06.778Z</time>
      </trkpt>
      <trkpt lat="48.69115" lon="2.62808">
        <ele>144</ele>
        <time>2014-09-09T09:18:07.788Z</time>
      </trkpt>
      <trkpt lat="48.69124" lon="2.62809">
        <ele>144</ele>
        <time>2014-09-09T09:18:21.759Z</time>
      </trkpt>
      <trkpt lat="48.69124" lon="2.62809">
        <ele>145</ele>
        <time>2014-09-09T09:18:22.751Z</time>
      </trkpt>
      <trkpt lat="48.6913" lon="2.62799">
        <ele>143</ele>
        <time>2014-09-09T09:18:30.813Z</time>
      </trkpt>
      <trkpt lat="48.6913" lon="2.62797">
        <ele>143</ele>
        <time>2014-09-09T09:18:31.777Z</time>
      </trkpt>
      <trkpt lat="48.69135" lon="2.62785">
        <ele>142</ele>
        <time>2014-09-09T09:18:39.781Z</time>
      </trkpt>
      <trkpt lat="48.69135" lon="2.62784">
        <ele>142</ele>
        <time>2014-09-09T09:18:40.779Z</time>
      </trkpt>
      <trkpt lat="48.69139" lon="2.62772">
        <ele>140</ele>
        <time>2014-09-09T09:18:49.778Z</time>
      </trkpt>
      <trkpt lat="48.69139" lon="2.6277">
        <ele>140</ele>
        <time>2014-09-09T09:18:50.773Z</time>
      </trkpt>
      <trkpt lat="48.69143" lon="2.62759">
        <ele>139</ele>
        <time>2014-09-09T09:18:58.736Z</time>
      </trkpt>
      <trkpt lat="48.69144" lon="2.62758">
        <ele>140</ele>
        <time>2014-09-09T09:18:59.734Z</time>
      </trkpt>
      <trkpt lat="48.69149" lon="2.62747">
        <ele>140</ele>
        <time>2014-09-09T09:19:07.771Z</time>
      </trkpt>
      <trkpt lat="48.69149" lon="2.62746">
        <ele>140</ele>
        <time>2014-09-09T09:19:08.738Z</time>
      </trkpt>
      <trkpt lat="48.69154" lon="2.62735">
        <ele>140</ele>
        <time>2014-09-09T09:19:16.772Z</time>
      </trkpt>
      <trkpt lat="48.69154" lon="2.62733">
        <ele>140</ele>
        <time>2014-09-09T09:19:17.774Z</time>
      </trkpt>
      <trkpt lat="48.69159" lon="2.62723">
        <ele>140</ele>
        <time>2014-09-09T09:19:24.781Z</time>
      </trkpt>
      <trkpt lat="48.6916" lon="2.62722">
        <ele>140</ele>
        <time>2014-09-09T09:19:25.779Z</time>
      </trkpt>
      <trkpt lat="48.69165" lon="2.62712">
        <ele>140</ele>
        <time>2014-09-09T09:19:33.818Z</time>
      </trkpt>
      <trkpt lat="48.69166" lon="2.6271">
        <ele>140</ele>
        <time>2014-09-09T09:19:34.736Z</time>
      </trkpt>
      <trkpt lat="48.69171" lon="2.62699">
        <ele>140</ele>
        <time>2014-09-09T09:19:42.777Z</time>
      </trkpt>
      <trkpt lat="48.69171" lon="2.62698">
        <ele>140</ele>
        <time>2014-09-09T09:19:43.772Z</time>
      </trkpt>
      <trkpt lat="48.69175" lon="2.62688">
        <ele>140</ele>
        <time>2014-09-09T09:19:50.783Z</time>
      </trkpt>
      <trkpt lat="48.69176" lon="2.62686">
        <ele>139</ele>
        <time>2014-09-09T09:19:51.784Z</time>
      </trkpt>
      <trkpt lat="48.69182" lon="2.62677">
        <ele>141</ele>
        <time>2014-09-09T09:19:58.776Z</time>
      </trkpt>
      <trkpt lat="48.69183" lon="2.62676">
        <ele>141</ele>
        <time>2014-09-09T09:19:59.738Z</time>
      </trkpt>
      <trkpt lat="48.69188" lon="2.62665">
        <ele>141</ele>
        <time>2014-09-09T09:20:07.807Z</time>
      </trkpt>
      <trkpt lat="48.69189" lon="2.62664">
        <ele>141</ele>
        <time>2014-09-09T09:20:08.773Z</time>
      </trkpt>
      <trkpt lat="48.69194" lon="2.62654">
        <ele>140</ele>
        <time>2014-09-09T09:20:16.779Z</time>
      </trkpt>
      <trkpt lat="48.69194" lon="2.62652">
        <ele>140</ele>
        <time>2014-09-09T09:20:17.740Z</time>
      </trkpt>
      <trkpt lat="48.69199" lon="2.62641">
        <ele>142</ele>
        <time>2014-09-09T09:20:25.736Z</time>
      </trkpt>
      <trkpt lat="48.692" lon="2.6264">
        <ele>142</ele>
        <time>2014-09-09T09:20:26.738Z</time>
      </trkpt>
      <trkpt lat="48.69205" lon="2.62631">
        <ele>141</ele>
        <time>2014-09-09T09:20:33.782Z</time>
      </trkpt>
      <trkpt lat="48.69206" lon="2.62629">
        <ele>141</ele>
        <time>2014-09-09T09:20:34.790Z</time>
      </trkpt>
      <trkpt lat="48.69211" lon="2.62619">
        <ele>140</ele>
        <time>2014-09-09T09:20:42.750Z</time>
      </trkpt>
      <trkpt lat="48.69212" lon="2.62617">
        <ele>140</ele>
        <time>2014-09-09T09:20:43.771Z</time>
      </trkpt>
      <trkpt lat="48.69217" lon="2.62607">
        <ele>141</ele>
        <time>2014-09-09T09:20:51.736Z</time>
      </trkpt>
      <trkpt lat="48.69218" lon="2.62606">
        <ele>141</ele>
        <time>2014-09-09T09:20:52.781Z</time>
      </trkpt>
      <trkpt lat="48.69222" lon="2.62596">
        <ele>140</ele>
        <time>2014-09-09T09:20:59.783Z</time>
      </trkpt>
      <trkpt lat="48.69223" lon="2.62594">
        <ele>139</ele>
        <time>2014-09-09T09:21:00.780Z</time>
      </trkpt>
      <trkpt lat="48.69228" lon="2.62584">
        <ele>138</ele>
        <time>2014-09-09T09:21:08.735Z</time>
      </trkpt>
      <trkpt lat="48.69228" lon="2.62582">
        <ele>138</ele>
        <time>2014-09-09T09:21:09.761Z</time>
      </trkpt>
      <trkpt lat="48.69233" lon="2.62572">
        <ele>139</ele>
        <time>2014-09-09T09:21:17.783Z</time>
      </trkpt>
      <trkpt lat="48.69234" lon="2.62571">
        <ele>139</ele>
        <time>2014-09-09T09:21:18.784Z</time>
      </trkpt>
      <trkpt lat="48.69239" lon="2.62561">
        <ele>139</ele>
        <time>2014-09-09T09:21:26.741Z</time>
      </trkpt>
      <trkpt lat="48.69239" lon="2.6256">
        <ele>138</ele>
        <time>2014-09-09T09:21:27.776Z</time>
      </trkpt>
      <trkpt lat="48.69243" lon="2.62549">
        <ele>138</ele>
        <time>2014-09-09T09:21:35.793Z</time>
      </trkpt>
      <trkpt lat="48.69244" lon="2.62548">
        <ele>138</ele>
        <time>2014-09-09T09:21:36.781Z</time>
      </trkpt>
      <trkpt lat="48.69249" lon="2.62537">
        <ele>138</ele>
        <time>2014-09-09T09:21:44.742Z</time>
      </trkpt>
      <trkpt lat="48.6925" lon="2.62536">
        <ele>138</ele>
        <time>2014-09-09T09:21:45.781Z</time>
      </trkpt>
      <trkpt lat="48.69255" lon="2.62526">
        <ele>138</ele>
        <time>2014-09-09T09:21:52.780Z</time>
      </trkpt>
      <trkpt lat="48.69255" lon="2.62525">
        <ele>138</ele>
        <time>2014-09-09T09:21:53.740Z</time>
      </trkpt>
      <trkpt lat="48.6926" lon="2.62513">
        <ele>137</ele>
        <time>2014-09-09T09:22:01.781Z</time>
      </trkpt>
      <trkpt lat="48.69261" lon="2.62512">
        <ele>137</ele>
        <time>2014-09-09T09:22:02.780Z</time>
      </trkpt>
      <trkpt lat="48.69266" lon="2.62502">
        <ele>137</ele>
        <time>2014-09-09T09:22:10.780Z</time>
      </trkpt>
      <trkpt lat="48.69267" lon="2.625">
        <ele>137</ele>
        <time>2014-09-09T09:22:11.745Z</time>
      </trkpt>
      <trkpt lat="48.69272" lon="2.6249">
        <ele>137</ele>
        <time>2014-09-09T09:22:19.782Z</time>
      </trkpt>
      <trkpt lat="48.69272" lon="2.62489">
        <ele>137</ele>
        <time>2014-09-09T09:22:20.779Z</time>
      </trkpt>
      <trkpt lat="48.69277" lon="2.62479">
        <ele>138</ele>
        <time>2014-09-09T09:22:27.775Z</time>
      </trkpt>
      <trkpt lat="48.69277" lon="2.62477">
        <ele>138</ele>
        <time>2014-09-09T09:22:28.780Z</time>
      </trkpt>
      <trkpt lat="48.69283" lon="2.62467">
        <ele>137</ele>
        <time>2014-09-09T09:22:36.760Z</time>
      </trkpt>
      <trkpt lat="48.69283" lon="2.62465">
        <ele>137</ele>
        <time>2014-09-09T09:22:37.742Z</time>
      </trkpt>
      <trkpt lat="48.69288" lon="2.62454">
        <ele>137</ele>
        <time>2014-09-09T09:22:45.778Z</time>
      </trkpt>
      <trkpt lat="48.69289" lon="2.62453">
        <ele>137</ele>
        <time>2014-09-09T09:22:46.783Z</time>
      </trkpt>
      <trkpt lat="48.69294" lon="2.62442">
        <ele>137</ele>
        <time>2014-09-09T09:22:54.796Z</time>
      </trkpt>
      <trkpt lat="48.69295" lon="2.62441">
        <ele>137</ele>
        <time>2014-09-09T09:22:55.741Z</time>
      </trkpt>
      <trkpt lat="48.69301" lon="2.6243">
        <ele>137</ele>
        <time>2014-09-09T09:23:03.777Z</time>
      </trkpt>
      <trkpt lat="48.69301" lon="2.62429">
        <ele>137</ele>
        <time>2014-09-09T09:23:04.787Z</time>
      </trkpt>
      <trkpt lat="48.69307" lon="2.62418">
        <ele>138</ele>
        <time>2014-09-09T09:23:12.809Z</time>
      </trkpt>
      <trkpt lat="48.69308" lon="2.62417">
        <ele>138</ele>
        <time>2014-09-09T09:23:13.747Z</time>
      </trkpt>
      <trkpt lat="48.69313" lon="2.62408">
        <ele>139</ele>
        <time>2014-09-09T09:23:20.783Z</time>
      </trkpt>
      <trkpt lat="48.69313" lon="2.62406">
        <ele>139</ele>
        <time>2014-09-09T09:23:21.773Z</time>
      </trkpt>
      <trkpt lat="48.69317" lon="2.62396">
        <ele>137</ele>
        <time>2014-09-09T09:23:28.775Z</time>
      </trkpt>
      <trkpt lat="48.69318" lon="2.62395">
        <ele>137</ele>
        <time>2014-09-09T09:23:29.780Z</time>
      </trkpt>
      <trkpt lat="48.69323" lon="2.62385">
        <ele>137</ele>
        <time>2014-09-09T09:23:37.777Z</time>
      </trkpt>
      <trkpt lat="48.69324" lon="2.62384">
        <ele>137</ele>
        <time>2014-09-09T09:23:38.753Z</time>
      </trkpt>
      <trkpt lat="48.69329" lon="2.62373">
        <ele>137</ele>
        <time>2014-09-09T09:23:46.782Z</time>
      </trkpt>
      <trkpt lat="48.6933" lon="2.62372">
        <ele>137</ele>
        <time>2014-09-09T09:23:47.782Z</time>
      </trkpt>
      <trkpt lat="48.69335" lon="2.62362">
        <ele>137</ele>
        <time>2014-09-09T09:23:54.777Z</time>
      </trkpt>
      <trkpt lat="48.69336" lon="2.6236">
        <ele>137</ele>
        <time>2014-09-09T09:23:55.775Z</time>
      </trkpt>
      <trkpt lat="48.69337" lon="2.62348">
        <ele>137</ele>
        <time>2014-09-09T09:25:49.773Z</time>
      </trkpt>
      <trkpt lat="48.69336" lon="2.62346">
        <ele>137</ele>
        <time>2014-09-09T09:25:50.744Z</time>
      </trkpt>
      <trkpt lat="48.69332" lon="2.62335">
        <ele>140</ele>
        <time>2014-09-09T09:26:02.784Z</time>
      </trkpt>
      <trkpt lat="48.69333" lon="2.62333">
        <ele>141</ele>
        <time>2014-09-09T09:26:03.756Z</time>
      </trkpt>
      <trkpt lat="48.69337" lon="2.62321">
        <ele>141</ele>
        <time>2014-09-09T09:26:10.776Z</time>
      </trkpt>
      <trkpt lat="48.69338" lon="2.6232">
        <ele>141</ele>
        <time>2014-09-09T09:26:11.739Z</time>
      </trkpt>
      <trkpt lat="48.69343" lon="2.6231">
        <ele>142</ele>
        <time>2014-09-09T09:26:18.780Z</time>
      </trkpt>
      <trkpt lat="48.69344" lon="2.62308">
        <ele>143</ele>
        <time>2014-09-09T09:26:19.782Z</time>
      </trkpt>
      <trkpt lat="48.6935" lon="2.623">
        <ele>144</ele>
        <time>2014-09-09T09:26:25.766Z</time>
      </trkpt>
      <trkpt lat="48.69351" lon="2.62298">
        <ele>143</ele>
        <time>2014-09-09T09:26:26.774Z</time>
      </trkpt>
      <trkpt lat="48.69356" lon="2.62286">
        <ele>140</ele>
        <time>2014-09-09T09:26:33.778Z</time>
      </trkpt>
      <trkpt lat="48.69356" lon="2.62285">
        <ele>140</ele>
        <time>2014-09-09T09:26:34.775Z</time>
      </trkpt>
      <trkpt lat="48.69361" lon="2.62274">
        <ele>140</ele>
        <time>2014-09-09T09:26:40.776Z</time>
      </trkpt>
      <trkpt lat="48.69361" lon="2.62272">
        <ele>139</ele>
        <time>2014-09-09T09:26:41.782Z</time>
      </trkpt>
      <trkpt lat="48.69362" lon="2.62259">
        <ele>136</ele>
        <time>2014-09-09T09:26:47.782Z</time>
      </trkpt>
      <trkpt lat="48.69362" lon="2.62257">
        <ele>136</ele>
        <time>2014-09-09T09:26:48.780Z</time>
      </trkpt>
      <trkpt lat="48.69369" lon="2.6225">
        <ele>137</ele>
        <time>2014-09-09T09:26:54.781Z</time>
      </trkpt>
      <trkpt lat="48.69371" lon="2.62249">
        <ele>137</ele>
        <time>2014-09-09T09:26:55.772Z</time>
      </trkpt>
      <trkpt lat="48.69375" lon="2.62237">
        <ele>136</ele>
        <time>2014-09-09T09:27:04.741Z</time>
      </trkpt>
      <trkpt lat="48.69375" lon="2.62235">
        <ele>136</ele>
        <time>2014-09-09T09:27:05.780Z</time>
      </trkpt>
      <trkpt lat="48.69381" lon="2.62226">
        <ele>135</ele>
        <time>2014-09-09T09:27:11.842Z</time>
      </trkpt>
      <trkpt lat="48.69382" lon="2.62224">
        <ele>136</ele>
        <time>2014-09-09T09:27:12.744Z</time>
      </trkpt>
      <trkpt lat="48.69387" lon="2.62215">
        <ele>135</ele>
        <time>2014-09-09T09:27:18.780Z</time>
      </trkpt>
      <trkpt lat="48.69388" lon="2.62213">
        <ele>135</ele>
        <time>2014-09-09T09:27:19.745Z</time>
      </trkpt>
      <trkpt lat="48.69392" lon="2.62202">
        <ele>137</ele>
        <time>2014-09-09T09:27:26.784Z</time>
      </trkpt>
      <trkpt lat="48.69392" lon="2.62201">
        <ele>137</ele>
        <time>2014-09-09T09:27:27.786Z</time>
      </trkpt>
      <trkpt lat="48.69396" lon="2.62189">
        <ele>136</ele>
        <time>2014-09-09T09:27:36.795Z</time>
      </trkpt>
      <trkpt lat="48.69397" lon="2.62188">
        <ele>137</ele>
        <time>2014-09-09T09:27:37.776Z</time>
      </trkpt>
      <trkpt lat="48.69401" lon="2.62178">
        <ele>137</ele>
        <time>2014-09-09T09:27:45.784Z</time>
      </trkpt>
      <trkpt lat="48.69401" lon="2.62176">
        <ele>137</ele>
        <time>2014-09-09T09:27:46.783Z</time>
      </trkpt>
      <trkpt lat="48.69406" lon="2.62167">
        <ele>138</ele>
        <time>2014-09-09T09:27:52.775Z</time>
      </trkpt>
      <trkpt lat="48.69407" lon="2.62165">
        <ele>138</ele>
        <time>2014-09-09T09:27:53.814Z</time>
      </trkpt>
      <trkpt lat="48.69412" lon="2.62156">
        <ele>138</ele>
        <time>2014-09-09T09:28:00.782Z</time>
      </trkpt>
      <trkpt lat="48.69413" lon="2.62155">
        <ele>139</ele>
        <time>2014-09-09T09:28:01.782Z</time>
      </trkpt>
      <trkpt lat="48.69418" lon="2.62144">
        <ele>137</ele>
        <time>2014-09-09T09:28:08.750Z</time>
      </trkpt>
      <trkpt lat="48.69419" lon="2.62143">
        <ele>138</ele>
        <time>2014-09-09T09:28:09.771Z</time>
      </trkpt>
      <trkpt lat="48.69424" lon="2.62133">
        <ele>137</ele>
        <time>2014-09-09T09:28:15.780Z</time>
      </trkpt>
      <trkpt lat="48.69425" lon="2.62131">
        <ele>136</ele>
        <time>2014-09-09T09:28:16.779Z</time>
      </trkpt>
      <trkpt lat="48.6943" lon="2.62121">
        <ele>138</ele>
        <time>2014-09-09T09:28:23.774Z</time>
      </trkpt>
      <trkpt lat="48.69431" lon="2.62119">
        <ele>138</ele>
        <time>2014-09-09T09:28:24.770Z</time>
      </trkpt>
      <trkpt lat="48.69436" lon="2.6211">
        <ele>138</ele>
        <time>2014-09-09T09:28:31.763Z</time>
      </trkpt>
      <trkpt lat="48.69437" lon="2.62109">
        <ele>139</ele>
        <time>2014-09-09T09:28:32.751Z</time>
      </trkpt>
      <trkpt lat="48.69442" lon="2.62098">
        <ele>140</ele>
        <time>2014-09-09T09:28:39.742Z</time>
      </trkpt>
      <trkpt lat="48.69443" lon="2.62097">
        <ele>140</ele>
        <time>2014-09-09T09:28:40.776Z</time>
      </trkpt>
      <trkpt lat="48.69447" lon="2.62086">
        <ele>140</ele>
        <time>2014-09-09T09:28:47.781Z</time>
      </trkpt>
      <trkpt lat="48.69448" lon="2.62084">
        <ele>140</ele>
        <time>2014-09-09T09:28:48.782Z</time>
      </trkpt>
      <trkpt lat="48.69445" lon="2.62072">
        <ele>138</ele>
        <time>2014-09-09T09:28:56.783Z</time>
      </trkpt>
      <trkpt lat="48.69445" lon="2.62071">
        <ele>137</ele>
        <time>2014-09-09T09:28:57.778Z</time>
      </trkpt>
      <trkpt lat="48.6944" lon="2.62061">
        <ele>138</ele>
        <time>2014-09-09T09:29:06.732Z</time>
      </trkpt>
      <trkpt lat="48.6944" lon="2.62059">
        <ele>137</ele>
        <time>2014-09-09T09:29:07.732Z</time>
      </trkpt>
      <trkpt lat="48.69436" lon="2.62049">
        <ele>135</ele>
        <time>2014-09-09T09:29:14.732Z</time>
      </trkpt>
      <trkpt lat="48.69435" lon="2.62047">
        <ele>136</ele>
        <time>2014-09-09T09:29:15.733Z</time>
      </trkpt>
      <trkpt lat="48.69431" lon="2.62037">
        <ele>134</ele>
        <time>2014-09-09T09:29:21.757Z</time>
      </trkpt>
      <trkpt lat="48.6943" lon="2.62035">
        <ele>134</ele>
        <time>2014-09-09T09:29:22.738Z</time>
      </trkpt>
      <trkpt lat="48.69425" lon="2.62024">
        <ele>135</ele>
        <time>2014-09-09T09:29:29.788Z</time>
      </trkpt>
      <trkpt lat="48.69425" lon="2.62023">
        <ele>136</ele>
        <time>2014-09-09T09:29:30.763Z</time>
      </trkpt>
      <trkpt lat="48.69419" lon="2.62012">
        <ele>135</ele>
        <time>2014-09-09T09:29:39.786Z</time>
      </trkpt>
      <trkpt lat="48.69419" lon="2.62012">
        <ele>135</ele>
        <time>2014-09-09T09:29:40.787Z</time>
      </trkpt>
      <trkpt lat="48.69414" lon="2.62">
        <ele>134</ele>
        <time>2014-09-09T09:29:51.782Z</time>
      </trkpt>
      <trkpt lat="48.69413" lon="2.61999">
        <ele>134</ele>
        <time>2014-09-09T09:29:52.785Z</time>
      </trkpt>
      <trkpt lat="48.69408" lon="2.6199">
        <ele>135</ele>
        <time>2014-09-09T09:30:01.786Z</time>
      </trkpt>
      <trkpt lat="48.69407" lon="2.61989">
        <ele>135</ele>
        <time>2014-09-09T09:30:02.742Z</time>
      </trkpt>
      <trkpt lat="48.69401" lon="2.61978">
        <ele>131</ele>
        <time>2014-09-09T09:30:11.793Z</time>
      </trkpt>
      <trkpt lat="48.69401" lon="2.61977">
        <ele>132</ele>
        <time>2014-09-09T09:30:12.779Z</time>
      </trkpt>
      <trkpt lat="48.69397" lon="2.61965">
        <ele>135</ele>
        <time>2014-09-09T09:30:20.749Z</time>
      </trkpt>
      <trkpt lat="48.69397" lon="2.61964">
        <ele>136</ele>
        <time>2014-09-09T09:30:21.785Z</time>
      </trkpt>
      <trkpt lat="48.69391" lon="2.61954">
        <ele>136</ele>
        <time>2014-09-09T09:30:29.787Z</time>
      </trkpt>
      <trkpt lat="48.69391" lon="2.61953">
        <ele>137</ele>
        <time>2014-09-09T09:30:30.786Z</time>
      </trkpt>
      <trkpt lat="48.69386" lon="2.61942">
        <ele>137</ele>
        <time>2014-09-09T09:30:37.785Z</time>
      </trkpt>
      <trkpt lat="48.69386" lon="2.61941">
        <ele>138</ele>
        <time>2014-09-09T09:30:38.784Z</time>
      </trkpt>
      <trkpt lat="48.69382" lon="2.61929">
        <ele>138</ele>
        <time>2014-09-09T09:30:47.776Z</time>
      </trkpt>
      <trkpt lat="48.69382" lon="2.61927">
        <ele>139</ele>
        <time>2014-09-09T09:30:48.778Z</time>
      </trkpt>
      <trkpt lat="48.69379" lon="2.61916">
        <ele>138</ele>
        <time>2014-09-09T09:30:55.782Z</time>
      </trkpt>
      <trkpt lat="48.69379" lon="2.61914">
        <ele>138</ele>
        <time>2014-09-09T09:30:56.748Z</time>
      </trkpt>
      <trkpt lat="48.69374" lon="2.61904">
        <ele>138</ele>
        <time>2014-09-09T09:31:03.737Z</time>
      </trkpt>
      <trkpt lat="48.69373" lon="2.61903">
        <ele>138</ele>
        <time>2014-09-09T09:31:04.791Z</time>
      </trkpt>
      <trkpt lat="48.6937" lon="2.61892">
        <ele>137</ele>
        <time>2014-09-09T09:31:12.780Z</time>
      </trkpt>
      <trkpt lat="48.69369" lon="2.61891">
        <ele>137</ele>
        <time>2014-09-09T09:31:13.777Z</time>
      </trkpt>
      <trkpt lat="48.69363" lon="2.61881">
        <ele>136</ele>
        <time>2014-09-09T09:31:20.784Z</time>
      </trkpt>
      <trkpt lat="48.69363" lon="2.61879">
        <ele>136</ele>
        <time>2014-09-09T09:31:21.744Z</time>
      </trkpt>
      <trkpt lat="48.6936" lon="2.61867">
        <ele>140</ele>
        <time>2014-09-09T09:31:28.740Z</time>
      </trkpt>
      <trkpt lat="48.6936" lon="2.61865">
        <ele>140</ele>
        <time>2014-09-09T09:31:29.782Z</time>
      </trkpt>
      <trkpt lat="48.69357" lon="2.61853">
        <ele>143</ele>
        <time>2014-09-09T09:31:37.781Z</time>
      </trkpt>
      <trkpt lat="48.69356" lon="2.61852">
        <ele>144</ele>
        <time>2014-09-09T09:31:38.742Z</time>
      </trkpt>
      <trkpt lat="48.69353" lon="2.6184">
        <ele>141</ele>
        <time>2014-09-09T09:31:45.780Z</time>
      </trkpt>
      <trkpt lat="48.69353" lon="2.61839">
        <ele>141</ele>
        <time>2014-09-09T09:31:46.781Z</time>
      </trkpt>
      <trkpt lat="48.69349" lon="2.61827">
        <ele>136</ele>
        <time>2014-09-09T09:31:53.782Z</time>
      </trkpt>
      <trkpt lat="48.69348" lon="2.61825">
        <ele>136</ele>
        <time>2014-09-09T09:31:54.785Z</time>
      </trkpt>
      <trkpt lat="48.69344" lon="2.61814">
        <ele>136</ele>
        <time>2014-09-09T09:32:01.779Z</time>
      </trkpt>
      <trkpt lat="48.69343" lon="2.61812">
        <ele>135</ele>
        <time>2014-09-09T09:32:02.734Z</time>
      </trkpt>
      <trkpt lat="48.6934" lon="2.618">
        <ele>138</ele>
        <time>2014-09-09T09:32:10.733Z</time>
      </trkpt>
      <trkpt lat="48.69339" lon="2.61798">
        <ele>138</ele>
        <time>2014-09-09T09:32:11.794Z</time>
      </trkpt>
      <trkpt lat="48.69335" lon="2.61787">
        <ele>137</ele>
        <time>2014-09-09T09:32:19.797Z</time>
      </trkpt>
      <trkpt lat="48.69335" lon="2.61785">
        <ele>135</ele>
        <time>2014-09-09T09:32:20.783Z</time>
      </trkpt>
      <trkpt lat="48.6933" lon="2.61774">
        <ele>133</ele>
        <time>2014-09-09T09:32:31.852Z</time>
      </trkpt>
      <trkpt lat="48.69329" lon="2.61774">
        <ele>133</ele>
        <time>2014-09-09T09:32:32.756Z</time>
      </trkpt>
      <trkpt lat="48.69323" lon="2.61765">
        <ele>132</ele>
        <time>2014-09-09T09:32:41.752Z</time>
      </trkpt>
      <trkpt lat="48.69322" lon="2.61765">
        <ele>132</ele>
        <time>2014-09-09T09:32:42.784Z</time>
      </trkpt>
      <trkpt lat="48.69316" lon="2.61756">
        <ele>135</ele>
        <time>2014-09-09T09:32:55.785Z</time>
      </trkpt>
      <trkpt lat="48.69315" lon="2.61755">
        <ele>135</ele>
        <time>2014-09-09T09:32:56.786Z</time>
      </trkpt>
      <trkpt lat="48.69321" lon="2.61746">
        <ele>136</ele>
        <time>2014-09-09T09:33:07.776Z</time>
      </trkpt>
      <trkpt lat="48.69322" lon="2.61744">
        <ele>136</ele>
        <time>2014-09-09T09:33:08.783Z</time>
      </trkpt>
      <trkpt lat="48.69321" lon="2.61731">
        <ele>136</ele>
        <time>2014-09-09T09:33:21.784Z</time>
      </trkpt>
      <trkpt lat="48.6932" lon="2.6173">
        <ele>136</ele>
        <time>2014-09-09T09:33:22.780Z</time>
      </trkpt>
      <trkpt lat="48.69314" lon="2.61721">
        <ele>136</ele>
        <time>2014-09-09T09:33:30.783Z</time>
      </trkpt>
      <trkpt lat="48.69313" lon="2.61719">
        <ele>136</ele>
        <time>2014-09-09T09:33:31.798Z</time>
      </trkpt>
      <trkpt lat="48.6931" lon="2.61707">
        <ele>134</ele>
        <time>2014-09-09T09:33:38.784Z</time>
      </trkpt>
      <trkpt lat="48.69309" lon="2.61705">
        <ele>134</ele>
        <time>2014-09-09T09:33:39.774Z</time>
      </trkpt>
      <trkpt lat="48.69306" lon="2.61694">
        <ele>131</ele>
        <time>2014-09-09T09:33:46.784Z</time>
      </trkpt>
      <trkpt lat="48.69306" lon="2.61692">
        <ele>130</ele>
        <time>2014-09-09T09:33:47.785Z</time>
      </trkpt>
      <trkpt lat="48.69304" lon="2.6168">
        <ele>131</ele>
        <time>2014-09-09T09:33:54.797Z</time>
      </trkpt>
      <trkpt lat="48.69304" lon="2.61678">
        <ele>130</ele>
        <time>2014-09-09T09:33:55.738Z</time>
      </trkpt>
      <trkpt lat="48.693" lon="2.61667">
        <ele>130</ele>
        <time>2014-09-09T09:34:03.752Z</time>
      </trkpt>
      <trkpt lat="48.69299" lon="2.61666">
        <ele>130</ele>
        <time>2014-09-09T09:34:04.740Z</time>
      </trkpt>
      <trkpt lat="48.69292" lon="2.61659">
        <ele>133</ele>
        <time>2014-09-09T09:34:11.780Z</time>
      </trkpt>
      <trkpt lat="48.69291" lon="2.61658">
        <ele>133</ele>
        <time>2014-09-09T09:34:12.761Z</time>
      </trkpt>
      <trkpt lat="48.69285" lon="2.61648">
        <ele>134</ele>
        <time>2014-09-09T09:34:19.984Z</time>
      </trkpt>
      <trkpt lat="48.69285" lon="2.61647">
        <ele>134</ele>
        <time>2014-09-09T09:34:20.741Z</time>
      </trkpt>
      <trkpt lat="48.69282" lon="2.61634">
        <ele>133</ele>
        <time>2014-09-09T09:34:27.778Z</time>
      </trkpt>
      <trkpt lat="48.69281" lon="2.61633">
        <ele>134</ele>
        <time>2014-09-09T09:34:28.780Z</time>
      </trkpt>
      <trkpt lat="48.69278" lon="2.61621">
        <ele>133</ele>
        <time>2014-09-09T09:34:35.737Z</time>
      </trkpt>
      <trkpt lat="48.69278" lon="2.61619">
        <ele>133</ele>
        <time>2014-09-09T09:34:36.739Z</time>
      </trkpt>
      <trkpt lat="48.69275" lon="2.61607">
        <ele>133</ele>
        <time>2014-09-09T09:34:43.735Z</time>
      </trkpt>
      <trkpt lat="48.69275" lon="2.61606">
        <ele>133</ele>
        <time>2014-09-09T09:34:44.763Z</time>
      </trkpt>
      <trkpt lat="48.69273" lon="2.61593">
        <ele>133</ele>
        <time>2014-09-09T09:34:52.732Z</time>
      </trkpt>
      <trkpt lat="48.69273" lon="2.61591">
        <ele>132</ele>
        <time>2014-09-09T09:34:53.771Z</time>
      </trkpt>
      <trkpt lat="48.69273" lon="2.61578">
        <ele>134</ele>
        <time>2014-09-09T09:35:00.785Z</time>
      </trkpt>
      <trkpt lat="48.69273" lon="2.61576">
        <ele>132</ele>
        <time>2014-09-09T09:35:01.822Z</time>
      </trkpt>
      <trkpt lat="48.69271" lon="2.61563">
        <ele>132</ele>
        <time>2014-09-09T09:35:08.782Z</time>
      </trkpt>
      <trkpt lat="48.69271" lon="2.61561">
        <ele>132</ele>
        <time>2014-09-09T09:35:09.749Z</time>
      </trkpt>
      <trkpt lat="48.69269" lon="2.61549">
        <ele>132</ele>
        <time>2014-09-09T09:35:17.773Z</time>
      </trkpt>
      <trkpt lat="48.69269" lon="2.61547">
        <ele>131</ele>
        <time>2014-09-09T09:35:18.762Z</time>
      </trkpt>
      <trkpt lat="48.69268" lon="2.61535">
        <ele>131</ele>
        <time>2014-09-09T09:35:25.732Z</time>
      </trkpt>
      <trkpt lat="48.69267" lon="2.61534">
        <ele>131</ele>
        <time>2014-09-09T09:35:26.772Z</time>
      </trkpt>
      <trkpt lat="48.69267" lon="2.6152">
        <ele>129</ele>
        <time>2014-09-09T09:35:33.786Z</time>
      </trkpt>
      <trkpt lat="48.69267" lon="2.61518">
        <ele>130</ele>
        <time>2014-09-09T09:35:34.776Z</time>
      </trkpt>
      <trkpt lat="48.69265" lon="2.61507">
        <ele>131</ele>
        <time>2014-09-09T09:35:41.787Z</time>
      </trkpt>
      <trkpt lat="48.69265" lon="2.61505">
        <ele>132</ele>
        <time>2014-09-09T09:35:42.779Z</time>
      </trkpt>
      <trkpt lat="48.69266" lon="2.61492">
        <ele>133</ele>
        <time>2014-09-09T09:35:49.778Z</time>
      </trkpt>
      <trkpt lat="48.69267" lon="2.6149">
        <ele>133</ele>
        <time>2014-09-09T09:35:50.757Z</time>
      </trkpt>
      <trkpt lat="48.69267" lon="2.61477">
        <ele>131</ele>
        <time>2014-09-09T09:35:57.782Z</time>
      </trkpt>
      <trkpt lat="48.69266" lon="2.61475">
        <ele>131</ele>
        <time>2014-09-09T09:35:58.921Z</time>
      </trkpt>
      <trkpt lat="48.69263" lon="2.61463">
        <ele>129</ele>
        <time>2014-09-09T09:36:06.781Z</time>
      </trkpt>
      <trkpt lat="48.69262" lon="2.61461">
        <ele>129</ele>
        <time>2014-09-09T09:36:07.777Z</time>
      </trkpt>
      <trkpt lat="48.69263" lon="2.61448">
        <ele>129</ele>
        <time>2014-09-09T09:36:15.788Z</time>
      </trkpt>
      <trkpt lat="48.69263" lon="2.61447">
        <ele>130</ele>
        <time>2014-09-09T09:36:16.781Z</time>
      </trkpt>
      <trkpt lat="48.69262" lon="2.61433">
        <ele>128</ele>
        <time>2014-09-09T09:36:24.776Z</time>
      </trkpt>
      <trkpt lat="48.69262" lon="2.61431">
        <ele>127</ele>
        <time>2014-09-09T09:36:25.795Z</time>
      </trkpt>
      <trkpt lat="48.69261" lon="2.61418">
        <ele>127</ele>
        <time>2014-09-09T09:36:32.773Z</time>
      </trkpt>
      <trkpt lat="48.69261" lon="2.61417">
        <ele>128</ele>
        <time>2014-09-09T09:36:33.781Z</time>
      </trkpt>
      <trkpt lat="48.69258" lon="2.61404">
        <ele>128</ele>
        <time>2014-09-09T09:36:41.742Z</time>
      </trkpt>
      <trkpt lat="48.69258" lon="2.61402">
        <ele>129</ele>
        <time>2014-09-09T09:36:42.780Z</time>
      </trkpt>
      <trkpt lat="48.69258" lon="2.6139">
        <ele>130</ele>
        <time>2014-09-09T09:36:49.784Z</time>
      </trkpt>
      <trkpt lat="48.69258" lon="2.61388">
        <ele>131</ele>
        <time>2014-09-09T09:36:50.782Z</time>
      </trkpt>
      <trkpt lat="48.69257" lon="2.61375">
        <ele>131</ele>
        <time>2014-09-09T09:36:58.784Z</time>
      </trkpt>
      <trkpt lat="48.69257" lon="2.61373">
        <ele>130</ele>
        <time>2014-09-09T09:36:59.752Z</time>
      </trkpt>
      <trkpt lat="48.69258" lon="2.61361">
        <ele>133</ele>
        <time>2014-09-09T09:37:07.732Z</time>
      </trkpt>
      <trkpt lat="48.69258" lon="2.61359">
        <ele>132</ele>
        <time>2014-09-09T09:37:08.732Z</time>
      </trkpt>
      <trkpt lat="48.69257" lon="2.61347">
        <ele>131</ele>
        <time>2014-09-09T09:37:15.749Z</time>
      </trkpt>
      <trkpt lat="48.69257" lon="2.61345">
        <ele>131</ele>
        <time>2014-09-09T09:37:16.735Z</time>
      </trkpt>
      <trkpt lat="48.69256" lon="2.61333">
        <ele>134</ele>
        <time>2014-09-09T09:37:38.731Z</time>
      </trkpt>
      <trkpt lat="48.69256" lon="2.61331">
        <ele>133</ele>
        <time>2014-09-09T09:37:39.781Z</time>
      </trkpt>
      <trkpt lat="48.69256" lon="2.61318">
        <ele>130</ele>
        <time>2014-09-09T09:37:46.740Z</time>
      </trkpt>
      <trkpt lat="48.69255" lon="2.61316">
        <ele>130</ele>
        <time>2014-09-09T09:37:47.777Z</time>
      </trkpt>
      <trkpt lat="48.69254" lon="2.61303">
        <ele>130</ele>
        <time>2014-09-09T09:37:55.782Z</time>
      </trkpt>
      <trkpt lat="48.69254" lon="2.61302">
        <ele>131</ele>
        <time>2014-09-09T09:37:56.783Z</time>
      </trkpt>
      <trkpt lat="48.69254" lon="2.61289">
        <ele>133</ele>
        <time>2014-09-09T09:38:03.781Z</time>
      </trkpt>
      <trkpt lat="48.69254" lon="2.61287">
        <ele>134</ele>
        <time>2014-09-09T09:38:04.817Z</time>
      </trkpt>
      <trkpt lat="48.69253" lon="2.61274">
        <ele>131</ele>
        <time>2014-09-09T09:38:22.946Z</time>
      </trkpt>
      <trkpt lat="48.69253" lon="2.61273">
        <ele>130</ele>
        <time>2014-09-09T09:38:23.737Z</time>
      </trkpt>
      <trkpt lat="48.69258" lon="2.61263">
        <ele>131</ele>
        <time>2014-09-09T09:38:31.749Z</time>
      </trkpt>
      <trkpt lat="48.69259" lon="2.61262">
        <ele>131</ele>
        <time>2014-09-09T09:38:32.776Z</time>
      </trkpt>
      <trkpt lat="48.69267" lon="2.61256">
        <ele>133</ele>
        <time>2014-09-09T09:38:39.784Z</time>
      </trkpt>
      <trkpt lat="48.69268" lon="2.61255">
        <ele>134</ele>
        <time>2014-09-09T09:38:40.786Z</time>
      </trkpt>
      <trkpt lat="48.69271" lon="2.61244">
        <ele>133</ele>
        <time>2014-09-09T09:38:46.777Z</time>
      </trkpt>
      <trkpt lat="48.69271" lon="2.61242">
        <ele>132</ele>
        <time>2014-09-09T09:38:47.744Z</time>
      </trkpt>
      <trkpt lat="48.69271" lon="2.61229">
        <ele>133</ele>
        <time>2014-09-09T09:38:54.771Z</time>
      </trkpt>
      <trkpt lat="48.69271" lon="2.61228">
        <ele>133</ele>
        <time>2014-09-09T09:38:55.798Z</time>
      </trkpt>
      <trkpt lat="48.69263" lon="2.61222">
        <ele>130</ele>
        <time>2014-09-09T09:39:28.785Z</time>
      </trkpt>
      <trkpt lat="48.69263" lon="2.6122">
        <ele>129</ele>
        <time>2014-09-09T09:39:29.783Z</time>
      </trkpt>
      <trkpt lat="48.69266" lon="2.61208">
        <ele>131</ele>
        <time>2014-09-09T09:39:42.749Z</time>
      </trkpt>
      <trkpt lat="48.69266" lon="2.61207">
        <ele>131</ele>
        <time>2014-09-09T09:39:43.752Z</time>
      </trkpt>
      <trkpt lat="48.69263" lon="2.61196">
        <ele>134</ele>
        <time>2014-09-09T09:40:08.754Z</time>
      </trkpt>
      <trkpt lat="48.69263" lon="2.61194">
        <ele>133</ele>
        <time>2014-09-09T09:40:09.809Z</time>
      </trkpt>
      <trkpt lat="48.69256" lon="2.61186">
        <ele>133</ele>
        <time>2014-09-09T09:40:17.778Z</time>
      </trkpt>
      <trkpt lat="48.69255" lon="2.61185">
        <ele>133</ele>
        <time>2014-09-09T09:40:18.780Z</time>
      </trkpt>
      <trkpt lat="48.69256" lon="2.61173">
        <ele>130</ele>
        <time>2014-09-09T09:41:05.784Z</time>
      </trkpt>
      <trkpt lat="48.69257" lon="2.61171">
        <ele>130</ele>
        <time>2014-09-09T09:41:06.788Z</time>
      </trkpt>
      <trkpt lat="48.69255" lon="2.61158">
        <ele>128</ele>
        <time>2014-09-09T09:41:15.743Z</time>
      </trkpt>
      <trkpt lat="48.69254" lon="2.61158">
        <ele>128</ele>
        <time>2014-09-09T09:41:16.778Z</time>
      </trkpt>
      <trkpt lat="48.69245" lon="2.61162">
        <ele>128</ele>
        <time>2014-09-09T09:41:26.739Z</time>
      </trkpt>
      <trkpt lat="48.69244" lon="2.61162">
        <ele>128</ele>
        <time>2014-09-09T09:41:27.740Z</time>
      </trkpt>
      <trkpt lat="48.69236" lon="2.61156">
        <ele>125</ele>
        <time>2014-09-09T09:41:52.780Z</time>
      </trkpt>
      <trkpt lat="48.69235" lon="2.61156">
        <ele>125</ele>
        <time>2014-09-09T09:41:53.746Z</time>
      </trkpt>
      <trkpt lat="48.69228" lon="2.6115">
        <ele>127</ele>
        <time>2014-09-09T09:42:01.778Z</time>
      </trkpt>
      <trkpt lat="48.69227" lon="2.61149">
        <ele>126</ele>
        <time>2014-09-09T09:42:02.773Z</time>
      </trkpt>
      <trkpt lat="48.69222" lon="2.61138">
        <ele>129</ele>
        <time>2014-09-09T09:42:09.782Z</time>
      </trkpt>
      <trkpt lat="48.69222" lon="2.61136">
        <ele>129</ele>
        <time>2014-09-09T09:42:10.781Z</time>
      </trkpt>
      <trkpt lat="48.69216" lon="2.61126">
        <ele>129</ele>
        <time>2014-09-09T09:42:29.736Z</time>
      </trkpt>
      <trkpt lat="48.69215" lon="2.61125">
        <ele>128</ele>
        <time>2014-09-09T09:42:30.777Z</time>
      </trkpt>
      <trkpt lat="48.6921" lon="2.61114">
        <ele>129</ele>
        <time>2014-09-09T09:42:36.779Z</time>
      </trkpt>
      <trkpt lat="48.69209" lon="2.61112">
        <ele>128</ele>
        <time>2014-09-09T09:42:37.772Z</time>
      </trkpt>
      <trkpt lat="48.69203" lon="2.61103">
        <ele>128</ele>
        <time>2014-09-09T09:42:42.783Z</time>
      </trkpt>
      <trkpt lat="48.69202" lon="2.61101">
        <ele>128</ele>
        <time>2014-09-09T09:42:43.741Z</time>
      </trkpt>
      <trkpt lat="48.69198" lon="2.61089">
        <ele>133</ele>
        <time>2014-09-09T09:42:57.781Z</time>
      </trkpt>
      <trkpt lat="48.69197" lon="2.61088">
        <ele>133</ele>
        <time>2014-09-09T09:42:58.776Z</time>
      </trkpt>
      <trkpt lat="48.69192" lon="2.6108">
        <ele>133</ele>
        <time>2014-09-09T09:43:10.856Z</time>
      </trkpt>
      <trkpt lat="48.69191" lon="2.61078">
        <ele>132</ele>
        <time>2014-09-09T09:43:11.782Z</time>
      </trkpt>
      <trkpt lat="48.69185" lon="2.6107">
        <ele>132</ele>
        <time>2014-09-09T09:43:18.789Z</time>
      </trkpt>
      <trkpt lat="48.69184" lon="2.61069">
        <ele>132</ele>
        <time>2014-09-09T09:43:19.785Z</time>
      </trkpt>
      <trkpt lat="48.69183" lon="2.61056">
        <ele>129</ele>
        <time>2014-09-09T09:43:46.788Z</time>
      </trkpt>
      <trkpt lat="48.69183" lon="2.61055">
        <ele>129</ele>
        <time>2014-09-09T09:43:47.783Z</time>
      </trkpt>
      <trkpt lat="48.69186" lon="2.61042">
        <ele>131</ele>
        <time>2014-09-09T09:44:00.739Z</time>
      </trkpt>
      <trkpt lat="48.69187" lon="2.61041">
        <ele>131</ele>
        <time>2014-09-09T09:44:01.775Z</time>
      </trkpt>
      <trkpt lat="48.69192" lon="2.6103">
        <ele>131</ele>
        <time>2014-09-09T09:44:12.794Z</time>
      </trkpt>
      <trkpt lat="48.69192" lon="2.61029">
        <ele>131</ele>
        <time>2014-09-09T09:44:13.782Z</time>
      </trkpt>
      <trkpt lat="48.69199" lon="2.61021">
        <ele>128</ele>
        <time>2014-09-09T09:44:50.999Z</time>
      </trkpt>
      <trkpt lat="48.692" lon="2.61019">
        <ele>128</ele>
        <time>2014-09-09T09:44:51.743Z</time>
      </trkpt>
      <trkpt lat="48.69206" lon="2.61009">
        <ele>127</ele>
        <time>2014-09-09T09:44:58.734Z</time>
      </trkpt>
      <trkpt lat="48.69207" lon="2.61009">
        <ele>127</ele>
        <time>2014-09-09T09:44:59.734Z</time>
      </trkpt>
      <trkpt lat="48.69215" lon="2.61016">
        <ele>129</ele>
        <time>2014-09-09T09:45:06.735Z</time>
      </trkpt>
      <trkpt lat="48.69216" lon="2.61017">
        <ele>129</ele>
        <time>2014-09-09T09:45:07.780Z</time>
      </trkpt>
      <trkpt lat="48.69222" lon="2.61025">
        <ele>130</ele>
        <time>2014-09-09T09:45:13.780Z</time>
      </trkpt>
      <trkpt lat="48.69223" lon="2.61026">
        <ele>131</ele>
        <time>2014-09-09T09:45:14.779Z</time>
      </trkpt>
      <trkpt lat="48.69231" lon="2.61033">
        <ele>131</ele>
        <time>2014-09-09T09:45:27.784Z</time>
      </trkpt>
      <trkpt lat="48.69231" lon="2.61033">
        <ele>131</ele>
        <time>2014-09-09T09:45:28.781Z</time>
      </trkpt>
      <trkpt lat="48.69237" lon="2.61043">
        <ele>131</ele>
        <time>2014-09-09T09:45:37.769Z</time>
      </trkpt>
      <trkpt lat="48.69237" lon="2.61045">
        <ele>132</ele>
        <time>2014-09-09T09:45:38.781Z</time>
      </trkpt>
      <trkpt lat="48.6924" lon="2.61057">
        <ele>132</ele>
        <time>2014-09-09T09:45:44.779Z</time>
      </trkpt>
      <trkpt lat="48.69241" lon="2.61059">
        <ele>132</ele>
        <time>2014-09-09T09:45:45.741Z</time>
      </trkpt>
      <trkpt lat="48.69247" lon="2.61067">
        <ele>133</ele>
        <time>2014-09-09T09:45:53.754Z</time>
      </trkpt>
      <trkpt lat="48.69248" lon="2.61068">
        <ele>133</ele>
        <time>2014-09-09T09:45:54.776Z</time>
      </trkpt>
      <trkpt lat="48.69253" lon="2.61078">
        <ele>132</ele>
        <time>2014-09-09T09:46:05.741Z</time>
      </trkpt>
      <trkpt lat="48.69254" lon="2.61079">
        <ele>132</ele>
        <time>2014-09-09T09:46:06.755Z</time>
      </trkpt>
      <trkpt lat="48.69259" lon="2.61089">
        <ele>131</ele>
        <time>2014-09-09T09:46:22.796Z</time>
      </trkpt>
      <trkpt lat="48.69259" lon="2.61091">
        <ele>131</ele>
        <time>2014-09-09T09:46:23.750Z</time>
      </trkpt>
      <trkpt lat="48.69262" lon="2.61103">
        <ele>133</ele>
        <time>2014-09-09T09:46:32.777Z</time>
      </trkpt>
      <trkpt lat="48.69264" lon="2.61103">
        <ele>133</ele>
        <time>2014-09-09T09:46:33.750Z</time>
      </trkpt>
      <trkpt lat="48.69267" lon="2.61115">
        <ele>131</ele>
        <time>2014-09-09T09:46:47.782Z</time>
      </trkpt>
      <trkpt lat="48.69266" lon="2.61117">
        <ele>131</ele>
        <time>2014-09-09T09:46:48.800Z</time>
      </trkpt>
      <trkpt lat="48.69272" lon="2.61106">
        <ele>130</ele>
        <time>2014-09-09T09:47:09.797Z</time>
      </trkpt>
      <trkpt lat="48.69272" lon="2.61105">
        <ele>129</ele>
        <time>2014-09-09T09:47:10.755Z</time>
      </trkpt>
      <trkpt lat="48.69276" lon="2.61093">
        <ele>131</ele>
        <time>2014-09-09T09:47:26.776Z</time>
      </trkpt>
      <trkpt lat="48.69277" lon="2.61091">
        <ele>132</ele>
        <time>2014-09-09T09:47:27.786Z</time>
      </trkpt>
      <trkpt lat="48.69283" lon="2.61083">
        <ele>131</ele>
        <time>2014-09-09T09:47:33.740Z</time>
      </trkpt>
      <trkpt lat="48.69284" lon="2.61081">
        <ele>131</ele>
        <time>2014-09-09T09:47:34.788Z</time>
      </trkpt>
      <trkpt lat="48.69288" lon="2.61071">
        <ele>132</ele>
        <time>2014-09-09T09:47:40.778Z</time>
      </trkpt>
      <trkpt lat="48.69288" lon="2.61069">
        <ele>131</ele>
        <time>2014-09-09T09:47:41.787Z</time>
      </trkpt>
      <trkpt lat="48.69283" lon="2.61059">
        <ele>127</ele>
        <time>2014-09-09T09:47:58.776Z</time>
      </trkpt>
      <trkpt lat="48.69283" lon="2.61058">
        <ele>127</ele>
        <time>2014-09-09T09:47:59.737Z</time>
      </trkpt>
      <trkpt lat="48.6928" lon="2.61047">
        <ele>128</ele>
        <time>2014-09-09T09:48:05.847Z</time>
      </trkpt>
      <trkpt lat="48.69279" lon="2.61045">
        <ele>128</ele>
        <time>2014-09-09T09:48:06.741Z</time>
      </trkpt>
      <trkpt lat="48.69275" lon="2.61033">
        <ele>127</ele>
        <time>2014-09-09T09:48:12.776Z</time>
      </trkpt>
      <trkpt lat="48.69275" lon="2.61032">
        <ele>127</ele>
        <time>2014-09-09T09:48:13.785Z</time>
      </trkpt>
      <trkpt lat="48.6927" lon="2.61022">
        <ele>129</ele>
        <time>2014-09-09T09:48:19.744Z</time>
      </trkpt>
      <trkpt lat="48.69269" lon="2.6102">
        <ele>129</ele>
        <time>2014-09-09T09:48:20.760Z</time>
      </trkpt>
      <trkpt lat="48.69263" lon="2.61012">
        <ele>131</ele>
        <time>2014-09-09T09:48:26.815Z</time>
      </trkpt>
      <trkpt lat="48.69262" lon="2.61011">
        <ele>131</ele>
        <time>2014-09-09T09:48:27.740Z</time>
      </trkpt>
      <trkpt lat="48.69255" lon="2.61004">
        <ele>130</ele>
        <time>2014-09-09T09:48:33.777Z</time>
      </trkpt>
      <trkpt lat="48.69254" lon="2.61003">
        <ele>130</ele>
        <time>2014-09-09T09:48:34.742Z</time>
      </trkpt>
      <trkpt lat="48.69245" lon="2.61001">
        <ele>131</ele>
        <time>2014-09-09T09:48:40.786Z</time>
      </trkpt>
      <trkpt lat="48.69244" lon="2.61001">
        <ele>130</ele>
        <time>2014-09-09T09:48:41.786Z</time>
      </trkpt>
      <trkpt lat="48.69239" lon="2.6101">
        <ele>132</ele>
        <time>2014-09-09T09:49:20.065Z</time>
      </trkpt>
      <trkpt lat="48.69238" lon="2.61011">
        <ele>131</ele>
        <time>2014-09-09T09:49:20.741Z</time>
      </trkpt>
      <trkpt lat="48.69231" lon="2.61017">
        <ele>131</ele>
        <time>2014-09-09T09:49:26.793Z</time>
      </trkpt>
      <trkpt lat="48.6923" lon="2.61018">
        <ele>131</ele>
        <time>2014-09-09T09:49:27.782Z</time>
      </trkpt>
      <trkpt lat="48.69221" lon="2.61017">
        <ele>130</ele>
        <time>2014-09-09T09:49:41.740Z</time>
      </trkpt>
      <trkpt lat="48.69221" lon="2.61016">
        <ele>130</ele>
        <time>2014-09-09T09:49:42.784Z</time>
      </trkpt>
      <trkpt lat="48.69216" lon="2.61006">
        <ele>130</ele>
        <time>2014-09-09T09:49:54.783Z</time>
      </trkpt>
      <trkpt lat="48.69215" lon="2.61005">
        <ele>131</ele>
        <time>2014-09-09T09:49:55.784Z</time>
      </trkpt>
      <trkpt lat="48.69207" lon="2.61001">
        <ele>133</ele>
        <time>2014-09-09T09:50:11.784Z</time>
      </trkpt>
      <trkpt lat="48.69206" lon="2.61">
        <ele>134</ele>
        <time>2014-09-09T09:50:12.790Z</time>
      </trkpt>
      <trkpt lat="48.69199" lon="2.60993">
        <ele>134</ele>
        <time>2014-09-09T09:50:21.780Z</time>
      </trkpt>
      <trkpt lat="48.69198" lon="2.60992">
        <ele>134</ele>
        <time>2014-09-09T09:50:22.774Z</time>
      </trkpt>
      <trkpt lat="48.69191" lon="2.60985">
        <ele>141</ele>
        <time>2014-09-09T09:50:32.739Z</time>
      </trkpt>
      <trkpt lat="48.6919" lon="2.60984">
        <ele>142</ele>
        <time>2014-09-09T09:50:33.741Z</time>
      </trkpt>
      <trkpt lat="48.69184" lon="2.60976">
        <ele>135</ele>
        <time>2014-09-09T09:50:39.791Z</time>
      </trkpt>
      <trkpt lat="48.69183" lon="2.60974">
        <ele>134</ele>
        <time>2014-09-09T09:50:40.785Z</time>
      </trkpt>
      <trkpt lat="48.69179" lon="2.60963">
        <ele>132</ele>
        <time>2014-09-09T09:50:46.785Z</time>
      </trkpt>
      <trkpt lat="48.69179" lon="2.60961">
        <ele>132</ele>
        <time>2014-09-09T09:50:47.781Z</time>
      </trkpt>
      <trkpt lat="48.69172" lon="2.60956">
        <ele>131</ele>
        <time>2014-09-09T09:50:56.786Z</time>
      </trkpt>
      <trkpt lat="48.69171" lon="2.60955">
        <ele>129</ele>
        <time>2014-09-09T09:50:57.788Z</time>
      </trkpt>
      <trkpt lat="48.69166" lon="2.60945">
        <ele>130</ele>
        <time>2014-09-09T09:51:04.733Z</time>
      </trkpt>
      <trkpt lat="48.69165" lon="2.60943">
        <ele>131</ele>
        <time>2014-09-09T09:51:05.780Z</time>
      </trkpt>
      <trkpt lat="48.6916" lon="2.60934">
        <ele>132</ele>
        <time>2014-09-09T09:51:12.776Z</time>
      </trkpt>
      <trkpt lat="48.6916" lon="2.60932">
        <ele>131</ele>
        <time>2014-09-09T09:51:13.791Z</time>
      </trkpt>
      <trkpt lat="48.69153" lon="2.60923">
        <ele>132</ele>
        <time>2014-09-09T09:51:22.775Z</time>
      </trkpt>
      <trkpt lat="48.69153" lon="2.60922">
        <ele>132</ele>
        <time>2014-09-09T09:51:23.744Z</time>
      </trkpt>
      <trkpt lat="48.69148" lon="2.60911">
        <ele>128</ele>
        <time>2014-09-09T09:51:39.783Z</time>
      </trkpt>
      <trkpt lat="48.69147" lon="2.6091">
        <ele>129</ele>
        <time>2014-09-09T09:51:40.787Z</time>
      </trkpt>
      <trkpt lat="48.6914" lon="2.60903">
        <ele>131</ele>
        <time>2014-09-09T09:51:47.778Z</time>
      </trkpt>
      <trkpt lat="48.69139" lon="2.60902">
        <ele>132</ele>
        <time>2014-09-09T09:51:48.784Z</time>
      </trkpt>
      <trkpt lat="48.69133" lon="2.60893">
        <ele>130</ele>
        <time>2014-09-09T09:51:56.738Z</time>
      </trkpt>
      <trkpt lat="48.69133" lon="2.60892">
        <ele>130</ele>
        <time>2014-09-09T09:51:57.828Z</time>
      </trkpt>
      <trkpt lat="48.69128" lon="2.6088">
        <ele>132</ele>
        <time>2014-09-09T09:52:08.774Z</time>
      </trkpt>
      <trkpt lat="48.69128" lon="2.60878">
        <ele>132</ele>
        <time>2014-09-09T09:52:09.740Z</time>
      </trkpt>
      <trkpt lat="48.69127" lon="2.60867">
        <ele>132</ele>
        <time>2014-09-09T09:52:16.734Z</time>
      </trkpt>
      <trkpt lat="48.69127" lon="2.60865">
        <ele>131</ele>
        <time>2014-09-09T09:52:17.814Z</time>
      </trkpt>
      <trkpt lat="48.69125" lon="2.60852">
        <ele>138</ele>
        <time>2014-09-09T09:52:26.767Z</time>
      </trkpt>
      <trkpt lat="48.69124" lon="2.60851">
        <ele>139</ele>
        <time>2014-09-09T09:52:27.778Z</time>
      </trkpt>
      <trkpt lat="48.69126" lon="2.60838">
        <ele>140</ele>
        <time>2014-09-09T09:52:36.756Z</time>
      </trkpt>
      <trkpt lat="48.69126" lon="2.60837">
        <ele>138</ele>
        <time>2014-09-09T09:52:37.779Z</time>
      </trkpt>
      <trkpt lat="48.69125" lon="2.60825">
        <ele>136</ele>
        <time>2014-09-09T09:52:47.784Z</time>
      </trkpt>
      <trkpt lat="48.69125" lon="2.60823">
        <ele>136</ele>
        <time>2014-09-09T09:52:48.784Z</time>
      </trkpt>
      <trkpt lat="48.6912" lon="2.60813">
        <ele>134</ele>
        <time>2014-09-09T09:52:56.782Z</time>
      </trkpt>
      <trkpt lat="48.69119" lon="2.60812">
        <ele>134</ele>
        <time>2014-09-09T09:52:57.784Z</time>
      </trkpt>
      <trkpt lat="48.69114" lon="2.60801">
        <ele>133</ele>
        <time>2014-09-09T09:53:04.778Z</time>
      </trkpt>
      <trkpt lat="48.69114" lon="2.60799">
        <ele>134</ele>
        <time>2014-09-09T09:53:05.774Z</time>
      </trkpt>
      <trkpt lat="48.69109" lon="2.60787">
        <ele>136</ele>
        <time>2014-09-09T09:53:13.777Z</time>
      </trkpt>
      <trkpt lat="48.69109" lon="2.60786">
        <ele>135</ele>
        <time>2014-09-09T09:53:14.740Z</time>
      </trkpt>
      <trkpt lat="48.69103" lon="2.60776">
        <ele>134</ele>
        <time>2014-09-09T09:53:34.966Z</time>
      </trkpt>
      <trkpt lat="48.69103" lon="2.60774">
        <ele>134</ele>
        <time>2014-09-09T09:53:35.834Z</time>
      </trkpt>
      <trkpt lat="48.69102" lon="2.60761">
        <ele>134</ele>
        <time>2014-09-09T09:53:43.804Z</time>
      </trkpt>
      <trkpt lat="48.69102" lon="2.6076">
        <ele>135</ele>
        <time>2014-09-09T09:53:44.753Z</time>
      </trkpt>
      <trkpt lat="48.69096" lon="2.60752">
        <ele>133</ele>
        <time>2014-09-09T09:53:53.782Z</time>
      </trkpt>
      <trkpt lat="48.69095" lon="2.6075">
        <ele>132</ele>
        <time>2014-09-09T09:53:54.780Z</time>
      </trkpt>
      <trkpt lat="48.69091" lon="2.60739">
        <ele>135</ele>
        <time>2014-09-09T09:54:03.788Z</time>
      </trkpt>
      <trkpt lat="48.69091" lon="2.60738">
        <ele>136</ele>
        <time>2014-09-09T09:54:04.742Z</time>
      </trkpt>
      <trkpt lat="48.69087" lon="2.60726">
        <ele>136</ele>
        <time>2014-09-09T09:54:23.777Z</time>
      </trkpt>
      <trkpt lat="48.69087" lon="2.60725">
        <ele>136</ele>
        <time>2014-09-09T09:54:24.782Z</time>
      </trkpt>
      <trkpt lat="48.69083" lon="2.60714">
        <ele>133</ele>
        <time>2014-09-09T09:54:35.736Z</time>
      </trkpt>
      <trkpt lat="48.69082" lon="2.60713">
        <ele>132</ele>
        <time>2014-09-09T09:54:36.772Z</time>
      </trkpt>
      <trkpt lat="48.69083" lon="2.60702">
        <ele>136</ele>
        <time>2014-09-09T09:55:23.484Z</time>
      </trkpt>
      <trkpt lat="48.69083" lon="2.60702">
        <ele>136</ele>
        <time>2014-09-09T09:55:24.975Z</time>
      </trkpt>
      <trkpt lat="48.69084" lon="2.60701">
        <ele>136</ele>
        <time>2014-09-09T09:55:25.847Z</time>
      </trkpt>
    </trkseg>
  </trk>
</gpx>